<?xml version="1.0" encoding="UTF-8"?>
<gpx version="1.1" creator="https://www.youtrack.es" xsi:schemaLocation="http://www.topografix.com/GPX/1/1 http://www.topografix.com/GPX/1/1/gpx.xsd http://www.garmin.com/xmlschemas/GpxExtensions/v3 http://www.garmin.com/xmlschemas/GpxExtensionsv3.xsd http://www.garmin.com/xmlschemas/TrackPointExtension/v1 http://www.garmin.com/xmlschemas/TrackPointExtensionv1.xsd" xmlns:gpxtpx="http://www.garmin.com/xmlschemas/TrackPointExtension/v1" xmlns:gpxx="http://www.garmin.com/xmlschemas/GpxExtensions/v3" xmlns:xsi="http://www.w3.org/2001/XMLSchema-instance">
  <metadata>
    <link href="https://www.youtrack.es">
      <text>YouTrack.es</text>
    </link>
    <time>2026-05-08T03:00:15Z</time>
  </metadata>
  <trk>
    <src>https://www.youtrack.es</src>
    <link href="https://www.youtrack.es/ruta/16426-castell-olerdola">
      <text>YouTrack.es</text>
    </link>
    <trkseg>
      <trkpt lat="41.2584" lon="1.7743">
        <ele>42</ele>
        <time>2020-10-05 17:33:14</time>
      </trkpt>
      <trkpt lat="41.25817" lon="1.77402">
        <ele>41</ele>
        <time>2020-10-05 17:33:18</time>
      </trkpt>
      <trkpt lat="41.25806" lon="1.77387">
        <ele>40.6</ele>
        <time>2020-10-05 17:33:20</time>
      </trkpt>
      <trkpt lat="41.25763" lon="1.7733">
        <ele>40</ele>
        <time>2020-10-05 17:33:28</time>
      </trkpt>
      <trkpt lat="41.25757" lon="1.77323">
        <ele>39.8</ele>
        <time>2020-10-05 17:33:29</time>
      </trkpt>
      <trkpt lat="41.25724" lon="1.77279">
        <ele>40.4</ele>
        <time>2020-10-05 17:33:35</time>
      </trkpt>
      <trkpt lat="41.25682" lon="1.77225">
        <ele>39.4</ele>
        <time>2020-10-05 17:33:42</time>
      </trkpt>
      <trkpt lat="41.25669" lon="1.77209">
        <ele>39.2</ele>
        <time>2020-10-05 17:33:44</time>
      </trkpt>
      <trkpt lat="41.25625" lon="1.77159">
        <ele>38.8</ele>
        <time>2020-10-05 17:33:51</time>
      </trkpt>
      <trkpt lat="41.25619" lon="1.77152">
        <ele>38.6</ele>
        <time>2020-10-05 17:33:52</time>
      </trkpt>
      <trkpt lat="41.25577" lon="1.77099">
        <ele>38</ele>
        <time>2020-10-05 17:33:59</time>
      </trkpt>
      <trkpt lat="41.25572" lon="1.77091">
        <ele>37.8</ele>
        <time>2020-10-05 17:34:00</time>
      </trkpt>
      <trkpt lat="41.25566" lon="1.77083">
        <ele>37.6</ele>
        <time>2020-10-05 17:34:01</time>
      </trkpt>
      <trkpt lat="41.25559" lon="1.77076">
        <ele>37.6</ele>
        <time>2020-10-05 17:34:02</time>
      </trkpt>
      <trkpt lat="41.25515" lon="1.77022">
        <ele>37.2</ele>
        <time>2020-10-05 17:34:09</time>
      </trkpt>
      <trkpt lat="41.25492" lon="1.76993">
        <ele>37.4</ele>
        <time>2020-10-05 17:34:13</time>
      </trkpt>
      <trkpt lat="41.25451" lon="1.76939">
        <ele>38.2</ele>
        <time>2020-10-05 17:34:21</time>
      </trkpt>
      <trkpt lat="41.25446" lon="1.76933">
        <ele>38.6</ele>
        <time>2020-10-05 17:34:22</time>
      </trkpt>
      <trkpt lat="41.25426" lon="1.76909">
        <ele>39.8</ele>
        <time>2020-10-05 17:34:26</time>
      </trkpt>
      <trkpt lat="41.25409" lon="1.76894">
        <ele>40.4</ele>
        <time>2020-10-05 17:34:29</time>
      </trkpt>
      <trkpt lat="41.25397" lon="1.76886">
        <ele>41.2</ele>
        <time>2020-10-05 17:34:31</time>
      </trkpt>
      <trkpt lat="41.2537" lon="1.76872">
        <ele>42.2</ele>
        <time>2020-10-05 17:34:35</time>
      </trkpt>
      <trkpt lat="41.25357" lon="1.76868">
        <ele>43.2</ele>
        <time>2020-10-05 17:34:37</time>
      </trkpt>
      <trkpt lat="41.25335" lon="1.76866">
        <ele>43.8</ele>
        <time>2020-10-05 17:34:40</time>
      </trkpt>
      <trkpt lat="41.25327" lon="1.76867">
        <ele>43.8</ele>
        <time>2020-10-05 17:34:41</time>
      </trkpt>
      <trkpt lat="41.25303" lon="1.76874">
        <ele>43.8</ele>
        <time>2020-10-05 17:34:44</time>
      </trkpt>
      <trkpt lat="41.25263" lon="1.76898">
        <ele>43.8</ele>
        <time>2020-10-05 17:34:49</time>
      </trkpt>
      <trkpt lat="41.25214" lon="1.76938">
        <ele>42.6</ele>
        <time>2020-10-05 17:34:55</time>
      </trkpt>
      <trkpt lat="41.25197" lon="1.76952">
        <ele>41.8</ele>
        <time>2020-10-05 17:34:57</time>
      </trkpt>
      <trkpt lat="41.25181" lon="1.76966">
        <ele>40.8</ele>
        <time>2020-10-05 17:34:59</time>
      </trkpt>
      <trkpt lat="41.25138" lon="1.77001">
        <ele>39.4</ele>
        <time>2020-10-05 17:35:04</time>
      </trkpt>
      <trkpt lat="41.25093" lon="1.77034">
        <ele>38.2</ele>
        <time>2020-10-05 17:35:09</time>
      </trkpt>
      <trkpt lat="41.25037" lon="1.77073">
        <ele>37.4</ele>
        <time>2020-10-05 17:35:15</time>
      </trkpt>
      <trkpt lat="41.25008" lon="1.77091">
        <ele>37.2</ele>
        <time>2020-10-05 17:35:18</time>
      </trkpt>
      <trkpt lat="41.24999" lon="1.77097">
        <ele>37.2</ele>
        <time>2020-10-05 17:35:19</time>
      </trkpt>
      <trkpt lat="41.24953" lon="1.77125">
        <ele>35.8</ele>
        <time>2020-10-05 17:35:24</time>
      </trkpt>
      <trkpt lat="41.24926" lon="1.77141">
        <ele>35.6</ele>
        <time>2020-10-05 17:35:27</time>
      </trkpt>
      <trkpt lat="41.24873" lon="1.77174">
        <ele>35.6</ele>
        <time>2020-10-05 17:35:33</time>
      </trkpt>
      <trkpt lat="41.24836" lon="1.77196">
        <ele>35.4</ele>
        <time>2020-10-05 17:35:37</time>
      </trkpt>
      <trkpt lat="41.24806" lon="1.77209">
        <ele>35.4</ele>
        <time>2020-10-05 17:35:40</time>
      </trkpt>
      <trkpt lat="41.24795" lon="1.7721">
        <ele>35.2</ele>
        <time>2020-10-05 17:35:41</time>
      </trkpt>
      <trkpt lat="41.24751" lon="1.77206">
        <ele>34.8</ele>
        <time>2020-10-05 17:35:45</time>
      </trkpt>
      <trkpt lat="41.2472" lon="1.77189">
        <ele>33.4</ele>
        <time>2020-10-05 17:35:48</time>
      </trkpt>
      <trkpt lat="41.2471" lon="1.77182">
        <ele>32.6</ele>
        <time>2020-10-05 17:35:49</time>
      </trkpt>
      <trkpt lat="41.24701" lon="1.77173">
        <ele>32.2</ele>
        <time>2020-10-05 17:35:50</time>
      </trkpt>
      <trkpt lat="41.24685" lon="1.77153">
        <ele>30.6</ele>
        <time>2020-10-05 17:35:52</time>
      </trkpt>
      <trkpt lat="41.24678" lon="1.77142">
        <ele>30.2</ele>
        <time>2020-10-05 17:35:53</time>
      </trkpt>
      <trkpt lat="41.24672" lon="1.7713">
        <ele>30</ele>
        <time>2020-10-05 17:35:54</time>
      </trkpt>
      <trkpt lat="41.24666" lon="1.77118">
        <ele>29.6</ele>
        <time>2020-10-05 17:35:55</time>
      </trkpt>
      <trkpt lat="41.24651" lon="1.77081">
        <ele>28.8</ele>
        <time>2020-10-05 17:35:58</time>
      </trkpt>
      <trkpt lat="41.24641" lon="1.77058">
        <ele>28.6</ele>
        <time>2020-10-05 17:36:00</time>
      </trkpt>
      <trkpt lat="41.24613" lon="1.76989">
        <ele>28.2</ele>
        <time>2020-10-05 17:36:06</time>
      </trkpt>
      <trkpt lat="41.24609" lon="1.76978">
        <ele>28.2</ele>
        <time>2020-10-05 17:36:07</time>
      </trkpt>
      <trkpt lat="41.24582" lon="1.76928">
        <ele>28.2</ele>
        <time>2020-10-05 17:36:12</time>
      </trkpt>
      <trkpt lat="41.24548" lon="1.76887">
        <ele>29</ele>
        <time>2020-10-05 17:36:17</time>
      </trkpt>
      <trkpt lat="41.2452" lon="1.76857">
        <ele>29.6</ele>
        <time>2020-10-05 17:36:21</time>
      </trkpt>
      <trkpt lat="41.24471" lon="1.76805">
        <ele>30</ele>
        <time>2020-10-05 17:36:28</time>
      </trkpt>
      <trkpt lat="41.24457" lon="1.7679">
        <ele>30</ele>
        <time>2020-10-05 17:36:30</time>
      </trkpt>
      <trkpt lat="41.24409" lon="1.76738">
        <ele>30.4</ele>
        <time>2020-10-05 17:36:37</time>
      </trkpt>
      <trkpt lat="41.24381" lon="1.76708">
        <ele>30.4</ele>
        <time>2020-10-05 17:36:41</time>
      </trkpt>
      <trkpt lat="41.24334" lon="1.76657">
        <ele>30.4</ele>
        <time>2020-10-05 17:36:48</time>
      </trkpt>
      <trkpt lat="41.24315" lon="1.76633">
        <ele>30.4</ele>
        <time>2020-10-05 17:36:51</time>
      </trkpt>
      <trkpt lat="41.24299" lon="1.76607">
        <ele>30.6</ele>
        <time>2020-10-05 17:36:54</time>
      </trkpt>
      <trkpt lat="41.24294" lon="1.76597">
        <ele>30.8</ele>
        <time>2020-10-05 17:36:55</time>
      </trkpt>
      <trkpt lat="41.24291" lon="1.76587">
        <ele>31</ele>
        <time>2020-10-05 17:36:56</time>
      </trkpt>
      <trkpt lat="41.2429" lon="1.76555">
        <ele>31.2</ele>
        <time>2020-10-05 17:36:59</time>
      </trkpt>
      <trkpt lat="41.24303" lon="1.76517">
        <ele>31.4</ele>
        <time>2020-10-05 17:37:03</time>
      </trkpt>
      <trkpt lat="41.24315" lon="1.76503">
        <ele>31.8</ele>
        <time>2020-10-05 17:37:05</time>
      </trkpt>
      <trkpt lat="41.2432" lon="1.76497">
        <ele>31.8</ele>
        <time>2020-10-05 17:37:06</time>
      </trkpt>
      <trkpt lat="41.24325" lon="1.7649">
        <ele>32</ele>
        <time>2020-10-05 17:37:07</time>
      </trkpt>
      <trkpt lat="41.24336" lon="1.76469">
        <ele>33</ele>
        <time>2020-10-05 17:37:10</time>
      </trkpt>
      <trkpt lat="41.24338" lon="1.76462">
        <ele>33.2</ele>
        <time>2020-10-05 17:37:11</time>
      </trkpt>
      <trkpt lat="41.24342" lon="1.76435">
        <ele>34.2</ele>
        <time>2020-10-05 17:37:15</time>
      </trkpt>
      <trkpt lat="41.2434" lon="1.76415">
        <ele>35.6</ele>
        <time>2020-10-05 17:37:18</time>
      </trkpt>
      <trkpt lat="41.24336" lon="1.76402">
        <ele>36.6</ele>
        <time>2020-10-05 17:37:20</time>
      </trkpt>
      <trkpt lat="41.24333" lon="1.76396">
        <ele>37</ele>
        <time>2020-10-05 17:37:21</time>
      </trkpt>
      <trkpt lat="41.24328" lon="1.76384">
        <ele>37.8</ele>
        <time>2020-10-05 17:37:23</time>
      </trkpt>
      <trkpt lat="41.24319" lon="1.76367">
        <ele>38.8</ele>
        <time>2020-10-05 17:37:26</time>
      </trkpt>
      <trkpt lat="41.24317" lon="1.76362">
        <ele>39.2</ele>
        <time>2020-10-05 17:37:27</time>
      </trkpt>
      <trkpt lat="41.2431" lon="1.76351">
        <ele>39.8</ele>
        <time>2020-10-05 17:37:29</time>
      </trkpt>
      <trkpt lat="41.24302" lon="1.76332">
        <ele>40.8</ele>
        <time>2020-10-05 17:37:32</time>
      </trkpt>
      <trkpt lat="41.243" lon="1.76325">
        <ele>41.8</ele>
        <time>2020-10-05 17:37:33</time>
      </trkpt>
      <trkpt lat="41.24297" lon="1.76311">
        <ele>42.8</ele>
        <time>2020-10-05 17:37:35</time>
      </trkpt>
      <trkpt lat="41.24296" lon="1.76304">
        <ele>43.2</ele>
        <time>2020-10-05 17:37:36</time>
      </trkpt>
      <trkpt lat="41.24296" lon="1.76296">
        <ele>43.6</ele>
        <time>2020-10-05 17:37:37</time>
      </trkpt>
      <trkpt lat="41.24301" lon="1.76273">
        <ele>44.2</ele>
        <time>2020-10-05 17:37:40</time>
      </trkpt>
      <trkpt lat="41.24304" lon="1.76266">
        <ele>44.2</ele>
        <time>2020-10-05 17:37:41</time>
      </trkpt>
      <trkpt lat="41.24307" lon="1.76259">
        <ele>44.4</ele>
        <time>2020-10-05 17:37:42</time>
      </trkpt>
      <trkpt lat="41.24329" lon="1.76216">
        <ele>44.8</ele>
        <time>2020-10-05 17:37:48</time>
      </trkpt>
      <trkpt lat="41.24354" lon="1.76154">
        <ele>45.2</ele>
        <time>2020-10-05 17:37:56</time>
      </trkpt>
      <trkpt lat="41.24361" lon="1.7613">
        <ele>45.4</ele>
        <time>2020-10-05 17:37:59</time>
      </trkpt>
      <trkpt lat="41.24368" lon="1.76091">
        <ele>46.4</ele>
        <time>2020-10-05 17:38:04</time>
      </trkpt>
      <trkpt lat="41.24367" lon="1.76053">
        <ele>47.8</ele>
        <time>2020-10-05 17:38:09</time>
      </trkpt>
      <trkpt lat="41.24366" lon="1.76045">
        <ele>48</ele>
        <time>2020-10-05 17:38:10</time>
      </trkpt>
      <trkpt lat="41.24362" lon="1.7603">
        <ele>48.6</ele>
        <time>2020-10-05 17:38:12</time>
      </trkpt>
      <trkpt lat="41.2436" lon="1.76022">
        <ele>49</ele>
        <time>2020-10-05 17:38:13</time>
      </trkpt>
      <trkpt lat="41.24353" lon="1.76008">
        <ele>49.6</ele>
        <time>2020-10-05 17:38:15</time>
      </trkpt>
      <trkpt lat="41.24349" lon="1.76">
        <ele>50</ele>
        <time>2020-10-05 17:38:16</time>
      </trkpt>
      <trkpt lat="41.24345" lon="1.75993">
        <ele>50.2</ele>
        <time>2020-10-05 17:38:17</time>
      </trkpt>
      <trkpt lat="41.24328" lon="1.75966">
        <ele>50.6</ele>
        <time>2020-10-05 17:38:21</time>
      </trkpt>
      <trkpt lat="41.24307" lon="1.75933">
        <ele>51</ele>
        <time>2020-10-05 17:38:26</time>
      </trkpt>
      <trkpt lat="41.24302" lon="1.75926">
        <ele>51</ele>
        <time>2020-10-05 17:38:27</time>
      </trkpt>
      <trkpt lat="41.24289" lon="1.75905">
        <ele>51.2</ele>
        <time>2020-10-05 17:38:30</time>
      </trkpt>
      <trkpt lat="41.24281" lon="1.75892">
        <ele>51.4</ele>
        <time>2020-10-05 17:38:32</time>
      </trkpt>
      <trkpt lat="41.24278" lon="1.75887">
        <ele>51.6</ele>
        <time>2020-10-05 17:38:33</time>
      </trkpt>
      <trkpt lat="41.24273" lon="1.75882">
        <ele>51.8</ele>
        <time>2020-10-05 17:38:34</time>
      </trkpt>
      <trkpt lat="41.24262" lon="1.75867">
        <ele>52.2</ele>
        <time>2020-10-05 17:38:37</time>
      </trkpt>
      <trkpt lat="41.24258" lon="1.75862">
        <ele>52.4</ele>
        <time>2020-10-05 17:38:38</time>
      </trkpt>
      <trkpt lat="41.24254" lon="1.75857">
        <ele>52.8</ele>
        <time>2020-10-05 17:38:39</time>
      </trkpt>
      <trkpt lat="41.24246" lon="1.75846">
        <ele>53.4</ele>
        <time>2020-10-05 17:38:41</time>
      </trkpt>
      <trkpt lat="41.24235" lon="1.7583">
        <ele>54.4</ele>
        <time>2020-10-05 17:38:44</time>
      </trkpt>
      <trkpt lat="41.24231" lon="1.75824">
        <ele>54.8</ele>
        <time>2020-10-05 17:38:45</time>
      </trkpt>
      <trkpt lat="41.24216" lon="1.75801">
        <ele>55.8</ele>
        <time>2020-10-05 17:38:49</time>
      </trkpt>
      <trkpt lat="41.24208" lon="1.75788">
        <ele>56</ele>
        <time>2020-10-05 17:38:51</time>
      </trkpt>
      <trkpt lat="41.24189" lon="1.75752">
        <ele>57</ele>
        <time>2020-10-05 17:38:56</time>
      </trkpt>
      <trkpt lat="41.24178" lon="1.75727">
        <ele>57.8</ele>
        <time>2020-10-05 17:38:59</time>
      </trkpt>
      <trkpt lat="41.24167" lon="1.75701">
        <ele>58.2</ele>
        <time>2020-10-05 17:39:02</time>
      </trkpt>
      <trkpt lat="41.24141" lon="1.75647">
        <ele>58.2</ele>
        <time>2020-10-05 17:39:08</time>
      </trkpt>
      <trkpt lat="41.24106" lon="1.7558">
        <ele>57</ele>
        <time>2020-10-05 17:39:15</time>
      </trkpt>
      <trkpt lat="41.241" lon="1.75571">
        <ele>56.8</ele>
        <time>2020-10-05 17:39:16</time>
      </trkpt>
      <trkpt lat="41.24062" lon="1.75511">
        <ele>55.8</ele>
        <time>2020-10-05 17:39:22</time>
      </trkpt>
      <trkpt lat="41.24048" lon="1.75491">
        <ele>55.8</ele>
        <time>2020-10-05 17:39:24</time>
      </trkpt>
      <trkpt lat="41.24026" lon="1.75459">
        <ele>54.8</ele>
        <time>2020-10-05 17:39:27</time>
      </trkpt>
      <trkpt lat="41.24012" lon="1.75437">
        <ele>53.4</ele>
        <time>2020-10-05 17:39:29</time>
      </trkpt>
      <trkpt lat="41.23998" lon="1.75415">
        <ele>52.2</ele>
        <time>2020-10-05 17:39:31</time>
      </trkpt>
      <trkpt lat="41.23991" lon="1.75403">
        <ele>51.6</ele>
        <time>2020-10-05 17:39:32</time>
      </trkpt>
      <trkpt lat="41.23985" lon="1.75392">
        <ele>50.8</ele>
        <time>2020-10-05 17:39:33</time>
      </trkpt>
      <trkpt lat="41.23972" lon="1.75367">
        <ele>49.8</ele>
        <time>2020-10-05 17:39:35</time>
      </trkpt>
      <trkpt lat="41.23954" lon="1.75329">
        <ele>48.6</ele>
        <time>2020-10-05 17:39:38</time>
      </trkpt>
      <trkpt lat="41.23938" lon="1.75289">
        <ele>47.4</ele>
        <time>2020-10-05 17:39:41</time>
      </trkpt>
      <trkpt lat="41.23925" lon="1.75247">
        <ele>46.2</ele>
        <time>2020-10-05 17:39:44</time>
      </trkpt>
      <trkpt lat="41.23912" lon="1.75192">
        <ele>45</ele>
        <time>2020-10-05 17:39:48</time>
      </trkpt>
      <trkpt lat="41.23907" lon="1.75166">
        <ele>44</ele>
        <time>2020-10-05 17:39:50</time>
      </trkpt>
      <trkpt lat="41.23905" lon="1.75153">
        <ele>43.8</ele>
        <time>2020-10-05 17:39:51</time>
      </trkpt>
      <trkpt lat="41.23896" lon="1.75093">
        <ele>43.4</ele>
        <time>2020-10-05 17:39:56</time>
      </trkpt>
      <trkpt lat="41.23885" lon="1.75018">
        <ele>43.6</ele>
        <time>2020-10-05 17:40:03</time>
      </trkpt>
      <trkpt lat="41.23884" lon="1.75007">
        <ele>43.8</ele>
        <time>2020-10-05 17:40:04</time>
      </trkpt>
      <trkpt lat="41.23877" lon="1.74964">
        <ele>45.2</ele>
        <time>2020-10-05 17:40:08</time>
      </trkpt>
      <trkpt lat="41.2387" lon="1.74932">
        <ele>46.2</ele>
        <time>2020-10-05 17:40:11</time>
      </trkpt>
      <trkpt lat="41.23863" lon="1.74899">
        <ele>46.8</ele>
        <time>2020-10-05 17:40:14</time>
      </trkpt>
      <trkpt lat="41.23854" lon="1.74867">
        <ele>47.2</ele>
        <time>2020-10-05 17:40:17</time>
      </trkpt>
      <trkpt lat="41.23838" lon="1.74812">
        <ele>47.4</ele>
        <time>2020-10-05 17:40:22</time>
      </trkpt>
      <trkpt lat="41.23813" lon="1.74742">
        <ele>47.2</ele>
        <time>2020-10-05 17:40:28</time>
      </trkpt>
      <trkpt lat="41.23808" lon="1.7473">
        <ele>46.8</ele>
        <time>2020-10-05 17:40:29</time>
      </trkpt>
      <trkpt lat="41.23799" lon="1.74706">
        <ele>46.2</ele>
        <time>2020-10-05 17:40:31</time>
      </trkpt>
      <trkpt lat="41.23784" lon="1.74668">
        <ele>45</ele>
        <time>2020-10-05 17:40:34</time>
      </trkpt>
      <trkpt lat="41.23768" lon="1.74629">
        <ele>44.2</ele>
        <time>2020-10-05 17:40:37</time>
      </trkpt>
      <trkpt lat="41.23758" lon="1.74603">
        <ele>43.8</ele>
        <time>2020-10-05 17:40:39</time>
      </trkpt>
      <trkpt lat="41.23738" lon="1.7455">
        <ele>42.4</ele>
        <time>2020-10-05 17:40:43</time>
      </trkpt>
      <trkpt lat="41.2372" lon="1.74497">
        <ele>41.2</ele>
        <time>2020-10-05 17:40:47</time>
      </trkpt>
      <trkpt lat="41.23696" lon="1.74419">
        <ele>40.6</ele>
        <time>2020-10-05 17:40:53</time>
      </trkpt>
      <trkpt lat="41.23689" lon="1.74394">
        <ele>40.6</ele>
        <time>2020-10-05 17:40:55</time>
      </trkpt>
      <trkpt lat="41.23672" lon="1.74323">
        <ele>40.6</ele>
        <time>2020-10-05 17:41:01</time>
      </trkpt>
      <trkpt lat="41.2367" lon="1.74312">
        <ele>40.6</ele>
        <time>2020-10-05 17:41:02</time>
      </trkpt>
      <trkpt lat="41.23656" lon="1.74236">
        <ele>41</ele>
        <time>2020-10-05 17:41:09</time>
      </trkpt>
      <trkpt lat="41.23655" lon="1.74226">
        <ele>41</ele>
        <time>2020-10-05 17:41:10</time>
      </trkpt>
      <trkpt lat="41.23645" lon="1.74145">
        <ele>42</ele>
        <time>2020-10-05 17:41:18</time>
      </trkpt>
      <trkpt lat="41.23644" lon="1.74136">
        <ele>42.6</ele>
        <time>2020-10-05 17:41:19</time>
      </trkpt>
      <trkpt lat="41.23643" lon="1.74126">
        <ele>42.8</ele>
        <time>2020-10-05 17:41:20</time>
      </trkpt>
      <trkpt lat="41.23639" lon="1.74077">
        <ele>43.6</ele>
        <time>2020-10-05 17:41:25</time>
      </trkpt>
      <trkpt lat="41.23637" lon="1.74029">
        <ele>44.4</ele>
        <time>2020-10-05 17:41:30</time>
      </trkpt>
      <trkpt lat="41.23636" lon="1.73988">
        <ele>44.8</ele>
        <time>2020-10-05 17:41:34</time>
      </trkpt>
      <trkpt lat="41.23636" lon="1.73956">
        <ele>44.8</ele>
        <time>2020-10-05 17:41:37</time>
      </trkpt>
      <trkpt lat="41.23637" lon="1.73876">
        <ele>44.6</ele>
        <time>2020-10-05 17:41:44</time>
      </trkpt>
      <trkpt lat="41.23639" lon="1.7384">
        <ele>44</ele>
        <time>2020-10-05 17:41:47</time>
      </trkpt>
      <trkpt lat="41.2364" lon="1.73816">
        <ele>43.6</ele>
        <time>2020-10-05 17:41:49</time>
      </trkpt>
      <trkpt lat="41.23644" lon="1.73743">
        <ele>43</ele>
        <time>2020-10-05 17:41:55</time>
      </trkpt>
      <trkpt lat="41.23645" lon="1.73731">
        <ele>42.8</ele>
        <time>2020-10-05 17:41:56</time>
      </trkpt>
      <trkpt lat="41.23648" lon="1.73692">
        <ele>42.6</ele>
        <time>2020-10-05 17:41:59</time>
      </trkpt>
      <trkpt lat="41.23653" lon="1.73627">
        <ele>41.8</ele>
        <time>2020-10-05 17:42:04</time>
      </trkpt>
      <trkpt lat="41.23654" lon="1.73613">
        <ele>41.4</ele>
        <time>2020-10-05 17:42:05</time>
      </trkpt>
      <trkpt lat="41.23657" lon="1.73586">
        <ele>40.2</ele>
        <time>2020-10-05 17:42:07</time>
      </trkpt>
      <trkpt lat="41.2366" lon="1.73545">
        <ele>39</ele>
        <time>2020-10-05 17:42:10</time>
      </trkpt>
      <trkpt lat="41.23662" lon="1.73518">
        <ele>38.6</ele>
        <time>2020-10-05 17:42:12</time>
      </trkpt>
      <trkpt lat="41.23664" lon="1.7349">
        <ele>38.4</ele>
        <time>2020-10-05 17:42:14</time>
      </trkpt>
      <trkpt lat="41.23667" lon="1.73462">
        <ele>37.8</ele>
        <time>2020-10-05 17:42:16</time>
      </trkpt>
      <trkpt lat="41.23673" lon="1.73392">
        <ele>36.6</ele>
        <time>2020-10-05 17:42:21</time>
      </trkpt>
      <trkpt lat="41.23676" lon="1.73351">
        <ele>35.6</ele>
        <time>2020-10-05 17:42:24</time>
      </trkpt>
      <trkpt lat="41.23678" lon="1.73323">
        <ele>34.2</ele>
        <time>2020-10-05 17:42:26</time>
      </trkpt>
      <trkpt lat="41.2368" lon="1.73281">
        <ele>33</ele>
        <time>2020-10-05 17:42:29</time>
      </trkpt>
      <trkpt lat="41.23681" lon="1.73254">
        <ele>32.6</ele>
        <time>2020-10-05 17:42:31</time>
      </trkpt>
      <trkpt lat="41.23685" lon="1.73177">
        <ele>32</ele>
        <time>2020-10-05 17:42:37</time>
      </trkpt>
      <trkpt lat="41.23685" lon="1.73165">
        <ele>32</ele>
        <time>2020-10-05 17:42:38</time>
      </trkpt>
      <trkpt lat="41.23686" lon="1.73083">
        <ele>32.6</ele>
        <time>2020-10-05 17:42:45</time>
      </trkpt>
      <trkpt lat="41.23686" lon="1.73005">
        <ele>33.8</ele>
        <time>2020-10-05 17:42:52</time>
      </trkpt>
      <trkpt lat="41.23686" lon="1.72983">
        <ele>33.8</ele>
        <time>2020-10-05 17:42:54</time>
      </trkpt>
      <trkpt lat="41.23685" lon="1.72949">
        <ele>34</ele>
        <time>2020-10-05 17:42:57</time>
      </trkpt>
      <trkpt lat="41.23682" lon="1.72871">
        <ele>34.8</ele>
        <time>2020-10-05 17:43:04</time>
      </trkpt>
      <trkpt lat="41.23682" lon="1.7286">
        <ele>34.8</ele>
        <time>2020-10-05 17:43:05</time>
      </trkpt>
      <trkpt lat="41.2368" lon="1.72816">
        <ele>35</ele>
        <time>2020-10-05 17:43:09</time>
      </trkpt>
      <trkpt lat="41.23676" lon="1.72738">
        <ele>35.8</ele>
        <time>2020-10-05 17:43:17</time>
      </trkpt>
      <trkpt lat="41.23676" lon="1.72728">
        <ele>36</ele>
        <time>2020-10-05 17:43:18</time>
      </trkpt>
      <trkpt lat="41.23674" lon="1.72693">
        <ele>37</ele>
        <time>2020-10-05 17:43:22</time>
      </trkpt>
      <trkpt lat="41.23672" lon="1.72658">
        <ele>38.4</ele>
        <time>2020-10-05 17:43:26</time>
      </trkpt>
      <trkpt lat="41.23669" lon="1.72615">
        <ele>39.6</ele>
        <time>2020-10-05 17:43:31</time>
      </trkpt>
      <trkpt lat="41.23667" lon="1.72579">
        <ele>40</ele>
        <time>2020-10-05 17:43:35</time>
      </trkpt>
      <trkpt lat="41.23663" lon="1.72507">
        <ele>40.4</ele>
        <time>2020-10-05 17:43:43</time>
      </trkpt>
      <trkpt lat="41.23662" lon="1.72498">
        <ele>40.6</ele>
        <time>2020-10-05 17:43:44</time>
      </trkpt>
      <trkpt lat="41.23661" lon="1.72489">
        <ele>40.6</ele>
        <time>2020-10-05 17:43:45</time>
      </trkpt>
      <trkpt lat="41.23656" lon="1.72415">
        <ele>41.2</ele>
        <time>2020-10-05 17:43:53</time>
      </trkpt>
      <trkpt lat="41.23652" lon="1.72368">
        <ele>41.6</ele>
        <time>2020-10-05 17:43:58</time>
      </trkpt>
      <trkpt lat="41.23651" lon="1.72349">
        <ele>41.6</ele>
        <time>2020-10-05 17:44:00</time>
      </trkpt>
      <trkpt lat="41.23645" lon="1.72272">
        <ele>42.2</ele>
        <time>2020-10-05 17:44:08</time>
      </trkpt>
      <trkpt lat="41.23641" lon="1.72233">
        <ele>42.8</ele>
        <time>2020-10-05 17:44:12</time>
      </trkpt>
      <trkpt lat="41.23634" lon="1.72166">
        <ele>42.8</ele>
        <time>2020-10-05 17:44:19</time>
      </trkpt>
      <trkpt lat="41.23625" lon="1.7209">
        <ele>42.8</ele>
        <time>2020-10-05 17:44:27</time>
      </trkpt>
      <trkpt lat="41.23622" lon="1.72062">
        <ele>42.8</ele>
        <time>2020-10-05 17:44:30</time>
      </trkpt>
      <trkpt lat="41.23611" lon="1.71986">
        <ele>43.4</ele>
        <time>2020-10-05 17:44:38</time>
      </trkpt>
      <trkpt lat="41.23606" lon="1.71958">
        <ele>43.4</ele>
        <time>2020-10-05 17:44:41</time>
      </trkpt>
      <trkpt lat="41.23598" lon="1.71911">
        <ele>43.8</ele>
        <time>2020-10-05 17:44:46</time>
      </trkpt>
      <trkpt lat="41.23586" lon="1.71854">
        <ele>44</ele>
        <time>2020-10-05 17:44:52</time>
      </trkpt>
      <trkpt lat="41.23569" lon="1.71779">
        <ele>44.4</ele>
        <time>2020-10-05 17:45:00</time>
      </trkpt>
      <trkpt lat="41.23562" lon="1.7175">
        <ele>44.6</ele>
        <time>2020-10-05 17:45:03</time>
      </trkpt>
      <trkpt lat="41.23554" lon="1.71722">
        <ele>44.8</ele>
        <time>2020-10-05 17:45:06</time>
      </trkpt>
      <trkpt lat="41.23532" lon="1.71648">
        <ele>45.2</ele>
        <time>2020-10-05 17:45:14</time>
      </trkpt>
      <trkpt lat="41.23508" lon="1.71575">
        <ele>45.4</ele>
        <time>2020-10-05 17:45:22</time>
      </trkpt>
      <trkpt lat="41.23491" lon="1.7153">
        <ele>45.6</ele>
        <time>2020-10-05 17:45:27</time>
      </trkpt>
      <trkpt lat="41.23463" lon="1.71461">
        <ele>45.6</ele>
        <time>2020-10-05 17:45:35</time>
      </trkpt>
      <trkpt lat="41.23456" lon="1.71444">
        <ele>45.6</ele>
        <time>2020-10-05 17:45:37</time>
      </trkpt>
      <trkpt lat="41.23425" lon="1.71378">
        <ele>45.6</ele>
        <time>2020-10-05 17:45:45</time>
      </trkpt>
      <trkpt lat="41.23408" lon="1.71346">
        <ele>45.8</ele>
        <time>2020-10-05 17:45:49</time>
      </trkpt>
      <trkpt lat="41.23374" lon="1.71283">
        <ele>46.2</ele>
        <time>2020-10-05 17:45:57</time>
      </trkpt>
      <trkpt lat="41.23355" lon="1.71252">
        <ele>46.6</ele>
        <time>2020-10-05 17:46:01</time>
      </trkpt>
      <trkpt lat="41.23318" lon="1.71192">
        <ele>46.4</ele>
        <time>2020-10-05 17:46:09</time>
      </trkpt>
      <trkpt lat="41.23308" lon="1.71177">
        <ele>46.4</ele>
        <time>2020-10-05 17:46:11</time>
      </trkpt>
      <trkpt lat="41.23267" lon="1.71117">
        <ele>46.2</ele>
        <time>2020-10-05 17:46:19</time>
      </trkpt>
      <trkpt lat="41.23256" lon="1.71102">
        <ele>46</ele>
        <time>2020-10-05 17:46:21</time>
      </trkpt>
      <trkpt lat="41.23216" lon="1.71049">
        <ele>45.6</ele>
        <time>2020-10-05 17:46:28</time>
      </trkpt>
      <trkpt lat="41.23193" lon="1.71019">
        <ele>45</ele>
        <time>2020-10-05 17:46:32</time>
      </trkpt>
      <trkpt lat="41.23187" lon="1.71011">
        <ele>45</ele>
        <time>2020-10-05 17:46:33</time>
      </trkpt>
      <trkpt lat="41.23143" lon="1.70956">
        <ele>44.6</ele>
        <time>2020-10-05 17:46:40</time>
      </trkpt>
      <trkpt lat="41.23123" lon="1.70933">
        <ele>44.4</ele>
        <time>2020-10-05 17:46:43</time>
      </trkpt>
      <trkpt lat="41.23089" lon="1.70893">
        <ele>43.8</ele>
        <time>2020-10-05 17:46:48</time>
      </trkpt>
      <trkpt lat="41.23055" lon="1.70852">
        <ele>42.8</ele>
        <time>2020-10-05 17:46:53</time>
      </trkpt>
      <trkpt lat="41.23049" lon="1.70844">
        <ele>42.4</ele>
        <time>2020-10-05 17:46:54</time>
      </trkpt>
      <trkpt lat="41.23021" lon="1.70812">
        <ele>41.6</ele>
        <time>2020-10-05 17:46:58</time>
      </trkpt>
      <trkpt lat="41.2298" lon="1.70763">
        <ele>41</ele>
        <time>2020-10-05 17:47:04</time>
      </trkpt>
      <trkpt lat="41.22973" lon="1.70755">
        <ele>40.8</ele>
        <time>2020-10-05 17:47:05</time>
      </trkpt>
      <trkpt lat="41.22939" lon="1.70714">
        <ele>40.6</ele>
        <time>2020-10-05 17:47:10</time>
      </trkpt>
      <trkpt lat="41.22905" lon="1.7067">
        <ele>40.2</ele>
        <time>2020-10-05 17:47:15</time>
      </trkpt>
      <trkpt lat="41.22868" lon="1.70614">
        <ele>39.4</ele>
        <time>2020-10-05 17:47:21</time>
      </trkpt>
      <trkpt lat="41.22857" lon="1.70594">
        <ele>39.2</ele>
        <time>2020-10-05 17:47:23</time>
      </trkpt>
      <trkpt lat="41.22833" lon="1.70548">
        <ele>38.8</ele>
        <time>2020-10-05 17:47:28</time>
      </trkpt>
      <trkpt lat="41.22815" lon="1.70503">
        <ele>38.8</ele>
        <time>2020-10-05 17:47:34</time>
      </trkpt>
      <trkpt lat="41.22811" lon="1.70488">
        <ele>39.4</ele>
        <time>2020-10-05 17:47:36</time>
      </trkpt>
      <trkpt lat="41.22807" lon="1.70466">
        <ele>40.6</ele>
        <time>2020-10-05 17:47:39</time>
      </trkpt>
      <trkpt lat="41.22806" lon="1.70451">
        <ele>41.6</ele>
        <time>2020-10-05 17:47:41</time>
      </trkpt>
      <trkpt lat="41.22807" lon="1.70427">
        <ele>42.8</ele>
        <time>2020-10-05 17:47:44</time>
      </trkpt>
      <trkpt lat="41.22808" lon="1.70419">
        <ele>42.8</ele>
        <time>2020-10-05 17:47:45</time>
      </trkpt>
      <trkpt lat="41.22823" lon="1.70366">
        <ele>43.4</ele>
        <time>2020-10-05 17:47:52</time>
      </trkpt>
      <trkpt lat="41.22828" lon="1.70352">
        <ele>43.8</ele>
        <time>2020-10-05 17:47:54</time>
      </trkpt>
      <trkpt lat="41.22842" lon="1.70313">
        <ele>44.6</ele>
        <time>2020-10-05 17:48:00</time>
      </trkpt>
      <trkpt lat="41.22845" lon="1.70307">
        <ele>44.8</ele>
        <time>2020-10-05 17:48:01</time>
      </trkpt>
      <trkpt lat="41.22853" lon="1.70275">
        <ele>46</ele>
        <time>2020-10-05 17:48:06</time>
      </trkpt>
      <trkpt lat="41.22854" lon="1.70269">
        <ele>46.4</ele>
        <time>2020-10-05 17:48:07</time>
      </trkpt>
      <trkpt lat="41.22865" lon="1.70219">
        <ele>47.2</ele>
        <time>2020-10-05 17:48:15</time>
      </trkpt>
      <trkpt lat="41.22867" lon="1.70213">
        <ele>47.8</ele>
        <time>2020-10-05 17:48:16</time>
      </trkpt>
      <trkpt lat="41.2287" lon="1.70201">
        <ele>48.4</ele>
        <time>2020-10-05 17:48:18</time>
      </trkpt>
      <trkpt lat="41.22875" lon="1.70183">
        <ele>49.8</ele>
        <time>2020-10-05 17:48:21</time>
      </trkpt>
      <trkpt lat="41.22882" lon="1.70154">
        <ele>50.4</ele>
        <time>2020-10-05 17:48:26</time>
      </trkpt>
      <trkpt lat="41.22888" lon="1.70131">
        <ele>50.8</ele>
        <time>2020-10-05 17:48:30</time>
      </trkpt>
      <trkpt lat="41.22897" lon="1.70097">
        <ele>51.8</ele>
        <time>2020-10-05 17:48:36</time>
      </trkpt>
      <trkpt lat="41.22901" lon="1.70079">
        <ele>53.2</ele>
        <time>2020-10-05 17:48:39</time>
      </trkpt>
      <trkpt lat="41.22908" lon="1.7005">
        <ele>54.2</ele>
        <time>2020-10-05 17:48:44</time>
      </trkpt>
      <trkpt lat="41.22912" lon="1.70033">
        <ele>55</ele>
        <time>2020-10-05 17:48:47</time>
      </trkpt>
      <trkpt lat="41.22914" lon="1.70027">
        <ele>55.4</ele>
        <time>2020-10-05 17:48:48</time>
      </trkpt>
      <trkpt lat="41.22916" lon="1.70015">
        <ele>56.4</ele>
        <time>2020-10-05 17:48:50</time>
      </trkpt>
      <trkpt lat="41.22922" lon="1.69985">
        <ele>57.6</ele>
        <time>2020-10-05 17:48:55</time>
      </trkpt>
      <trkpt lat="41.22924" lon="1.69972">
        <ele>58</ele>
        <time>2020-10-05 17:48:57</time>
      </trkpt>
      <trkpt lat="41.22928" lon="1.69948">
        <ele>58.6</ele>
        <time>2020-10-05 17:49:01</time>
      </trkpt>
      <trkpt lat="41.22934" lon="1.69918">
        <ele>58.8</ele>
        <time>2020-10-05 17:49:06</time>
      </trkpt>
      <trkpt lat="41.22938" lon="1.69894">
        <ele>59.8</ele>
        <time>2020-10-05 17:49:10</time>
      </trkpt>
      <trkpt lat="41.22943" lon="1.69871">
        <ele>60.8</ele>
        <time>2020-10-05 17:49:14</time>
      </trkpt>
      <trkpt lat="41.22946" lon="1.69859">
        <ele>61.2</ele>
        <time>2020-10-05 17:49:16</time>
      </trkpt>
      <trkpt lat="41.2295" lon="1.69834">
        <ele>62</ele>
        <time>2020-10-05 17:49:20</time>
      </trkpt>
      <trkpt lat="41.22955" lon="1.69808">
        <ele>62.8</ele>
        <time>2020-10-05 17:49:24</time>
      </trkpt>
      <trkpt lat="41.22959" lon="1.69789">
        <ele>63.2</ele>
        <time>2020-10-05 17:49:27</time>
      </trkpt>
      <trkpt lat="41.22968" lon="1.69736">
        <ele>63.8</ele>
        <time>2020-10-05 17:49:35</time>
      </trkpt>
      <trkpt lat="41.22974" lon="1.69705">
        <ele>64.2</ele>
        <time>2020-10-05 17:49:40</time>
      </trkpt>
      <trkpt lat="41.2298" lon="1.69675">
        <ele>64.6</ele>
        <time>2020-10-05 17:49:45</time>
      </trkpt>
      <trkpt lat="41.22984" lon="1.69651">
        <ele>65.4</ele>
        <time>2020-10-05 17:49:49</time>
      </trkpt>
      <trkpt lat="41.22989" lon="1.69627">
        <ele>66.6</ele>
        <time>2020-10-05 17:49:53</time>
      </trkpt>
      <trkpt lat="41.22992" lon="1.69609">
        <ele>67.4</ele>
        <time>2020-10-05 17:49:56</time>
      </trkpt>
      <trkpt lat="41.22994" lon="1.69597">
        <ele>67.8</ele>
        <time>2020-10-05 17:49:58</time>
      </trkpt>
      <trkpt lat="41.23002" lon="1.69556">
        <ele>68.8</ele>
        <time>2020-10-05 17:50:05</time>
      </trkpt>
      <trkpt lat="41.23004" lon="1.69545">
        <ele>69</ele>
        <time>2020-10-05 17:50:07</time>
      </trkpt>
      <trkpt lat="41.23008" lon="1.69522">
        <ele>70</ele>
        <time>2020-10-05 17:50:11</time>
      </trkpt>
      <trkpt lat="41.23011" lon="1.69505">
        <ele>70.4</ele>
        <time>2020-10-05 17:50:14</time>
      </trkpt>
      <trkpt lat="41.23013" lon="1.69493">
        <ele>71.2</ele>
        <time>2020-10-05 17:50:16</time>
      </trkpt>
      <trkpt lat="41.23018" lon="1.6947">
        <ele>72.2</ele>
        <time>2020-10-05 17:50:20</time>
      </trkpt>
      <trkpt lat="41.23025" lon="1.6943">
        <ele>73.2</ele>
        <time>2020-10-05 17:50:27</time>
      </trkpt>
      <trkpt lat="41.23026" lon="1.69424">
        <ele>73.4</ele>
        <time>2020-10-05 17:50:28</time>
      </trkpt>
      <trkpt lat="41.2303" lon="1.69407">
        <ele>74.2</ele>
        <time>2020-10-05 17:50:31</time>
      </trkpt>
      <trkpt lat="41.23034" lon="1.6939">
        <ele>75.4</ele>
        <time>2020-10-05 17:50:34</time>
      </trkpt>
      <trkpt lat="41.23039" lon="1.69373">
        <ele>76</ele>
        <time>2020-10-05 17:50:37</time>
      </trkpt>
      <trkpt lat="41.23048" lon="1.69353">
        <ele>76.4</ele>
        <time>2020-10-05 17:50:41</time>
      </trkpt>
      <trkpt lat="41.23051" lon="1.69349">
        <ele>76.4</ele>
        <time>2020-10-05 17:50:42</time>
      </trkpt>
      <trkpt lat="41.23056" lon="1.6934">
        <ele>76.6</ele>
        <time>2020-10-05 17:50:44</time>
      </trkpt>
      <trkpt lat="41.23062" lon="1.69331">
        <ele>77.2</ele>
        <time>2020-10-05 17:50:46</time>
      </trkpt>
      <trkpt lat="41.23065" lon="1.69327">
        <ele>77.6</ele>
        <time>2020-10-05 17:50:47</time>
      </trkpt>
      <trkpt lat="41.23079" lon="1.69305">
        <ele>78.8</ele>
        <time>2020-10-05 17:50:52</time>
      </trkpt>
      <trkpt lat="41.23088" lon="1.69292">
        <ele>80.2</ele>
        <time>2020-10-05 17:50:55</time>
      </trkpt>
      <trkpt lat="41.23102" lon="1.69271">
        <ele>81.4</ele>
        <time>2020-10-05 17:51:00</time>
      </trkpt>
      <trkpt lat="41.23116" lon="1.69249">
        <ele>82.6</ele>
        <time>2020-10-05 17:51:05</time>
      </trkpt>
      <trkpt lat="41.23127" lon="1.69231">
        <ele>83.8</ele>
        <time>2020-10-05 17:51:09</time>
      </trkpt>
      <trkpt lat="41.23129" lon="1.69226">
        <ele>84</ele>
        <time>2020-10-05 17:51:10</time>
      </trkpt>
      <trkpt lat="41.23133" lon="1.69215">
        <ele>85</ele>
        <time>2020-10-05 17:51:12</time>
      </trkpt>
      <trkpt lat="41.23138" lon="1.69192">
        <ele>85.8</ele>
        <time>2020-10-05 17:51:16</time>
      </trkpt>
      <trkpt lat="41.23141" lon="1.6918">
        <ele>86</ele>
        <time>2020-10-05 17:51:18</time>
      </trkpt>
      <trkpt lat="41.23146" lon="1.69152">
        <ele>87.2</ele>
        <time>2020-10-05 17:51:23</time>
      </trkpt>
      <trkpt lat="41.23148" lon="1.6914">
        <ele>87.6</ele>
        <time>2020-10-05 17:51:25</time>
      </trkpt>
      <trkpt lat="41.23156" lon="1.69101">
        <ele>88.4</ele>
        <time>2020-10-05 17:51:32</time>
      </trkpt>
      <trkpt lat="41.23158" lon="1.69095">
        <ele>88.4</ele>
        <time>2020-10-05 17:51:33</time>
      </trkpt>
      <trkpt lat="41.23163" lon="1.69067">
        <ele>89.4</ele>
        <time>2020-10-05 17:51:38</time>
      </trkpt>
      <trkpt lat="41.23166" lon="1.69042">
        <ele>90.4</ele>
        <time>2020-10-05 17:51:42</time>
      </trkpt>
      <trkpt lat="41.23166" lon="1.69036">
        <ele>90.4</ele>
        <time>2020-10-05 17:51:43</time>
      </trkpt>
      <trkpt lat="41.23166" lon="1.69009">
        <ele>91.6</ele>
        <time>2020-10-05 17:51:47</time>
      </trkpt>
      <trkpt lat="41.23165" lon="1.68996">
        <ele>91.8</ele>
        <time>2020-10-05 17:51:49</time>
      </trkpt>
      <trkpt lat="41.23163" lon="1.68924">
        <ele>92.2</ele>
        <time>2020-10-05 17:51:59</time>
      </trkpt>
      <trkpt lat="41.23162" lon="1.68872">
        <ele>92.8</ele>
        <time>2020-10-05 17:52:06</time>
      </trkpt>
      <trkpt lat="41.23161" lon="1.6885">
        <ele>93.8</ele>
        <time>2020-10-05 17:52:09</time>
      </trkpt>
      <trkpt lat="41.23161" lon="1.68843">
        <ele>93.8</ele>
        <time>2020-10-05 17:52:10</time>
      </trkpt>
      <trkpt lat="41.23157" lon="1.68786">
        <ele>94.6</ele>
        <time>2020-10-05 17:52:18</time>
      </trkpt>
      <trkpt lat="41.23147" lon="1.6877">
        <ele>94.8</ele>
        <time>2020-10-05 17:52:21</time>
      </trkpt>
      <trkpt lat="41.23142" lon="1.68767">
        <ele>95</ele>
        <time>2020-10-05 17:52:22</time>
      </trkpt>
      <trkpt lat="41.23132" lon="1.68766">
        <ele>95</ele>
        <time>2020-10-05 17:52:24</time>
      </trkpt>
      <trkpt lat="41.23121" lon="1.68769">
        <ele>95.2</ele>
        <time>2020-10-05 17:52:26</time>
      </trkpt>
      <trkpt lat="41.23104" lon="1.68775">
        <ele>96</ele>
        <time>2020-10-05 17:52:29</time>
      </trkpt>
      <trkpt lat="41.23078" lon="1.6878">
        <ele>96.2</ele>
        <time>2020-10-05 17:52:33</time>
      </trkpt>
      <trkpt lat="41.23072" lon="1.68779">
        <ele>96.4</ele>
        <time>2020-10-05 17:52:34</time>
      </trkpt>
      <trkpt lat="41.23047" lon="1.68766">
        <ele>96.6</ele>
        <time>2020-10-05 17:52:38</time>
      </trkpt>
      <trkpt lat="41.23041" lon="1.68761">
        <ele>96.6</ele>
        <time>2020-10-05 17:52:39</time>
      </trkpt>
      <trkpt lat="41.22991" lon="1.68721">
        <ele>96.6</ele>
        <time>2020-10-05 17:52:47</time>
      </trkpt>
      <trkpt lat="41.22943" lon="1.68685">
        <ele>96.6</ele>
        <time>2020-10-05 17:52:54</time>
      </trkpt>
      <trkpt lat="41.22937" lon="1.68678">
        <ele>96.6</ele>
        <time>2020-10-05 17:52:55</time>
      </trkpt>
      <trkpt lat="41.22894" lon="1.68627">
        <ele>95.8</ele>
        <time>2020-10-05 17:53:01</time>
      </trkpt>
      <trkpt lat="41.22863" lon="1.68589">
        <ele>93.4</ele>
        <time>2020-10-05 17:53:05</time>
      </trkpt>
      <trkpt lat="41.2285" lon="1.68567">
        <ele>92.2</ele>
        <time>2020-10-05 17:53:07</time>
      </trkpt>
      <trkpt lat="41.22844" lon="1.68539">
        <ele>91</ele>
        <time>2020-10-05 17:53:09</time>
      </trkpt>
      <trkpt lat="41.22843" lon="1.68525">
        <ele>90.6</ele>
        <time>2020-10-05 17:53:10</time>
      </trkpt>
      <trkpt lat="41.22843" lon="1.6851">
        <ele>90</ele>
        <time>2020-10-05 17:53:11</time>
      </trkpt>
      <trkpt lat="41.2284" lon="1.68464">
        <ele>88.6</ele>
        <time>2020-10-05 17:53:14</time>
      </trkpt>
      <trkpt lat="41.22837" lon="1.68449">
        <ele>88.2</ele>
        <time>2020-10-05 17:53:15</time>
      </trkpt>
      <trkpt lat="41.22833" lon="1.68434">
        <ele>87.4</ele>
        <time>2020-10-05 17:53:16</time>
      </trkpt>
      <trkpt lat="41.22829" lon="1.68419">
        <ele>86.4</ele>
        <time>2020-10-05 17:53:17</time>
      </trkpt>
      <trkpt lat="41.22819" lon="1.6839">
        <ele>84.8</ele>
        <time>2020-10-05 17:53:19</time>
      </trkpt>
      <trkpt lat="41.22817" lon="1.68374">
        <ele>84.2</ele>
        <time>2020-10-05 17:53:20</time>
      </trkpt>
      <trkpt lat="41.22818" lon="1.68358">
        <ele>83.6</ele>
        <time>2020-10-05 17:53:21</time>
      </trkpt>
      <trkpt lat="41.22824" lon="1.68327">
        <ele>82.4</ele>
        <time>2020-10-05 17:53:23</time>
      </trkpt>
      <trkpt lat="41.22828" lon="1.68312">
        <ele>81.6</ele>
        <time>2020-10-05 17:53:24</time>
      </trkpt>
      <trkpt lat="41.22831" lon="1.68296">
        <ele>81</ele>
        <time>2020-10-05 17:53:25</time>
      </trkpt>
      <trkpt lat="41.22834" lon="1.6828">
        <ele>80</ele>
        <time>2020-10-05 17:53:26</time>
      </trkpt>
      <trkpt lat="41.22835" lon="1.68264">
        <ele>79.4</ele>
        <time>2020-10-05 17:53:27</time>
      </trkpt>
      <trkpt lat="41.22837" lon="1.68248">
        <ele>79</ele>
        <time>2020-10-05 17:53:28</time>
      </trkpt>
      <trkpt lat="41.2284" lon="1.68215">
        <ele>77.8</ele>
        <time>2020-10-05 17:53:30</time>
      </trkpt>
      <trkpt lat="41.22844" lon="1.68181">
        <ele>76.6</ele>
        <time>2020-10-05 17:53:32</time>
      </trkpt>
      <trkpt lat="41.22847" lon="1.68147">
        <ele>74.6</ele>
        <time>2020-10-05 17:53:34</time>
      </trkpt>
      <trkpt lat="41.22847" lon="1.68129">
        <ele>74</ele>
        <time>2020-10-05 17:53:35</time>
      </trkpt>
      <trkpt lat="41.22847" lon="1.68112">
        <ele>73.2</ele>
        <time>2020-10-05 17:53:36</time>
      </trkpt>
      <trkpt lat="41.22843" lon="1.68077">
        <ele>71.4</ele>
        <time>2020-10-05 17:53:38</time>
      </trkpt>
      <trkpt lat="41.22837" lon="1.68043">
        <ele>70</ele>
        <time>2020-10-05 17:53:40</time>
      </trkpt>
      <trkpt lat="41.2283" lon="1.68009">
        <ele>68.2</ele>
        <time>2020-10-05 17:53:42</time>
      </trkpt>
      <trkpt lat="41.22824" lon="1.67975">
        <ele>66.4</ele>
        <time>2020-10-05 17:53:44</time>
      </trkpt>
      <trkpt lat="41.22818" lon="1.6794">
        <ele>64.6</ele>
        <time>2020-10-05 17:53:46</time>
      </trkpt>
      <trkpt lat="41.22812" lon="1.67906">
        <ele>63.2</ele>
        <time>2020-10-05 17:53:48</time>
      </trkpt>
      <trkpt lat="41.22809" lon="1.6789">
        <ele>62.6</ele>
        <time>2020-10-05 17:53:49</time>
      </trkpt>
      <trkpt lat="41.22809" lon="1.67874">
        <ele>61.8</ele>
        <time>2020-10-05 17:53:50</time>
      </trkpt>
      <trkpt lat="41.22811" lon="1.6786">
        <ele>60.8</ele>
        <time>2020-10-05 17:53:51</time>
      </trkpt>
      <trkpt lat="41.22817" lon="1.67849">
        <ele>59.6</ele>
        <time>2020-10-05 17:53:52</time>
      </trkpt>
      <trkpt lat="41.22824" lon="1.67839">
        <ele>58.2</ele>
        <time>2020-10-05 17:53:53</time>
      </trkpt>
      <trkpt lat="41.22829" lon="1.67829">
        <ele>56.6</ele>
        <time>2020-10-05 17:53:54</time>
      </trkpt>
      <trkpt lat="41.22831" lon="1.67818">
        <ele>55.8</ele>
        <time>2020-10-05 17:53:55</time>
      </trkpt>
      <trkpt lat="41.22831" lon="1.67807">
        <ele>55.4</ele>
        <time>2020-10-05 17:53:56</time>
      </trkpt>
      <trkpt lat="41.22831" lon="1.67789">
        <ele>54.8</ele>
        <time>2020-10-05 17:53:58</time>
      </trkpt>
      <trkpt lat="41.22838" lon="1.67775">
        <ele>54.6</ele>
        <time>2020-10-05 17:54:00</time>
      </trkpt>
      <trkpt lat="41.22843" lon="1.67769">
        <ele>54.2</ele>
        <time>2020-10-05 17:54:01</time>
      </trkpt>
      <trkpt lat="41.22848" lon="1.67762">
        <ele>54</ele>
        <time>2020-10-05 17:54:02</time>
      </trkpt>
      <trkpt lat="41.22869" lon="1.67733">
        <ele>53.6</ele>
        <time>2020-10-05 17:54:06</time>
      </trkpt>
      <trkpt lat="41.22875" lon="1.67728">
        <ele>53.6</ele>
        <time>2020-10-05 17:54:07</time>
      </trkpt>
      <trkpt lat="41.22888" lon="1.6772">
        <ele>53.8</ele>
        <time>2020-10-05 17:54:09</time>
      </trkpt>
      <trkpt lat="41.22901" lon="1.67702">
        <ele>54.4</ele>
        <time>2020-10-05 17:54:12</time>
      </trkpt>
      <trkpt lat="41.22901" lon="1.67675">
        <ele>54.6</ele>
        <time>2020-10-05 17:54:15</time>
      </trkpt>
      <trkpt lat="41.22899" lon="1.67655">
        <ele>54.4</ele>
        <time>2020-10-05 17:54:17</time>
      </trkpt>
      <trkpt lat="41.229" lon="1.67621">
        <ele>54.2</ele>
        <time>2020-10-05 17:54:20</time>
      </trkpt>
      <trkpt lat="41.22901" lon="1.67543">
        <ele>53.8</ele>
        <time>2020-10-05 17:54:26</time>
      </trkpt>
      <trkpt lat="41.22901" lon="1.67529">
        <ele>53.4</ele>
        <time>2020-10-05 17:54:27</time>
      </trkpt>
      <trkpt lat="41.22901" lon="1.67515">
        <ele>53</ele>
        <time>2020-10-05 17:54:28</time>
      </trkpt>
      <trkpt lat="41.22901" lon="1.67486">
        <ele>52</ele>
        <time>2020-10-05 17:54:30</time>
      </trkpt>
      <trkpt lat="41.22902" lon="1.67471">
        <ele>50.6</ele>
        <time>2020-10-05 17:54:31</time>
      </trkpt>
      <trkpt lat="41.22904" lon="1.67456">
        <ele>50</ele>
        <time>2020-10-05 17:54:32</time>
      </trkpt>
      <trkpt lat="41.22913" lon="1.67427">
        <ele>49.4</ele>
        <time>2020-10-05 17:54:34</time>
      </trkpt>
      <trkpt lat="41.22919" lon="1.67413">
        <ele>49</ele>
        <time>2020-10-05 17:54:35</time>
      </trkpt>
      <trkpt lat="41.22925" lon="1.67399">
        <ele>48</ele>
        <time>2020-10-05 17:54:36</time>
      </trkpt>
      <trkpt lat="41.22937" lon="1.67372">
        <ele>46.4</ele>
        <time>2020-10-05 17:54:38</time>
      </trkpt>
      <trkpt lat="41.2295" lon="1.67344">
        <ele>45.2</ele>
        <time>2020-10-05 17:54:40</time>
      </trkpt>
      <trkpt lat="41.22958" lon="1.67331">
        <ele>44.2</ele>
        <time>2020-10-05 17:54:41</time>
      </trkpt>
      <trkpt lat="41.22967" lon="1.67321">
        <ele>43.6</ele>
        <time>2020-10-05 17:54:42</time>
      </trkpt>
      <trkpt lat="41.22989" lon="1.67309">
        <ele>42</ele>
        <time>2020-10-05 17:54:44</time>
      </trkpt>
      <trkpt lat="41.23" lon="1.67303">
        <ele>40.6</ele>
        <time>2020-10-05 17:54:45</time>
      </trkpt>
      <trkpt lat="41.23011" lon="1.67296">
        <ele>39.4</ele>
        <time>2020-10-05 17:54:46</time>
      </trkpt>
      <trkpt lat="41.23021" lon="1.67287">
        <ele>38.4</ele>
        <time>2020-10-05 17:54:47</time>
      </trkpt>
      <trkpt lat="41.23034" lon="1.6726">
        <ele>37.4</ele>
        <time>2020-10-05 17:54:49</time>
      </trkpt>
      <trkpt lat="41.23039" lon="1.6723">
        <ele>36.8</ele>
        <time>2020-10-05 17:54:51</time>
      </trkpt>
      <trkpt lat="41.23043" lon="1.67201">
        <ele>36</ele>
        <time>2020-10-05 17:54:53</time>
      </trkpt>
      <trkpt lat="41.23052" lon="1.6713">
        <ele>34.8</ele>
        <time>2020-10-05 17:54:58</time>
      </trkpt>
      <trkpt lat="41.2306" lon="1.67075">
        <ele>34.6</ele>
        <time>2020-10-05 17:55:02</time>
      </trkpt>
      <trkpt lat="41.23064" lon="1.66995">
        <ele>34.2</ele>
        <time>2020-10-05 17:55:08</time>
      </trkpt>
      <trkpt lat="41.23066" lon="1.66942">
        <ele>34.2</ele>
        <time>2020-10-05 17:55:12</time>
      </trkpt>
      <trkpt lat="41.23069" lon="1.6693">
        <ele>34.2</ele>
        <time>2020-10-05 17:55:13</time>
      </trkpt>
      <trkpt lat="41.23086" lon="1.66898">
        <ele>34</ele>
        <time>2020-10-05 17:55:16</time>
      </trkpt>
      <trkpt lat="41.23094" lon="1.66891">
        <ele>33.6</ele>
        <time>2020-10-05 17:55:17</time>
      </trkpt>
      <trkpt lat="41.23111" lon="1.66881">
        <ele>32.8</ele>
        <time>2020-10-05 17:55:19</time>
      </trkpt>
      <trkpt lat="41.2312" lon="1.66878">
        <ele>32.4</ele>
        <time>2020-10-05 17:55:20</time>
      </trkpt>
      <trkpt lat="41.23146" lon="1.66871">
        <ele>31.8</ele>
        <time>2020-10-05 17:55:23</time>
      </trkpt>
      <trkpt lat="41.23155" lon="1.6687">
        <ele>31.6</ele>
        <time>2020-10-05 17:55:24</time>
      </trkpt>
      <trkpt lat="41.23178" lon="1.66872">
        <ele>31.6</ele>
        <time>2020-10-05 17:55:27</time>
      </trkpt>
      <trkpt lat="41.23194" lon="1.66873">
        <ele>31.6</ele>
        <time>2020-10-05 17:55:29</time>
      </trkpt>
      <trkpt lat="41.23223" lon="1.66865">
        <ele>31.8</ele>
        <time>2020-10-05 17:55:33</time>
      </trkpt>
      <trkpt lat="41.23231" lon="1.66862">
        <ele>32</ele>
        <time>2020-10-05 17:55:34</time>
      </trkpt>
      <trkpt lat="41.23246" lon="1.66856">
        <ele>33.4</ele>
        <time>2020-10-05 17:55:36</time>
      </trkpt>
      <trkpt lat="41.23269" lon="1.66845">
        <ele>34.6</ele>
        <time>2020-10-05 17:55:39</time>
      </trkpt>
      <trkpt lat="41.23275" lon="1.66839">
        <ele>34.8</ele>
        <time>2020-10-05 17:55:40</time>
      </trkpt>
      <trkpt lat="41.23283" lon="1.66812">
        <ele>35</ele>
        <time>2020-10-05 17:55:43</time>
      </trkpt>
      <trkpt lat="41.23281" lon="1.66792">
        <ele>35</ele>
        <time>2020-10-05 17:55:45</time>
      </trkpt>
      <trkpt lat="41.23279" lon="1.66772">
        <ele>35</ele>
        <time>2020-10-05 17:55:47</time>
      </trkpt>
      <trkpt lat="41.23273" lon="1.66703">
        <ele>35.4</ele>
        <time>2020-10-05 17:55:54</time>
      </trkpt>
      <trkpt lat="41.23273" lon="1.66664">
        <ele>35.6</ele>
        <time>2020-10-05 17:55:58</time>
      </trkpt>
      <trkpt lat="41.23275" lon="1.66646">
        <ele>35.6</ele>
        <time>2020-10-05 17:56:00</time>
      </trkpt>
      <trkpt lat="41.23288" lon="1.66594">
        <ele>36</ele>
        <time>2020-10-05 17:56:06</time>
      </trkpt>
      <trkpt lat="41.23293" lon="1.66576">
        <ele>36.4</ele>
        <time>2020-10-05 17:56:08</time>
      </trkpt>
      <trkpt lat="41.23308" lon="1.66519">
        <ele>37</ele>
        <time>2020-10-05 17:56:14</time>
      </trkpt>
      <trkpt lat="41.23322" lon="1.66494">
        <ele>37</ele>
        <time>2020-10-05 17:56:17</time>
      </trkpt>
      <trkpt lat="41.23345" lon="1.6648">
        <ele>36.8</ele>
        <time>2020-10-05 17:56:20</time>
      </trkpt>
      <trkpt lat="41.23362" lon="1.66476">
        <ele>36.4</ele>
        <time>2020-10-05 17:56:22</time>
      </trkpt>
      <trkpt lat="41.23387" lon="1.66467">
        <ele>35.6</ele>
        <time>2020-10-05 17:56:25</time>
      </trkpt>
      <trkpt lat="41.23395" lon="1.66464">
        <ele>35.4</ele>
        <time>2020-10-05 17:56:26</time>
      </trkpt>
      <trkpt lat="41.23452" lon="1.66439">
        <ele>34.8</ele>
        <time>2020-10-05 17:56:33</time>
      </trkpt>
      <trkpt lat="41.23492" lon="1.66416">
        <ele>34.2</ele>
        <time>2020-10-05 17:56:38</time>
      </trkpt>
      <trkpt lat="41.23516" lon="1.66404">
        <ele>34</ele>
        <time>2020-10-05 17:56:41</time>
      </trkpt>
      <trkpt lat="41.23564" lon="1.66382">
        <ele>33</ele>
        <time>2020-10-05 17:56:47</time>
      </trkpt>
      <trkpt lat="41.23581" lon="1.66378">
        <ele>32.8</ele>
        <time>2020-10-05 17:56:49</time>
      </trkpt>
      <trkpt lat="41.23624" lon="1.66375">
        <ele>32.4</ele>
        <time>2020-10-05 17:56:54</time>
      </trkpt>
      <trkpt lat="41.23684" lon="1.66371">
        <ele>32.2</ele>
        <time>2020-10-05 17:57:01</time>
      </trkpt>
      <trkpt lat="41.23715" lon="1.66362">
        <ele>32.2</ele>
        <time>2020-10-05 17:57:05</time>
      </trkpt>
      <trkpt lat="41.23722" lon="1.66362">
        <ele>32.2</ele>
        <time>2020-10-05 17:57:06</time>
      </trkpt>
      <trkpt lat="41.23747" lon="1.66374">
        <ele>32.2</ele>
        <time>2020-10-05 17:57:10</time>
      </trkpt>
      <trkpt lat="41.23794" lon="1.66402">
        <ele>34.6</ele>
        <time>2020-10-05 17:57:18</time>
      </trkpt>
      <trkpt lat="41.23812" lon="1.66411">
        <ele>35.6</ele>
        <time>2020-10-05 17:57:21</time>
      </trkpt>
      <trkpt lat="41.23818" lon="1.66414">
        <ele>35.6</ele>
        <time>2020-10-05 17:57:22</time>
      </trkpt>
      <trkpt lat="41.23852" lon="1.66431">
        <ele>36.6</ele>
        <time>2020-10-05 17:57:28</time>
      </trkpt>
      <trkpt lat="41.23863" lon="1.66435">
        <ele>37.2</ele>
        <time>2020-10-05 17:57:30</time>
      </trkpt>
      <trkpt lat="41.23886" lon="1.66439">
        <ele>37.8</ele>
        <time>2020-10-05 17:57:34</time>
      </trkpt>
      <trkpt lat="41.23898" lon="1.66439">
        <ele>38.2</ele>
        <time>2020-10-05 17:57:36</time>
      </trkpt>
      <trkpt lat="41.23914" lon="1.66437">
        <ele>38.8</ele>
        <time>2020-10-05 17:57:39</time>
      </trkpt>
      <trkpt lat="41.23925" lon="1.66436">
        <ele>39</ele>
        <time>2020-10-05 17:57:41</time>
      </trkpt>
      <trkpt lat="41.23974" lon="1.66435">
        <ele>39.6</ele>
        <time>2020-10-05 17:57:49</time>
      </trkpt>
      <trkpt lat="41.24007" lon="1.66422">
        <ele>39.6</ele>
        <time>2020-10-05 17:57:54</time>
      </trkpt>
      <trkpt lat="41.24057" lon="1.66388">
        <ele>39.4</ele>
        <time>2020-10-05 17:58:02</time>
      </trkpt>
      <trkpt lat="41.24063" lon="1.66383">
        <ele>39.4</ele>
        <time>2020-10-05 17:58:03</time>
      </trkpt>
      <trkpt lat="41.24067" lon="1.66378">
        <ele>39.4</ele>
        <time>2020-10-05 17:58:04</time>
      </trkpt>
      <trkpt lat="41.24079" lon="1.6636">
        <ele>39.4</ele>
        <time>2020-10-05 17:58:07</time>
      </trkpt>
      <trkpt lat="41.24096" lon="1.66326">
        <ele>40</ele>
        <time>2020-10-05 17:58:13</time>
      </trkpt>
      <trkpt lat="41.24098" lon="1.66321">
        <ele>40.4</ele>
        <time>2020-10-05 17:58:14</time>
      </trkpt>
      <trkpt lat="41.241" lon="1.66316">
        <ele>41</ele>
        <time>2020-10-05 17:58:15</time>
      </trkpt>
      <trkpt lat="41.24102" lon="1.66311">
        <ele>41.6</ele>
        <time>2020-10-05 17:58:16</time>
      </trkpt>
      <trkpt lat="41.24104" lon="1.66306">
        <ele>42.2</ele>
        <time>2020-10-05 17:58:17</time>
      </trkpt>
      <trkpt lat="41.24107" lon="1.66296">
        <ele>43.4</ele>
        <time>2020-10-05 17:58:19</time>
      </trkpt>
      <trkpt lat="41.24109" lon="1.66286">
        <ele>44.4</ele>
        <time>2020-10-05 17:58:21</time>
      </trkpt>
      <trkpt lat="41.2411" lon="1.66281">
        <ele>44.8</ele>
        <time>2020-10-05 17:58:22</time>
      </trkpt>
      <trkpt lat="41.24111" lon="1.66261">
        <ele>46</ele>
        <time>2020-10-05 17:58:26</time>
      </trkpt>
      <trkpt lat="41.24111" lon="1.66245">
        <ele>46.8</ele>
        <time>2020-10-05 17:58:29</time>
      </trkpt>
      <trkpt lat="41.24111" lon="1.66239">
        <ele>47.2</ele>
        <time>2020-10-05 17:58:30</time>
      </trkpt>
      <trkpt lat="41.2411" lon="1.66201">
        <ele>48.2</ele>
        <time>2020-10-05 17:58:37</time>
      </trkpt>
      <trkpt lat="41.24108" lon="1.66173">
        <ele>49.2</ele>
        <time>2020-10-05 17:58:42</time>
      </trkpt>
      <trkpt lat="41.24109" lon="1.66145">
        <ele>50.4</ele>
        <time>2020-10-05 17:58:47</time>
      </trkpt>
      <trkpt lat="41.24113" lon="1.66125">
        <ele>51.2</ele>
        <time>2020-10-05 17:58:51</time>
      </trkpt>
      <trkpt lat="41.24116" lon="1.66115">
        <ele>51.6</ele>
        <time>2020-10-05 17:58:53</time>
      </trkpt>
      <trkpt lat="41.24118" lon="1.6611">
        <ele>51.8</ele>
        <time>2020-10-05 17:58:54</time>
      </trkpt>
      <trkpt lat="41.24122" lon="1.66095">
        <ele>52.6</ele>
        <time>2020-10-05 17:58:57</time>
      </trkpt>
      <trkpt lat="41.24126" lon="1.66079">
        <ele>53.6</ele>
        <time>2020-10-05 17:59:00</time>
      </trkpt>
      <trkpt lat="41.24133" lon="1.66059">
        <ele>54.6</ele>
        <time>2020-10-05 17:59:04</time>
      </trkpt>
      <trkpt lat="41.24134" lon="1.66054">
        <ele>54.8</ele>
        <time>2020-10-05 17:59:05</time>
      </trkpt>
      <trkpt lat="41.24137" lon="1.66049">
        <ele>55</ele>
        <time>2020-10-05 17:59:06</time>
      </trkpt>
      <trkpt lat="41.24149" lon="1.66032">
        <ele>55.6</ele>
        <time>2020-10-05 17:59:10</time>
      </trkpt>
      <trkpt lat="41.24156" lon="1.66025">
        <ele>56</ele>
        <time>2020-10-05 17:59:12</time>
      </trkpt>
      <trkpt lat="41.24169" lon="1.66018">
        <ele>56.4</ele>
        <time>2020-10-05 17:59:15</time>
      </trkpt>
      <trkpt lat="41.24173" lon="1.66016">
        <ele>56.6</ele>
        <time>2020-10-05 17:59:16</time>
      </trkpt>
      <trkpt lat="41.24193" lon="1.66016">
        <ele>57</ele>
        <time>2020-10-05 17:59:20</time>
      </trkpt>
      <trkpt lat="41.24199" lon="1.66017">
        <ele>57.2</ele>
        <time>2020-10-05 17:59:21</time>
      </trkpt>
      <trkpt lat="41.24204" lon="1.66018">
        <ele>57.2</ele>
        <time>2020-10-05 17:59:22</time>
      </trkpt>
      <trkpt lat="41.24229" lon="1.66028">
        <ele>57.2</ele>
        <time>2020-10-05 17:59:26</time>
      </trkpt>
      <trkpt lat="41.24235" lon="1.66032">
        <ele>57.2</ele>
        <time>2020-10-05 17:59:27</time>
      </trkpt>
      <trkpt lat="41.24254" lon="1.6605">
        <ele>57</ele>
        <time>2020-10-05 17:59:30</time>
      </trkpt>
      <trkpt lat="41.24279" lon="1.6608">
        <ele>55.8</ele>
        <time>2020-10-05 17:59:34</time>
      </trkpt>
      <trkpt lat="41.243" lon="1.66104">
        <ele>54.4</ele>
        <time>2020-10-05 17:59:37</time>
      </trkpt>
      <trkpt lat="41.24313" lon="1.66121">
        <ele>53.4</ele>
        <time>2020-10-05 17:59:39</time>
      </trkpt>
      <trkpt lat="41.24333" lon="1.66148">
        <ele>52</ele>
        <time>2020-10-05 17:59:42</time>
      </trkpt>
      <trkpt lat="41.2434" lon="1.66158">
        <ele>51.4</ele>
        <time>2020-10-05 17:59:43</time>
      </trkpt>
      <trkpt lat="41.24346" lon="1.66166">
        <ele>50.8</ele>
        <time>2020-10-05 17:59:44</time>
      </trkpt>
      <trkpt lat="41.24358" lon="1.66184">
        <ele>49.4</ele>
        <time>2020-10-05 17:59:46</time>
      </trkpt>
      <trkpt lat="41.24375" lon="1.66211">
        <ele>48</ele>
        <time>2020-10-05 17:59:49</time>
      </trkpt>
      <trkpt lat="41.24403" lon="1.66265">
        <ele>47.4</ele>
        <time>2020-10-05 17:59:55</time>
      </trkpt>
      <trkpt lat="41.24434" lon="1.66313">
        <ele>47.4</ele>
        <time>2020-10-05 18:00:01</time>
      </trkpt>
      <trkpt lat="41.24473" lon="1.66364">
        <ele>47.8</ele>
        <time>2020-10-05 18:00:08</time>
      </trkpt>
      <trkpt lat="41.24492" lon="1.66383">
        <ele>48.2</ele>
        <time>2020-10-05 18:00:11</time>
      </trkpt>
      <trkpt lat="41.24526" lon="1.66409">
        <ele>48.4</ele>
        <time>2020-10-05 18:00:16</time>
      </trkpt>
      <trkpt lat="41.24576" lon="1.66437">
        <ele>48.4</ele>
        <time>2020-10-05 18:00:23</time>
      </trkpt>
      <trkpt lat="41.24584" lon="1.66438">
        <ele>48.4</ele>
        <time>2020-10-05 18:00:24</time>
      </trkpt>
      <trkpt lat="41.246" lon="1.66438">
        <ele>48.4</ele>
        <time>2020-10-05 18:00:26</time>
      </trkpt>
      <trkpt lat="41.24617" lon="1.66434">
        <ele>48.2</ele>
        <time>2020-10-05 18:00:28</time>
      </trkpt>
      <trkpt lat="41.24646" lon="1.6642">
        <ele>48</ele>
        <time>2020-10-05 18:00:32</time>
      </trkpt>
      <trkpt lat="41.24653" lon="1.66414">
        <ele>48</ele>
        <time>2020-10-05 18:00:33</time>
      </trkpt>
      <trkpt lat="41.24671" lon="1.66395">
        <ele>48</ele>
        <time>2020-10-05 18:00:36</time>
      </trkpt>
      <trkpt lat="41.24677" lon="1.66389">
        <ele>48</ele>
        <time>2020-10-05 18:00:37</time>
      </trkpt>
      <trkpt lat="41.24692" lon="1.66371">
        <ele>48.6</ele>
        <time>2020-10-05 18:00:40</time>
      </trkpt>
      <trkpt lat="41.24704" lon="1.66354">
        <ele>49.4</ele>
        <time>2020-10-05 18:00:43</time>
      </trkpt>
      <trkpt lat="41.24707" lon="1.66348">
        <ele>49.8</ele>
        <time>2020-10-05 18:00:44</time>
      </trkpt>
      <trkpt lat="41.24709" lon="1.66333">
        <ele>50.8</ele>
        <time>2020-10-05 18:00:46</time>
      </trkpt>
      <trkpt lat="41.24709" lon="1.66319">
        <ele>52</ele>
        <time>2020-10-05 18:00:48</time>
      </trkpt>
      <trkpt lat="41.24706" lon="1.66306">
        <ele>53</ele>
        <time>2020-10-05 18:00:50</time>
      </trkpt>
      <trkpt lat="41.24704" lon="1.66299">
        <ele>53.4</ele>
        <time>2020-10-05 18:00:51</time>
      </trkpt>
      <trkpt lat="41.247" lon="1.66286">
        <ele>54</ele>
        <time>2020-10-05 18:00:53</time>
      </trkpt>
      <trkpt lat="41.24694" lon="1.6626">
        <ele>55</ele>
        <time>2020-10-05 18:00:57</time>
      </trkpt>
      <trkpt lat="41.24689" lon="1.66236">
        <ele>56.2</ele>
        <time>2020-10-05 18:01:01</time>
      </trkpt>
      <trkpt lat="41.24688" lon="1.6623">
        <ele>56.2</ele>
        <time>2020-10-05 18:01:02</time>
      </trkpt>
      <trkpt lat="41.24681" lon="1.66202">
        <ele>57.2</ele>
        <time>2020-10-05 18:01:07</time>
      </trkpt>
      <trkpt lat="41.24677" lon="1.66186">
        <ele>58.4</ele>
        <time>2020-10-05 18:01:10</time>
      </trkpt>
      <trkpt lat="41.24671" lon="1.6617">
        <ele>59.2</ele>
        <time>2020-10-05 18:01:13</time>
      </trkpt>
      <trkpt lat="41.24669" lon="1.66165">
        <ele>59.6</ele>
        <time>2020-10-05 18:01:14</time>
      </trkpt>
      <trkpt lat="41.24661" lon="1.66144">
        <ele>61</ele>
        <time>2020-10-05 18:01:18</time>
      </trkpt>
      <trkpt lat="41.24653" lon="1.66124">
        <ele>61.6</ele>
        <time>2020-10-05 18:01:22</time>
      </trkpt>
      <trkpt lat="41.24647" lon="1.66107">
        <ele>62</ele>
        <time>2020-10-05 18:01:25</time>
      </trkpt>
      <trkpt lat="41.24635" lon="1.6607">
        <ele>63</ele>
        <time>2020-10-05 18:01:32</time>
      </trkpt>
      <trkpt lat="41.24633" lon="1.66065">
        <ele>63.2</ele>
        <time>2020-10-05 18:01:33</time>
      </trkpt>
      <trkpt lat="41.24627" lon="1.66043">
        <ele>64</ele>
        <time>2020-10-05 18:01:37</time>
      </trkpt>
      <trkpt lat="41.24623" lon="1.66032">
        <ele>65</ele>
        <time>2020-10-05 18:01:39</time>
      </trkpt>
      <trkpt lat="41.2462" lon="1.66021">
        <ele>65.8</ele>
        <time>2020-10-05 18:01:41</time>
      </trkpt>
      <trkpt lat="41.24618" lon="1.6601">
        <ele>66.2</ele>
        <time>2020-10-05 18:01:43</time>
      </trkpt>
      <trkpt lat="41.24617" lon="1.65999">
        <ele>66.6</ele>
        <time>2020-10-05 18:01:45</time>
      </trkpt>
      <trkpt lat="41.24616" lon="1.65982">
        <ele>67.2</ele>
        <time>2020-10-05 18:01:48</time>
      </trkpt>
      <trkpt lat="41.24618" lon="1.65953">
        <ele>68.2</ele>
        <time>2020-10-05 18:01:53</time>
      </trkpt>
      <trkpt lat="41.24619" lon="1.65947">
        <ele>68.4</ele>
        <time>2020-10-05 18:01:54</time>
      </trkpt>
      <trkpt lat="41.24624" lon="1.65932">
        <ele>69.4</ele>
        <time>2020-10-05 18:01:57</time>
      </trkpt>
      <trkpt lat="41.24627" lon="1.65928">
        <ele>69.8</ele>
        <time>2020-10-05 18:01:58</time>
      </trkpt>
      <trkpt lat="41.2464" lon="1.65922">
        <ele>70.4</ele>
        <time>2020-10-05 18:02:02</time>
      </trkpt>
      <trkpt lat="41.24644" lon="1.65922">
        <ele>70.6</ele>
        <time>2020-10-05 18:02:03</time>
      </trkpt>
      <trkpt lat="41.24648" lon="1.65923">
        <ele>70.8</ele>
        <time>2020-10-05 18:02:04</time>
      </trkpt>
      <trkpt lat="41.24657" lon="1.65925">
        <ele>71.2</ele>
        <time>2020-10-05 18:02:06</time>
      </trkpt>
      <trkpt lat="41.24662" lon="1.65926">
        <ele>72.2</ele>
        <time>2020-10-05 18:02:07</time>
      </trkpt>
      <trkpt lat="41.24675" lon="1.65928">
        <ele>73.2</ele>
        <time>2020-10-05 18:02:10</time>
      </trkpt>
      <trkpt lat="41.24688" lon="1.65929">
        <ele>74.2</ele>
        <time>2020-10-05 18:02:13</time>
      </trkpt>
      <trkpt lat="41.24692" lon="1.65929">
        <ele>74.6</ele>
        <time>2020-10-05 18:02:14</time>
      </trkpt>
      <trkpt lat="41.24709" lon="1.65931">
        <ele>75.4</ele>
        <time>2020-10-05 18:02:18</time>
      </trkpt>
      <trkpt lat="41.24721" lon="1.65933">
        <ele>75.8</ele>
        <time>2020-10-05 18:02:21</time>
      </trkpt>
      <trkpt lat="41.24734" lon="1.65936">
        <ele>76.2</ele>
        <time>2020-10-05 18:02:24</time>
      </trkpt>
      <trkpt lat="41.24738" lon="1.65938">
        <ele>76.4</ele>
        <time>2020-10-05 18:02:25</time>
      </trkpt>
      <trkpt lat="41.24769" lon="1.65955">
        <ele>77.8</ele>
        <time>2020-10-05 18:02:33</time>
      </trkpt>
      <trkpt lat="41.2478" lon="1.65962">
        <ele>79</ele>
        <time>2020-10-05 18:02:36</time>
      </trkpt>
      <trkpt lat="41.24798" lon="1.65976">
        <ele>80</ele>
        <time>2020-10-05 18:02:41</time>
      </trkpt>
      <trkpt lat="41.24802" lon="1.65979">
        <ele>80</ele>
        <time>2020-10-05 18:02:42</time>
      </trkpt>
      <trkpt lat="41.24812" lon="1.65988">
        <ele>81</ele>
        <time>2020-10-05 18:02:45</time>
      </trkpt>
      <trkpt lat="41.24825" lon="1.66001">
        <ele>82.2</ele>
        <time>2020-10-05 18:02:49</time>
      </trkpt>
      <trkpt lat="41.24832" lon="1.66007">
        <ele>82.6</ele>
        <time>2020-10-05 18:02:51</time>
      </trkpt>
      <trkpt lat="41.24845" lon="1.66014">
        <ele>82.8</ele>
        <time>2020-10-05 18:02:54</time>
      </trkpt>
      <trkpt lat="41.2485" lon="1.66016">
        <ele>83.2</ele>
        <time>2020-10-05 18:02:55</time>
      </trkpt>
      <trkpt lat="41.24855" lon="1.66018">
        <ele>83.2</ele>
        <time>2020-10-05 18:02:56</time>
      </trkpt>
      <trkpt lat="41.24885" lon="1.66022">
        <ele>83.8</ele>
        <time>2020-10-05 18:03:01</time>
      </trkpt>
      <trkpt lat="41.24923" lon="1.66016">
        <ele>83.2</ele>
        <time>2020-10-05 18:03:07</time>
      </trkpt>
      <trkpt lat="41.24967" lon="1.66007">
        <ele>82.2</ele>
        <time>2020-10-05 18:03:13</time>
      </trkpt>
      <trkpt lat="41.24981" lon="1.66003">
        <ele>82.2</ele>
        <time>2020-10-05 18:03:15</time>
      </trkpt>
      <trkpt lat="41.25" lon="1.65987">
        <ele>82</ele>
        <time>2020-10-05 18:03:18</time>
      </trkpt>
      <trkpt lat="41.25012" lon="1.65959">
        <ele>81.6</ele>
        <time>2020-10-05 18:03:21</time>
      </trkpt>
      <trkpt lat="41.25014" lon="1.65948">
        <ele>81.6</ele>
        <time>2020-10-05 18:03:22</time>
      </trkpt>
      <trkpt lat="41.25017" lon="1.65938">
        <ele>81.6</ele>
        <time>2020-10-05 18:03:23</time>
      </trkpt>
      <trkpt lat="41.25027" lon="1.65921">
        <ele>81.4</ele>
        <time>2020-10-05 18:03:25</time>
      </trkpt>
      <trkpt lat="41.25032" lon="1.65915">
        <ele>81.2</ele>
        <time>2020-10-05 18:03:26</time>
      </trkpt>
      <trkpt lat="41.25038" lon="1.65909">
        <ele>81.2</ele>
        <time>2020-10-05 18:03:27</time>
      </trkpt>
      <trkpt lat="41.25054" lon="1.65892">
        <ele>81</ele>
        <time>2020-10-05 18:03:30</time>
      </trkpt>
      <trkpt lat="41.25064" lon="1.65879">
        <ele>81</ele>
        <time>2020-10-05 18:03:32</time>
      </trkpt>
      <trkpt lat="41.25076" lon="1.65855">
        <ele>81</ele>
        <time>2020-10-05 18:03:35</time>
      </trkpt>
      <trkpt lat="41.25097" lon="1.65804">
        <ele>81.2</ele>
        <time>2020-10-05 18:03:41</time>
      </trkpt>
      <trkpt lat="41.25116" lon="1.65784">
        <ele>81.2</ele>
        <time>2020-10-05 18:03:44</time>
      </trkpt>
      <trkpt lat="41.25133" lon="1.65777">
        <ele>81.2</ele>
        <time>2020-10-05 18:03:46</time>
      </trkpt>
      <trkpt lat="41.25149" lon="1.65768">
        <ele>80.8</ele>
        <time>2020-10-05 18:03:48</time>
      </trkpt>
      <trkpt lat="41.2516" lon="1.65752">
        <ele>79.6</ele>
        <time>2020-10-05 18:03:50</time>
      </trkpt>
      <trkpt lat="41.25164" lon="1.65743">
        <ele>79.2</ele>
        <time>2020-10-05 18:03:51</time>
      </trkpt>
      <trkpt lat="41.2517" lon="1.65724">
        <ele>78.8</ele>
        <time>2020-10-05 18:03:53</time>
      </trkpt>
      <trkpt lat="41.25176" lon="1.657">
        <ele>78.4</ele>
        <time>2020-10-05 18:03:56</time>
      </trkpt>
      <trkpt lat="41.25181" lon="1.65665">
        <ele>78.6</ele>
        <time>2020-10-05 18:04:01</time>
      </trkpt>
      <trkpt lat="41.25183" lon="1.6566">
        <ele>79</ele>
        <time>2020-10-05 18:04:02</time>
      </trkpt>
      <trkpt lat="41.25196" lon="1.65646">
        <ele>80</ele>
        <time>2020-10-05 18:04:06</time>
      </trkpt>
      <trkpt lat="41.25204" lon="1.65643">
        <ele>80.8</ele>
        <time>2020-10-05 18:04:08</time>
      </trkpt>
      <trkpt lat="41.25208" lon="1.65642">
        <ele>81.2</ele>
        <time>2020-10-05 18:04:09</time>
      </trkpt>
      <trkpt lat="41.25212" lon="1.65642">
        <ele>82</ele>
        <time>2020-10-05 18:04:10</time>
      </trkpt>
      <trkpt lat="41.25216" lon="1.65642">
        <ele>82.6</ele>
        <time>2020-10-05 18:04:11</time>
      </trkpt>
      <trkpt lat="41.25221" lon="1.65642">
        <ele>83</ele>
        <time>2020-10-05 18:04:12</time>
      </trkpt>
      <trkpt lat="41.25233" lon="1.65642">
        <ele>84.2</ele>
        <time>2020-10-05 18:04:15</time>
      </trkpt>
      <trkpt lat="41.25254" lon="1.65642">
        <ele>85.6</ele>
        <time>2020-10-05 18:04:20</time>
      </trkpt>
      <trkpt lat="41.25267" lon="1.65641">
        <ele>86.6</ele>
        <time>2020-10-05 18:04:23</time>
      </trkpt>
      <trkpt lat="41.25281" lon="1.65641">
        <ele>87.4</ele>
        <time>2020-10-05 18:04:26</time>
      </trkpt>
      <trkpt lat="41.25285" lon="1.65641">
        <ele>87.8</ele>
        <time>2020-10-05 18:04:27</time>
      </trkpt>
      <trkpt lat="41.25299" lon="1.6564">
        <ele>89</ele>
        <time>2020-10-05 18:04:30</time>
      </trkpt>
      <trkpt lat="41.25318" lon="1.65639">
        <ele>90.2</ele>
        <time>2020-10-05 18:04:34</time>
      </trkpt>
      <trkpt lat="41.2534" lon="1.65637">
        <ele>91.2</ele>
        <time>2020-10-05 18:04:38</time>
      </trkpt>
      <trkpt lat="41.25358" lon="1.65635">
        <ele>91.4</ele>
        <time>2020-10-05 18:04:41</time>
      </trkpt>
      <trkpt lat="41.25395" lon="1.65634">
        <ele>91.4</ele>
        <time>2020-10-05 18:04:46</time>
      </trkpt>
      <trkpt lat="41.25419" lon="1.65624">
        <ele>91</ele>
        <time>2020-10-05 18:04:49</time>
      </trkpt>
      <trkpt lat="41.2544" lon="1.65602">
        <ele>90.2</ele>
        <time>2020-10-05 18:04:52</time>
      </trkpt>
      <trkpt lat="41.25446" lon="1.65592">
        <ele>89.2</ele>
        <time>2020-10-05 18:04:53</time>
      </trkpt>
      <trkpt lat="41.25456" lon="1.65572">
        <ele>87.6</ele>
        <time>2020-10-05 18:04:55</time>
      </trkpt>
      <trkpt lat="41.25461" lon="1.65561">
        <ele>87.2</ele>
        <time>2020-10-05 18:04:56</time>
      </trkpt>
      <trkpt lat="41.25465" lon="1.6555">
        <ele>86.6</ele>
        <time>2020-10-05 18:04:57</time>
      </trkpt>
      <trkpt lat="41.25474" lon="1.65527">
        <ele>84.6</ele>
        <time>2020-10-05 18:04:59</time>
      </trkpt>
      <trkpt lat="41.25482" lon="1.65504">
        <ele>83.2</ele>
        <time>2020-10-05 18:05:01</time>
      </trkpt>
      <trkpt lat="41.25486" lon="1.65492">
        <ele>83</ele>
        <time>2020-10-05 18:05:02</time>
      </trkpt>
      <trkpt lat="41.25496" lon="1.65455">
        <ele>81.8</ele>
        <time>2020-10-05 18:05:05</time>
      </trkpt>
      <trkpt lat="41.25506" lon="1.65417">
        <ele>80.6</ele>
        <time>2020-10-05 18:05:08</time>
      </trkpt>
      <trkpt lat="41.2551" lon="1.65406">
        <ele>80.2</ele>
        <time>2020-10-05 18:05:09</time>
      </trkpt>
      <trkpt lat="41.25516" lon="1.65397">
        <ele>80</ele>
        <time>2020-10-05 18:05:10</time>
      </trkpt>
      <trkpt lat="41.25533" lon="1.6539">
        <ele>79.8</ele>
        <time>2020-10-05 18:05:12</time>
      </trkpt>
      <trkpt lat="41.2555" lon="1.654">
        <ele>79.4</ele>
        <time>2020-10-05 18:05:14</time>
      </trkpt>
      <trkpt lat="41.25557" lon="1.65408">
        <ele>79.2</ele>
        <time>2020-10-05 18:05:15</time>
      </trkpt>
      <trkpt lat="41.25584" lon="1.65434">
        <ele>79</ele>
        <time>2020-10-05 18:05:19</time>
      </trkpt>
      <trkpt lat="41.25606" lon="1.65435">
        <ele>79</ele>
        <time>2020-10-05 18:05:22</time>
      </trkpt>
      <trkpt lat="41.25619" lon="1.65429">
        <ele>79</ele>
        <time>2020-10-05 18:05:24</time>
      </trkpt>
      <trkpt lat="41.25631" lon="1.65423">
        <ele>79</ele>
        <time>2020-10-05 18:05:26</time>
      </trkpt>
      <trkpt lat="41.25637" lon="1.6542">
        <ele>79.6</ele>
        <time>2020-10-05 18:05:27</time>
      </trkpt>
      <trkpt lat="41.25649" lon="1.65419">
        <ele>81</ele>
        <time>2020-10-05 18:05:29</time>
      </trkpt>
      <trkpt lat="41.25654" lon="1.65418">
        <ele>81.4</ele>
        <time>2020-10-05 18:05:30</time>
      </trkpt>
      <trkpt lat="41.25674" lon="1.6542">
        <ele>82.2</ele>
        <time>2020-10-05 18:05:34</time>
      </trkpt>
      <trkpt lat="41.25679" lon="1.65421">
        <ele>82.6</ele>
        <time>2020-10-05 18:05:35</time>
      </trkpt>
      <trkpt lat="41.25683" lon="1.65422">
        <ele>83</ele>
        <time>2020-10-05 18:05:36</time>
      </trkpt>
      <trkpt lat="41.25687" lon="1.65424">
        <ele>83.6</ele>
        <time>2020-10-05 18:05:37</time>
      </trkpt>
      <trkpt lat="41.25698" lon="1.6543">
        <ele>84.4</ele>
        <time>2020-10-05 18:05:40</time>
      </trkpt>
      <trkpt lat="41.25705" lon="1.65432">
        <ele>85.2</ele>
        <time>2020-10-05 18:05:42</time>
      </trkpt>
      <trkpt lat="41.25709" lon="1.65432">
        <ele>85.4</ele>
        <time>2020-10-05 18:05:43</time>
      </trkpt>
      <trkpt lat="41.2572" lon="1.65428">
        <ele>86.4</ele>
        <time>2020-10-05 18:05:46</time>
      </trkpt>
      <trkpt lat="41.25723" lon="1.65426">
        <ele>86.8</ele>
        <time>2020-10-05 18:05:47</time>
      </trkpt>
      <trkpt lat="41.25729" lon="1.65414">
        <ele>88</ele>
        <time>2020-10-05 18:05:50</time>
      </trkpt>
      <trkpt lat="41.2573" lon="1.6541">
        <ele>88.4</ele>
        <time>2020-10-05 18:05:51</time>
      </trkpt>
      <trkpt lat="41.25728" lon="1.65391">
        <ele>89.4</ele>
        <time>2020-10-05 18:05:55</time>
      </trkpt>
      <trkpt lat="41.25717" lon="1.65369">
        <ele>90.6</ele>
        <time>2020-10-05 18:06:00</time>
      </trkpt>
      <trkpt lat="41.25711" lon="1.65362">
        <ele>91.2</ele>
        <time>2020-10-05 18:06:02</time>
      </trkpt>
      <trkpt lat="41.25704" lon="1.65358">
        <ele>91.8</ele>
        <time>2020-10-05 18:06:04</time>
      </trkpt>
      <trkpt lat="41.25693" lon="1.65356">
        <ele>92.8</ele>
        <time>2020-10-05 18:06:07</time>
      </trkpt>
      <trkpt lat="41.25689" lon="1.65355">
        <ele>93</ele>
        <time>2020-10-05 18:06:08</time>
      </trkpt>
      <trkpt lat="41.25674" lon="1.65356">
        <ele>94.2</ele>
        <time>2020-10-05 18:06:12</time>
      </trkpt>
      <trkpt lat="41.25655" lon="1.65356">
        <ele>95.2</ele>
        <time>2020-10-05 18:06:17</time>
      </trkpt>
      <trkpt lat="41.25651" lon="1.65356">
        <ele>95.4</ele>
        <time>2020-10-05 18:06:18</time>
      </trkpt>
      <trkpt lat="41.25631" lon="1.65355">
        <ele>96.6</ele>
        <time>2020-10-05 18:06:23</time>
      </trkpt>
      <trkpt lat="41.2562" lon="1.65354">
        <ele>97.4</ele>
        <time>2020-10-05 18:06:26</time>
      </trkpt>
      <trkpt lat="41.25616" lon="1.65353">
        <ele>97.6</ele>
        <time>2020-10-05 18:06:27</time>
      </trkpt>
      <trkpt lat="41.25602" lon="1.65344">
        <ele>98.4</ele>
        <time>2020-10-05 18:06:31</time>
      </trkpt>
      <trkpt lat="41.25599" lon="1.65341">
        <ele>98.6</ele>
        <time>2020-10-05 18:06:32</time>
      </trkpt>
      <trkpt lat="41.25586" lon="1.6533">
        <ele>99.2</ele>
        <time>2020-10-05 18:06:36</time>
      </trkpt>
      <trkpt lat="41.25581" lon="1.65321">
        <ele>99.8</ele>
        <time>2020-10-05 18:06:38</time>
      </trkpt>
      <trkpt lat="41.25579" lon="1.65309">
        <ele>100.2</ele>
        <time>2020-10-05 18:06:40</time>
      </trkpt>
      <trkpt lat="41.25576" lon="1.65285">
        <ele>100.6</ele>
        <time>2020-10-05 18:06:44</time>
      </trkpt>
      <trkpt lat="41.25581" lon="1.65261">
        <ele>100.8</ele>
        <time>2020-10-05 18:06:48</time>
      </trkpt>
      <trkpt lat="41.256" lon="1.65206">
        <ele>100.6</ele>
        <time>2020-10-05 18:06:57</time>
      </trkpt>
      <trkpt lat="41.25619" lon="1.65162">
        <ele>101</ele>
        <time>2020-10-05 18:07:04</time>
      </trkpt>
      <trkpt lat="41.25623" lon="1.65156">
        <ele>101</ele>
        <time>2020-10-05 18:07:05</time>
      </trkpt>
      <trkpt lat="41.25646" lon="1.6511">
        <ele>101</ele>
        <time>2020-10-05 18:07:12</time>
      </trkpt>
      <trkpt lat="41.2565" lon="1.65104">
        <ele>101</ele>
        <time>2020-10-05 18:07:13</time>
      </trkpt>
      <trkpt lat="41.25665" lon="1.6509">
        <ele>101</ele>
        <time>2020-10-05 18:07:16</time>
      </trkpt>
      <trkpt lat="41.2567" lon="1.65086">
        <ele>101</ele>
        <time>2020-10-05 18:07:17</time>
      </trkpt>
      <trkpt lat="41.25675" lon="1.65083">
        <ele>101</ele>
        <time>2020-10-05 18:07:18</time>
      </trkpt>
      <trkpt lat="41.257" lon="1.65079">
        <ele>101</ele>
        <time>2020-10-05 18:07:22</time>
      </trkpt>
      <trkpt lat="41.25753" lon="1.65087">
        <ele>101.8</ele>
        <time>2020-10-05 18:07:30</time>
      </trkpt>
      <trkpt lat="41.25771" lon="1.65099">
        <ele>102</ele>
        <time>2020-10-05 18:07:33</time>
      </trkpt>
      <trkpt lat="41.25777" lon="1.65105">
        <ele>102</ele>
        <time>2020-10-05 18:07:34</time>
      </trkpt>
      <trkpt lat="41.25788" lon="1.65114">
        <ele>102</ele>
        <time>2020-10-05 18:07:36</time>
      </trkpt>
      <trkpt lat="41.25802" lon="1.65119">
        <ele>102</ele>
        <time>2020-10-05 18:07:38</time>
      </trkpt>
      <trkpt lat="41.25822" lon="1.65113">
        <ele>102</ele>
        <time>2020-10-05 18:07:41</time>
      </trkpt>
      <trkpt lat="41.25834" lon="1.65105">
        <ele>102</ele>
        <time>2020-10-05 18:07:43</time>
      </trkpt>
      <trkpt lat="41.25866" lon="1.65082">
        <ele>101.8</ele>
        <time>2020-10-05 18:07:48</time>
      </trkpt>
      <trkpt lat="41.25893" lon="1.65054">
        <ele>101.6</ele>
        <time>2020-10-05 18:07:53</time>
      </trkpt>
      <trkpt lat="41.25901" lon="1.6503">
        <ele>101.6</ele>
        <time>2020-10-05 18:07:56</time>
      </trkpt>
      <trkpt lat="41.25896" lon="1.65004">
        <ele>101.6</ele>
        <time>2020-10-05 18:07:59</time>
      </trkpt>
      <trkpt lat="41.25881" lon="1.64988">
        <ele>101.6</ele>
        <time>2020-10-05 18:08:02</time>
      </trkpt>
      <trkpt lat="41.25862" lon="1.64981">
        <ele>101.6</ele>
        <time>2020-10-05 18:08:05</time>
      </trkpt>
      <trkpt lat="41.25856" lon="1.64979">
        <ele>101.6</ele>
        <time>2020-10-05 18:08:06</time>
      </trkpt>
      <trkpt lat="41.25846" lon="1.64974">
        <ele>101.6</ele>
        <time>2020-10-05 18:08:08</time>
      </trkpt>
      <trkpt lat="41.25837" lon="1.64967">
        <ele>101.8</ele>
        <time>2020-10-05 18:08:10</time>
      </trkpt>
      <trkpt lat="41.25817" lon="1.64952">
        <ele>102.8</ele>
        <time>2020-10-05 18:08:15</time>
      </trkpt>
      <trkpt lat="41.25809" lon="1.64947">
        <ele>103.6</ele>
        <time>2020-10-05 18:08:17</time>
      </trkpt>
      <trkpt lat="41.25805" lon="1.64945">
        <ele>104</ele>
        <time>2020-10-05 18:08:18</time>
      </trkpt>
      <trkpt lat="41.25793" lon="1.6494">
        <ele>105.2</ele>
        <time>2020-10-05 18:08:21</time>
      </trkpt>
      <trkpt lat="41.25781" lon="1.64934">
        <ele>106.4</ele>
        <time>2020-10-05 18:08:24</time>
      </trkpt>
      <trkpt lat="41.25777" lon="1.64932">
        <ele>106.8</ele>
        <time>2020-10-05 18:08:25</time>
      </trkpt>
      <trkpt lat="41.25764" lon="1.64928">
        <ele>107.8</ele>
        <time>2020-10-05 18:08:28</time>
      </trkpt>
      <trkpt lat="41.25747" lon="1.64922">
        <ele>108.8</ele>
        <time>2020-10-05 18:08:32</time>
      </trkpt>
      <trkpt lat="41.25738" lon="1.64919">
        <ele>109.4</ele>
        <time>2020-10-05 18:08:34</time>
      </trkpt>
      <trkpt lat="41.2573" lon="1.64913">
        <ele>110</ele>
        <time>2020-10-05 18:08:36</time>
      </trkpt>
      <trkpt lat="41.25725" lon="1.64903">
        <ele>110.2</ele>
        <time>2020-10-05 18:08:38</time>
      </trkpt>
      <trkpt lat="41.25722" lon="1.64884">
        <ele>111</ele>
        <time>2020-10-05 18:08:41</time>
      </trkpt>
      <trkpt lat="41.25722" lon="1.64877">
        <ele>111.4</ele>
        <time>2020-10-05 18:08:42</time>
      </trkpt>
      <trkpt lat="41.2572" lon="1.64864">
        <ele>112</ele>
        <time>2020-10-05 18:08:44</time>
      </trkpt>
      <trkpt lat="41.25715" lon="1.64852">
        <ele>112.4</ele>
        <time>2020-10-05 18:08:46</time>
      </trkpt>
      <trkpt lat="41.25709" lon="1.6484">
        <ele>112.4</ele>
        <time>2020-10-05 18:08:48</time>
      </trkpt>
      <trkpt lat="41.25704" lon="1.64829">
        <ele>112.4</ele>
        <time>2020-10-05 18:08:50</time>
      </trkpt>
      <trkpt lat="41.257" lon="1.64824">
        <ele>112.4</ele>
        <time>2020-10-05 18:08:51</time>
      </trkpt>
      <trkpt lat="41.25682" lon="1.64813">
        <ele>112.6</ele>
        <time>2020-10-05 18:08:55</time>
      </trkpt>
      <trkpt lat="41.25678" lon="1.6481">
        <ele>112.8</ele>
        <time>2020-10-05 18:08:56</time>
      </trkpt>
      <trkpt lat="41.25674" lon="1.64807">
        <ele>113</ele>
        <time>2020-10-05 18:08:57</time>
      </trkpt>
      <trkpt lat="41.25663" lon="1.64796">
        <ele>113.4</ele>
        <time>2020-10-05 18:09:00</time>
      </trkpt>
      <trkpt lat="41.25659" lon="1.64778">
        <ele>113.8</ele>
        <time>2020-10-05 18:09:03</time>
      </trkpt>
      <trkpt lat="41.25664" lon="1.64753">
        <ele>114</ele>
        <time>2020-10-05 18:09:07</time>
      </trkpt>
      <trkpt lat="41.25662" lon="1.64731">
        <ele>114.2</ele>
        <time>2020-10-05 18:09:10</time>
      </trkpt>
      <trkpt lat="41.25655" lon="1.6472">
        <ele>114.4</ele>
        <time>2020-10-05 18:09:12</time>
      </trkpt>
      <trkpt lat="41.25646" lon="1.6471">
        <ele>114.6</ele>
        <time>2020-10-05 18:09:14</time>
      </trkpt>
      <trkpt lat="41.25616" lon="1.64681">
        <ele>114.6</ele>
        <time>2020-10-05 18:09:20</time>
      </trkpt>
      <trkpt lat="41.25574" lon="1.64643">
        <ele>114.2</ele>
        <time>2020-10-05 18:09:28</time>
      </trkpt>
      <trkpt lat="41.25568" lon="1.64628">
        <ele>114.2</ele>
        <time>2020-10-05 18:09:30</time>
      </trkpt>
      <trkpt lat="41.25574" lon="1.646">
        <ele>114</ele>
        <time>2020-10-05 18:09:33</time>
      </trkpt>
      <trkpt lat="41.25586" lon="1.64584">
        <ele>114</ele>
        <time>2020-10-05 18:09:35</time>
      </trkpt>
      <trkpt lat="41.25597" lon="1.64566">
        <ele>114</ele>
        <time>2020-10-05 18:09:37</time>
      </trkpt>
      <trkpt lat="41.25607" lon="1.64545">
        <ele>113.8</ele>
        <time>2020-10-05 18:09:39</time>
      </trkpt>
      <trkpt lat="41.25622" lon="1.64529">
        <ele>112.8</ele>
        <time>2020-10-05 18:09:41</time>
      </trkpt>
      <trkpt lat="41.25637" lon="1.64511">
        <ele>111.6</ele>
        <time>2020-10-05 18:09:43</time>
      </trkpt>
      <trkpt lat="41.2564" lon="1.64498">
        <ele>111.2</ele>
        <time>2020-10-05 18:09:44</time>
      </trkpt>
      <trkpt lat="41.25639" lon="1.64486">
        <ele>110.6</ele>
        <time>2020-10-05 18:09:45</time>
      </trkpt>
      <trkpt lat="41.25635" lon="1.64474">
        <ele>110</ele>
        <time>2020-10-05 18:09:46</time>
      </trkpt>
      <trkpt lat="41.25629" lon="1.64465">
        <ele>109.4</ele>
        <time>2020-10-05 18:09:47</time>
      </trkpt>
      <trkpt lat="41.25614" lon="1.6445">
        <ele>108.2</ele>
        <time>2020-10-05 18:09:49</time>
      </trkpt>
      <trkpt lat="41.25593" lon="1.64427">
        <ele>106.8</ele>
        <time>2020-10-05 18:09:52</time>
      </trkpt>
      <trkpt lat="41.25586" lon="1.64417">
        <ele>106.6</ele>
        <time>2020-10-05 18:09:53</time>
      </trkpt>
      <trkpt lat="41.25573" lon="1.64386">
        <ele>106</ele>
        <time>2020-10-05 18:09:56</time>
      </trkpt>
      <trkpt lat="41.25569" lon="1.64377">
        <ele>105.8</ele>
        <time>2020-10-05 18:09:57</time>
      </trkpt>
      <trkpt lat="41.25546" lon="1.64309">
        <ele>105</ele>
        <time>2020-10-05 18:10:04</time>
      </trkpt>
      <trkpt lat="41.25544" lon="1.64299">
        <ele>105.2</ele>
        <time>2020-10-05 18:10:05</time>
      </trkpt>
      <trkpt lat="41.2554" lon="1.64257">
        <ele>104.8</ele>
        <time>2020-10-05 18:10:09</time>
      </trkpt>
      <trkpt lat="41.25544" lon="1.64226">
        <ele>104.8</ele>
        <time>2020-10-05 18:10:12</time>
      </trkpt>
      <trkpt lat="41.25552" lon="1.64206">
        <ele>104.8</ele>
        <time>2020-10-05 18:10:14</time>
      </trkpt>
      <trkpt lat="41.2556" lon="1.64186">
        <ele>104.4</ele>
        <time>2020-10-05 18:10:16</time>
      </trkpt>
      <trkpt lat="41.25581" lon="1.64167">
        <ele>103.6</ele>
        <time>2020-10-05 18:10:19</time>
      </trkpt>
      <trkpt lat="41.2559" lon="1.64167">
        <ele>103.4</ele>
        <time>2020-10-05 18:10:20</time>
      </trkpt>
      <trkpt lat="41.25608" lon="1.64172">
        <ele>102.6</ele>
        <time>2020-10-05 18:10:22</time>
      </trkpt>
      <trkpt lat="41.25616" lon="1.64174">
        <ele>102</ele>
        <time>2020-10-05 18:10:23</time>
      </trkpt>
      <trkpt lat="41.25651" lon="1.64183">
        <ele>100.8</ele>
        <time>2020-10-05 18:10:27</time>
      </trkpt>
      <trkpt lat="41.25692" lon="1.64192">
        <ele>100.2</ele>
        <time>2020-10-05 18:10:32</time>
      </trkpt>
      <trkpt lat="41.25726" lon="1.64193">
        <ele>99.6</ele>
        <time>2020-10-05 18:10:36</time>
      </trkpt>
      <trkpt lat="41.25735" lon="1.64192">
        <ele>99.6</ele>
        <time>2020-10-05 18:10:37</time>
      </trkpt>
      <trkpt lat="41.25793" lon="1.64183">
        <ele>98.8</ele>
        <time>2020-10-05 18:10:44</time>
      </trkpt>
      <trkpt lat="41.25809" lon="1.64181">
        <ele>98.8</ele>
        <time>2020-10-05 18:10:46</time>
      </trkpt>
      <trkpt lat="41.25826" lon="1.64185">
        <ele>98.6</ele>
        <time>2020-10-05 18:10:48</time>
      </trkpt>
      <trkpt lat="41.25846" lon="1.64202">
        <ele>98.8</ele>
        <time>2020-10-05 18:10:51</time>
      </trkpt>
      <trkpt lat="41.25852" lon="1.64209">
        <ele>98.8</ele>
        <time>2020-10-05 18:10:52</time>
      </trkpt>
      <trkpt lat="41.25857" lon="1.64217">
        <ele>98.8</ele>
        <time>2020-10-05 18:10:53</time>
      </trkpt>
      <trkpt lat="41.2587" lon="1.64241">
        <ele>98.8</ele>
        <time>2020-10-05 18:10:56</time>
      </trkpt>
      <trkpt lat="41.25884" lon="1.64264">
        <ele>99</ele>
        <time>2020-10-05 18:10:59</time>
      </trkpt>
      <trkpt lat="41.2589" lon="1.64269">
        <ele>99.6</ele>
        <time>2020-10-05 18:11:00</time>
      </trkpt>
      <trkpt lat="41.25897" lon="1.64272">
        <ele>99.8</ele>
        <time>2020-10-05 18:11:01</time>
      </trkpt>
      <trkpt lat="41.25911" lon="1.64267">
        <ele>100</ele>
        <time>2020-10-05 18:11:03</time>
      </trkpt>
      <trkpt lat="41.25917" lon="1.6425">
        <ele>100.6</ele>
        <time>2020-10-05 18:11:05</time>
      </trkpt>
      <trkpt lat="41.25913" lon="1.64221">
        <ele>100.8</ele>
        <time>2020-10-05 18:11:08</time>
      </trkpt>
      <trkpt lat="41.25909" lon="1.64202">
        <ele>101</ele>
        <time>2020-10-05 18:11:10</time>
      </trkpt>
      <trkpt lat="41.2591" lon="1.64174">
        <ele>101</ele>
        <time>2020-10-05 18:11:13</time>
      </trkpt>
      <trkpt lat="41.25925" lon="1.64155">
        <ele>100.8</ele>
        <time>2020-10-05 18:11:16</time>
      </trkpt>
      <trkpt lat="41.25931" lon="1.64151">
        <ele>100.8</ele>
        <time>2020-10-05 18:11:17</time>
      </trkpt>
      <trkpt lat="41.25956" lon="1.6414">
        <ele>100.6</ele>
        <time>2020-10-05 18:11:21</time>
      </trkpt>
      <trkpt lat="41.2601" lon="1.64117">
        <ele>100.4</ele>
        <time>2020-10-05 18:11:29</time>
      </trkpt>
      <trkpt lat="41.26016" lon="1.64114">
        <ele>100.4</ele>
        <time>2020-10-05 18:11:30</time>
      </trkpt>
      <trkpt lat="41.26073" lon="1.64097">
        <ele>99.4</ele>
        <time>2020-10-05 18:11:38</time>
      </trkpt>
      <trkpt lat="41.2608" lon="1.64095">
        <ele>99.4</ele>
        <time>2020-10-05 18:11:39</time>
      </trkpt>
      <trkpt lat="41.26131" lon="1.64089">
        <ele>98.2</ele>
        <time>2020-10-05 18:11:46</time>
      </trkpt>
      <trkpt lat="41.26138" lon="1.64088">
        <ele>98.2</ele>
        <time>2020-10-05 18:11:47</time>
      </trkpt>
      <trkpt lat="41.26173" lon="1.64084">
        <ele>98.2</ele>
        <time>2020-10-05 18:11:52</time>
      </trkpt>
      <trkpt lat="41.2618" lon="1.64085">
        <ele>98.4</ele>
        <time>2020-10-05 18:11:53</time>
      </trkpt>
      <trkpt lat="41.26206" lon="1.64092">
        <ele>98.8</ele>
        <time>2020-10-05 18:11:57</time>
      </trkpt>
      <trkpt lat="41.26212" lon="1.64096">
        <ele>99</ele>
        <time>2020-10-05 18:11:58</time>
      </trkpt>
      <trkpt lat="41.26218" lon="1.641">
        <ele>99.2</ele>
        <time>2020-10-05 18:11:59</time>
      </trkpt>
      <trkpt lat="41.26241" lon="1.64118">
        <ele>100.4</ele>
        <time>2020-10-05 18:12:03</time>
      </trkpt>
      <trkpt lat="41.26251" lon="1.64127">
        <ele>100.8</ele>
        <time>2020-10-05 18:12:05</time>
      </trkpt>
      <trkpt lat="41.26268" lon="1.64141">
        <ele>101.2</ele>
        <time>2020-10-05 18:12:08</time>
      </trkpt>
      <trkpt lat="41.26284" lon="1.64155">
        <ele>102</ele>
        <time>2020-10-05 18:12:11</time>
      </trkpt>
      <trkpt lat="41.26297" lon="1.64165">
        <ele>102.4</ele>
        <time>2020-10-05 18:12:13</time>
      </trkpt>
      <trkpt lat="41.26321" lon="1.64189">
        <ele>102.6</ele>
        <time>2020-10-05 18:12:17</time>
      </trkpt>
      <trkpt lat="41.26355" lon="1.64233">
        <ele>102.4</ele>
        <time>2020-10-05 18:12:23</time>
      </trkpt>
      <trkpt lat="41.26386" lon="1.6427">
        <ele>101.6</ele>
        <time>2020-10-05 18:12:28</time>
      </trkpt>
      <trkpt lat="41.264" lon="1.64279">
        <ele>101.4</ele>
        <time>2020-10-05 18:12:30</time>
      </trkpt>
      <trkpt lat="41.26424" lon="1.64277">
        <ele>100.4</ele>
        <time>2020-10-05 18:12:33</time>
      </trkpt>
      <trkpt lat="41.26435" lon="1.64262">
        <ele>100.2</ele>
        <time>2020-10-05 18:12:35</time>
      </trkpt>
      <trkpt lat="41.26438" lon="1.64252">
        <ele>100</ele>
        <time>2020-10-05 18:12:36</time>
      </trkpt>
      <trkpt lat="41.2644" lon="1.64229">
        <ele>99.8</ele>
        <time>2020-10-05 18:12:38</time>
      </trkpt>
      <trkpt lat="41.26433" lon="1.64198">
        <ele>99.8</ele>
        <time>2020-10-05 18:12:41</time>
      </trkpt>
      <trkpt lat="41.2642" lon="1.64171">
        <ele>99.8</ele>
        <time>2020-10-05 18:12:44</time>
      </trkpt>
      <trkpt lat="41.2641" lon="1.64154">
        <ele>99.8</ele>
        <time>2020-10-05 18:12:46</time>
      </trkpt>
      <trkpt lat="41.26388" lon="1.64109">
        <ele>100</ele>
        <time>2020-10-05 18:12:52</time>
      </trkpt>
      <trkpt lat="41.26379" lon="1.64091">
        <ele>100.2</ele>
        <time>2020-10-05 18:12:55</time>
      </trkpt>
      <trkpt lat="41.26373" lon="1.64082">
        <ele>100.8</ele>
        <time>2020-10-05 18:12:57</time>
      </trkpt>
      <trkpt lat="41.2637" lon="1.64077">
        <ele>101.4</ele>
        <time>2020-10-05 18:12:58</time>
      </trkpt>
      <trkpt lat="41.26365" lon="1.64067">
        <ele>102.8</ele>
        <time>2020-10-05 18:13:00</time>
      </trkpt>
      <trkpt lat="41.26357" lon="1.64052">
        <ele>104.2</ele>
        <time>2020-10-05 18:13:03</time>
      </trkpt>
      <trkpt lat="41.26354" lon="1.64047">
        <ele>104.6</ele>
        <time>2020-10-05 18:13:04</time>
      </trkpt>
      <trkpt lat="41.26352" lon="1.64042">
        <ele>105</ele>
        <time>2020-10-05 18:13:05</time>
      </trkpt>
      <trkpt lat="41.26347" lon="1.64033">
        <ele>105.4</ele>
        <time>2020-10-05 18:13:07</time>
      </trkpt>
      <trkpt lat="41.26342" lon="1.64023">
        <ele>106.6</ele>
        <time>2020-10-05 18:13:09</time>
      </trkpt>
      <trkpt lat="41.26338" lon="1.64012">
        <ele>107.6</ele>
        <time>2020-10-05 18:13:11</time>
      </trkpt>
      <trkpt lat="41.26337" lon="1.64006">
        <ele>107.8</ele>
        <time>2020-10-05 18:13:12</time>
      </trkpt>
      <trkpt lat="41.26336" lon="1.63992">
        <ele>108.4</ele>
        <time>2020-10-05 18:13:14</time>
      </trkpt>
      <trkpt lat="41.26338" lon="1.63986">
        <ele>108.8</ele>
        <time>2020-10-05 18:13:15</time>
      </trkpt>
      <trkpt lat="41.26348" lon="1.63972">
        <ele>109.4</ele>
        <time>2020-10-05 18:13:18</time>
      </trkpt>
      <trkpt lat="41.26356" lon="1.63964">
        <ele>110</ele>
        <time>2020-10-05 18:13:20</time>
      </trkpt>
      <trkpt lat="41.26368" lon="1.63949">
        <ele>111.2</ele>
        <time>2020-10-05 18:13:23</time>
      </trkpt>
      <trkpt lat="41.26376" lon="1.63938">
        <ele>112.2</ele>
        <time>2020-10-05 18:13:25</time>
      </trkpt>
      <trkpt lat="41.26387" lon="1.63921">
        <ele>113.6</ele>
        <time>2020-10-05 18:13:28</time>
      </trkpt>
      <trkpt lat="41.26394" lon="1.63908">
        <ele>114</ele>
        <time>2020-10-05 18:13:30</time>
      </trkpt>
      <trkpt lat="41.26418" lon="1.63855">
        <ele>114.6</ele>
        <time>2020-10-05 18:13:38</time>
      </trkpt>
      <trkpt lat="41.26436" lon="1.63826">
        <ele>114.6</ele>
        <time>2020-10-05 18:13:43</time>
      </trkpt>
      <trkpt lat="41.26444" lon="1.63815">
        <ele>114.8</ele>
        <time>2020-10-05 18:13:45</time>
      </trkpt>
      <trkpt lat="41.26447" lon="1.63809">
        <ele>114.8</ele>
        <time>2020-10-05 18:13:46</time>
      </trkpt>
      <trkpt lat="41.26453" lon="1.63789">
        <ele>115.2</ele>
        <time>2020-10-05 18:13:49</time>
      </trkpt>
      <trkpt lat="41.26453" lon="1.63782">
        <ele>115.4</ele>
        <time>2020-10-05 18:13:50</time>
      </trkpt>
      <trkpt lat="41.26453" lon="1.63774">
        <ele>115.8</ele>
        <time>2020-10-05 18:13:51</time>
      </trkpt>
      <trkpt lat="41.26452" lon="1.63759">
        <ele>116.8</ele>
        <time>2020-10-05 18:13:53</time>
      </trkpt>
      <trkpt lat="41.26452" lon="1.63752">
        <ele>117</ele>
        <time>2020-10-05 18:13:54</time>
      </trkpt>
      <trkpt lat="41.26453" lon="1.6373">
        <ele>117.8</ele>
        <time>2020-10-05 18:13:57</time>
      </trkpt>
      <trkpt lat="41.26451" lon="1.63694">
        <ele>118.4</ele>
        <time>2020-10-05 18:14:02</time>
      </trkpt>
      <trkpt lat="41.26449" lon="1.63673">
        <ele>119</ele>
        <time>2020-10-05 18:14:05</time>
      </trkpt>
      <trkpt lat="41.26444" lon="1.63652">
        <ele>119.6</ele>
        <time>2020-10-05 18:14:08</time>
      </trkpt>
      <trkpt lat="41.26438" lon="1.63625">
        <ele>120</ele>
        <time>2020-10-05 18:14:12</time>
      </trkpt>
      <trkpt lat="41.26427" lon="1.63591">
        <ele>121</ele>
        <time>2020-10-05 18:14:17</time>
      </trkpt>
      <trkpt lat="41.26425" lon="1.63584">
        <ele>121.2</ele>
        <time>2020-10-05 18:14:18</time>
      </trkpt>
      <trkpt lat="41.26408" lon="1.63551">
        <ele>122</ele>
        <time>2020-10-05 18:14:23</time>
      </trkpt>
      <trkpt lat="41.26384" lon="1.6352">
        <ele>122.2</ele>
        <time>2020-10-05 18:14:28</time>
      </trkpt>
      <trkpt lat="41.26345" lon="1.63482">
        <ele>121.6</ele>
        <time>2020-10-05 18:14:34</time>
      </trkpt>
      <trkpt lat="41.26323" lon="1.63461">
        <ele>120</ele>
        <time>2020-10-05 18:14:37</time>
      </trkpt>
      <trkpt lat="41.26292" lon="1.63431">
        <ele>118.6</ele>
        <time>2020-10-05 18:14:41</time>
      </trkpt>
      <trkpt lat="41.26276" lon="1.63416">
        <ele>117.4</ele>
        <time>2020-10-05 18:14:43</time>
      </trkpt>
      <trkpt lat="41.26259" lon="1.63401">
        <ele>115.4</ele>
        <time>2020-10-05 18:14:45</time>
      </trkpt>
      <trkpt lat="41.26251" lon="1.63394">
        <ele>114.8</ele>
        <time>2020-10-05 18:14:46</time>
      </trkpt>
      <trkpt lat="41.26241" lon="1.63389">
        <ele>114</ele>
        <time>2020-10-05 18:14:47</time>
      </trkpt>
      <trkpt lat="41.26222" lon="1.63381">
        <ele>112.6</ele>
        <time>2020-10-05 18:14:49</time>
      </trkpt>
      <trkpt lat="41.26203" lon="1.63372">
        <ele>111.8</ele>
        <time>2020-10-05 18:14:51</time>
      </trkpt>
      <trkpt lat="41.26194" lon="1.63365">
        <ele>111.4</ele>
        <time>2020-10-05 18:14:52</time>
      </trkpt>
      <trkpt lat="41.26171" lon="1.63343">
        <ele>110.2</ele>
        <time>2020-10-05 18:14:55</time>
      </trkpt>
      <trkpt lat="41.26166" lon="1.63334">
        <ele>109.8</ele>
        <time>2020-10-05 18:14:56</time>
      </trkpt>
      <trkpt lat="41.26168" lon="1.63313">
        <ele>108.8</ele>
        <time>2020-10-05 18:14:58</time>
      </trkpt>
      <trkpt lat="41.26181" lon="1.63301">
        <ele>108.2</ele>
        <time>2020-10-05 18:15:00</time>
      </trkpt>
      <trkpt lat="41.26199" lon="1.63301">
        <ele>108</ele>
        <time>2020-10-05 18:15:02</time>
      </trkpt>
      <trkpt lat="41.26209" lon="1.63303">
        <ele>107.8</ele>
        <time>2020-10-05 18:15:03</time>
      </trkpt>
      <trkpt lat="41.26219" lon="1.63306">
        <ele>107.6</ele>
        <time>2020-10-05 18:15:04</time>
      </trkpt>
      <trkpt lat="41.26249" lon="1.63315">
        <ele>107.2</ele>
        <time>2020-10-05 18:15:07</time>
      </trkpt>
      <trkpt lat="41.2627" lon="1.63325">
        <ele>106.6</ele>
        <time>2020-10-05 18:15:09</time>
      </trkpt>
      <trkpt lat="41.2629" lon="1.63337">
        <ele>105.6</ele>
        <time>2020-10-05 18:15:11</time>
      </trkpt>
      <trkpt lat="41.263" lon="1.63344">
        <ele>104.4</ele>
        <time>2020-10-05 18:15:12</time>
      </trkpt>
      <trkpt lat="41.26309" lon="1.63351">
        <ele>103.4</ele>
        <time>2020-10-05 18:15:13</time>
      </trkpt>
      <trkpt lat="41.26328" lon="1.63364">
        <ele>101.8</ele>
        <time>2020-10-05 18:15:15</time>
      </trkpt>
      <trkpt lat="41.26337" lon="1.6337">
        <ele>101.6</ele>
        <time>2020-10-05 18:15:16</time>
      </trkpt>
      <trkpt lat="41.26356" lon="1.6337">
        <ele>100.8</ele>
        <time>2020-10-05 18:15:18</time>
      </trkpt>
      <trkpt lat="41.26364" lon="1.63364">
        <ele>100.4</ele>
        <time>2020-10-05 18:15:19</time>
      </trkpt>
      <trkpt lat="41.26375" lon="1.63346">
        <ele>99.6</ele>
        <time>2020-10-05 18:15:21</time>
      </trkpt>
      <trkpt lat="41.2638" lon="1.63336">
        <ele>99.4</ele>
        <time>2020-10-05 18:15:22</time>
      </trkpt>
      <trkpt lat="41.2641" lon="1.63268">
        <ele>99.2</ele>
        <time>2020-10-05 18:15:29</time>
      </trkpt>
      <trkpt lat="41.26438" lon="1.63205">
        <ele>99.6</ele>
        <time>2020-10-05 18:15:36</time>
      </trkpt>
      <trkpt lat="41.26445" lon="1.63188">
        <ele>99.8</ele>
        <time>2020-10-05 18:15:38</time>
      </trkpt>
      <trkpt lat="41.26461" lon="1.63148">
        <ele>100.4</ele>
        <time>2020-10-05 18:15:43</time>
      </trkpt>
      <trkpt lat="41.26466" lon="1.63132">
        <ele>100.8</ele>
        <time>2020-10-05 18:15:45</time>
      </trkpt>
      <trkpt lat="41.26472" lon="1.631">
        <ele>101.4</ele>
        <time>2020-10-05 18:15:49</time>
      </trkpt>
      <trkpt lat="41.26475" lon="1.63076">
        <ele>102</ele>
        <time>2020-10-05 18:15:52</time>
      </trkpt>
      <trkpt lat="41.2648" lon="1.63044">
        <ele>102.4</ele>
        <time>2020-10-05 18:15:56</time>
      </trkpt>
      <trkpt lat="41.2649" lon="1.62989">
        <ele>103.6</ele>
        <time>2020-10-05 18:16:03</time>
      </trkpt>
      <trkpt lat="41.26492" lon="1.62981">
        <ele>103.8</ele>
        <time>2020-10-05 18:16:04</time>
      </trkpt>
      <trkpt lat="41.26505" lon="1.62935">
        <ele>104.6</ele>
        <time>2020-10-05 18:16:10</time>
      </trkpt>
      <trkpt lat="41.26514" lon="1.62905">
        <ele>104.6</ele>
        <time>2020-10-05 18:16:14</time>
      </trkpt>
      <trkpt lat="41.26533" lon="1.62842">
        <ele>105.6</ele>
        <time>2020-10-05 18:16:22</time>
      </trkpt>
      <trkpt lat="41.2654" lon="1.62819">
        <ele>106</ele>
        <time>2020-10-05 18:16:25</time>
      </trkpt>
      <trkpt lat="41.26558" lon="1.62758">
        <ele>106.8</ele>
        <time>2020-10-05 18:16:33</time>
      </trkpt>
      <trkpt lat="41.26565" lon="1.62735">
        <ele>107</ele>
        <time>2020-10-05 18:16:36</time>
      </trkpt>
      <trkpt lat="41.26584" lon="1.62674">
        <ele>107.8</ele>
        <time>2020-10-05 18:16:44</time>
      </trkpt>
      <trkpt lat="41.26586" lon="1.62666">
        <ele>108</ele>
        <time>2020-10-05 18:16:45</time>
      </trkpt>
      <trkpt lat="41.26591" lon="1.62643">
        <ele>108.8</ele>
        <time>2020-10-05 18:16:48</time>
      </trkpt>
      <trkpt lat="41.26597" lon="1.62604">
        <ele>109.2</ele>
        <time>2020-10-05 18:16:53</time>
      </trkpt>
      <trkpt lat="41.26605" lon="1.62551">
        <ele>110</ele>
        <time>2020-10-05 18:17:00</time>
      </trkpt>
      <trkpt lat="41.26609" lon="1.62522">
        <ele>110.4</ele>
        <time>2020-10-05 18:17:04</time>
      </trkpt>
      <trkpt lat="41.26611" lon="1.62508">
        <ele>111</ele>
        <time>2020-10-05 18:17:06</time>
      </trkpt>
      <trkpt lat="41.26616" lon="1.62473">
        <ele>112.2</ele>
        <time>2020-10-05 18:17:11</time>
      </trkpt>
      <trkpt lat="41.26618" lon="1.62459">
        <ele>112.6</ele>
        <time>2020-10-05 18:17:13</time>
      </trkpt>
      <trkpt lat="41.26618" lon="1.62437">
        <ele>113.8</ele>
        <time>2020-10-05 18:17:16</time>
      </trkpt>
      <trkpt lat="41.26615" lon="1.62417">
        <ele>114.2</ele>
        <time>2020-10-05 18:17:19</time>
      </trkpt>
      <trkpt lat="41.26604" lon="1.62367">
        <ele>114.8</ele>
        <time>2020-10-05 18:17:26</time>
      </trkpt>
      <trkpt lat="41.26603" lon="1.6236">
        <ele>115</ele>
        <time>2020-10-05 18:17:27</time>
      </trkpt>
      <trkpt lat="41.26597" lon="1.62324">
        <ele>116</ele>
        <time>2020-10-05 18:17:32</time>
      </trkpt>
      <trkpt lat="41.26596" lon="1.62303">
        <ele>116.6</ele>
        <time>2020-10-05 18:17:35</time>
      </trkpt>
      <trkpt lat="41.26595" lon="1.62288">
        <ele>117</ele>
        <time>2020-10-05 18:17:37</time>
      </trkpt>
      <trkpt lat="41.26593" lon="1.62228">
        <ele>118.2</ele>
        <time>2020-10-05 18:17:45</time>
      </trkpt>
      <trkpt lat="41.26593" lon="1.6222">
        <ele>118.4</ele>
        <time>2020-10-05 18:17:46</time>
      </trkpt>
      <trkpt lat="41.2659" lon="1.62143">
        <ele>118.2</ele>
        <time>2020-10-05 18:17:55</time>
      </trkpt>
      <trkpt lat="41.2659" lon="1.62125">
        <ele>118</ele>
        <time>2020-10-05 18:17:57</time>
      </trkpt>
      <trkpt lat="41.26587" lon="1.62051">
        <ele>117.4</ele>
        <time>2020-10-05 18:18:05</time>
      </trkpt>
      <trkpt lat="41.26587" lon="1.62042">
        <ele>117.2</ele>
        <time>2020-10-05 18:18:06</time>
      </trkpt>
      <trkpt lat="41.26586" lon="1.62032">
        <ele>117</ele>
        <time>2020-10-05 18:18:07</time>
      </trkpt>
      <trkpt lat="41.26583" lon="1.6196">
        <ele>116.4</ele>
        <time>2020-10-05 18:18:15</time>
      </trkpt>
      <trkpt lat="41.26583" lon="1.61951">
        <ele>116.4</ele>
        <time>2020-10-05 18:18:16</time>
      </trkpt>
      <trkpt lat="41.26587" lon="1.6188">
        <ele>116.2</ele>
        <time>2020-10-05 18:18:24</time>
      </trkpt>
      <trkpt lat="41.266" lon="1.61812">
        <ele>116.4</ele>
        <time>2020-10-05 18:18:32</time>
      </trkpt>
      <trkpt lat="41.26615" lon="1.61745">
        <ele>116.6</ele>
        <time>2020-10-05 18:18:40</time>
      </trkpt>
      <trkpt lat="41.26629" lon="1.6168">
        <ele>116.8</ele>
        <time>2020-10-05 18:18:48</time>
      </trkpt>
      <trkpt lat="41.26647" lon="1.61611">
        <ele>117.2</ele>
        <time>2020-10-05 18:18:57</time>
      </trkpt>
      <trkpt lat="41.2665" lon="1.61603">
        <ele>117.2</ele>
        <time>2020-10-05 18:18:58</time>
      </trkpt>
      <trkpt lat="41.26674" lon="1.61531">
        <ele>118</ele>
        <time>2020-10-05 18:19:08</time>
      </trkpt>
      <trkpt lat="41.26689" lon="1.61489">
        <ele>119.4</ele>
        <time>2020-10-05 18:19:14</time>
      </trkpt>
      <trkpt lat="41.26697" lon="1.61468">
        <ele>120</ele>
        <time>2020-10-05 18:19:17</time>
      </trkpt>
      <trkpt lat="41.26708" lon="1.6142">
        <ele>120.4</ele>
        <time>2020-10-05 18:19:24</time>
      </trkpt>
      <trkpt lat="41.2671" lon="1.61413">
        <ele>120.6</ele>
        <time>2020-10-05 18:19:25</time>
      </trkpt>
      <trkpt lat="41.26715" lon="1.61386">
        <ele>121.4</ele>
        <time>2020-10-05 18:19:29</time>
      </trkpt>
      <trkpt lat="41.26724" lon="1.61345">
        <ele>122.6</ele>
        <time>2020-10-05 18:19:35</time>
      </trkpt>
      <trkpt lat="41.26726" lon="1.61331">
        <ele>122.6</ele>
        <time>2020-10-05 18:19:37</time>
      </trkpt>
      <trkpt lat="41.26735" lon="1.61285">
        <ele>123.6</ele>
        <time>2020-10-05 18:19:44</time>
      </trkpt>
      <trkpt lat="41.2674" lon="1.61265">
        <ele>124.2</ele>
        <time>2020-10-05 18:19:47</time>
      </trkpt>
      <trkpt lat="41.26748" lon="1.61224">
        <ele>124.6</ele>
        <time>2020-10-05 18:19:53</time>
      </trkpt>
      <trkpt lat="41.26753" lon="1.61203">
        <ele>125.2</ele>
        <time>2020-10-05 18:19:56</time>
      </trkpt>
      <trkpt lat="41.26761" lon="1.61162">
        <ele>125.8</ele>
        <time>2020-10-05 18:20:02</time>
      </trkpt>
      <trkpt lat="41.26769" lon="1.61134">
        <ele>126.4</ele>
        <time>2020-10-05 18:20:06</time>
      </trkpt>
      <trkpt lat="41.26772" lon="1.6112">
        <ele>127.2</ele>
        <time>2020-10-05 18:20:08</time>
      </trkpt>
      <trkpt lat="41.26789" lon="1.61059">
        <ele>127.8</ele>
        <time>2020-10-05 18:20:17</time>
      </trkpt>
      <trkpt lat="41.26796" lon="1.61032">
        <ele>128.4</ele>
        <time>2020-10-05 18:20:21</time>
      </trkpt>
      <trkpt lat="41.26803" lon="1.61005">
        <ele>128.8</ele>
        <time>2020-10-05 18:20:25</time>
      </trkpt>
      <trkpt lat="41.26807" lon="1.60985">
        <ele>129.4</ele>
        <time>2020-10-05 18:20:28</time>
      </trkpt>
      <trkpt lat="41.26813" lon="1.60965">
        <ele>129.8</ele>
        <time>2020-10-05 18:20:31</time>
      </trkpt>
      <trkpt lat="41.26821" lon="1.60934">
        <ele>130.6</ele>
        <time>2020-10-05 18:20:36</time>
      </trkpt>
      <trkpt lat="41.26827" lon="1.60917">
        <ele>130.8</ele>
        <time>2020-10-05 18:20:39</time>
      </trkpt>
      <trkpt lat="41.26837" lon="1.60886">
        <ele>132</ele>
        <time>2020-10-05 18:20:45</time>
      </trkpt>
      <trkpt lat="41.26839" lon="1.60881">
        <ele>132.2</ele>
        <time>2020-10-05 18:20:46</time>
      </trkpt>
      <trkpt lat="41.26847" lon="1.60861">
        <ele>133</ele>
        <time>2020-10-05 18:20:50</time>
      </trkpt>
      <trkpt lat="41.26854" lon="1.6084">
        <ele>134.2</ele>
        <time>2020-10-05 18:20:54</time>
      </trkpt>
      <trkpt lat="41.26856" lon="1.60835">
        <ele>134.6</ele>
        <time>2020-10-05 18:20:55</time>
      </trkpt>
      <trkpt lat="41.2686" lon="1.60824">
        <ele>135.8</ele>
        <time>2020-10-05 18:20:57</time>
      </trkpt>
      <trkpt lat="41.26866" lon="1.60807">
        <ele>136.8</ele>
        <time>2020-10-05 18:21:00</time>
      </trkpt>
      <trkpt lat="41.26873" lon="1.6079">
        <ele>137.6</ele>
        <time>2020-10-05 18:21:03</time>
      </trkpt>
      <trkpt lat="41.26875" lon="1.60785">
        <ele>138</ele>
        <time>2020-10-05 18:21:04</time>
      </trkpt>
      <trkpt lat="41.26893" lon="1.6076">
        <ele>138.8</ele>
        <time>2020-10-05 18:21:09</time>
      </trkpt>
      <trkpt lat="41.26901" lon="1.60749">
        <ele>138.8</ele>
        <time>2020-10-05 18:21:11</time>
      </trkpt>
      <trkpt lat="41.26907" lon="1.60735">
        <ele>138.8</ele>
        <time>2020-10-05 18:21:13</time>
      </trkpt>
      <trkpt lat="41.2691" lon="1.60719">
        <ele>138.8</ele>
        <time>2020-10-05 18:21:15</time>
      </trkpt>
      <trkpt lat="41.26914" lon="1.60697">
        <ele>138.6</ele>
        <time>2020-10-05 18:21:18</time>
      </trkpt>
      <trkpt lat="41.2693" lon="1.60657">
        <ele>138.6</ele>
        <time>2020-10-05 18:21:24</time>
      </trkpt>
      <trkpt lat="41.26954" lon="1.6061">
        <ele>139</ele>
        <time>2020-10-05 18:21:32</time>
      </trkpt>
      <trkpt lat="41.2696" lon="1.60598">
        <ele>139.2</ele>
        <time>2020-10-05 18:21:34</time>
      </trkpt>
      <trkpt lat="41.26972" lon="1.60575">
        <ele>140.4</ele>
        <time>2020-10-05 18:21:38</time>
      </trkpt>
      <trkpt lat="41.26976" lon="1.6057">
        <ele>140.8</ele>
        <time>2020-10-05 18:21:39</time>
      </trkpt>
      <trkpt lat="41.26987" lon="1.60555">
        <ele>141.4</ele>
        <time>2020-10-05 18:21:42</time>
      </trkpt>
      <trkpt lat="41.2699" lon="1.6055">
        <ele>141.4</ele>
        <time>2020-10-05 18:21:43</time>
      </trkpt>
      <trkpt lat="41.26993" lon="1.60544">
        <ele>141.8</ele>
        <time>2020-10-05 18:21:44</time>
      </trkpt>
      <trkpt lat="41.27" lon="1.60525">
        <ele>142.2</ele>
        <time>2020-10-05 18:21:47</time>
      </trkpt>
      <trkpt lat="41.27005" lon="1.60512">
        <ele>142.4</ele>
        <time>2020-10-05 18:21:49</time>
      </trkpt>
      <trkpt lat="41.27014" lon="1.60493">
        <ele>142.6</ele>
        <time>2020-10-05 18:21:52</time>
      </trkpt>
      <trkpt lat="41.2702" lon="1.6048">
        <ele>142.8</ele>
        <time>2020-10-05 18:21:54</time>
      </trkpt>
      <trkpt lat="41.2704" lon="1.60443">
        <ele>143.6</ele>
        <time>2020-10-05 18:22:00</time>
      </trkpt>
      <trkpt lat="41.27065" lon="1.60393">
        <ele>144.4</ele>
        <time>2020-10-05 18:22:08</time>
      </trkpt>
      <trkpt lat="41.27071" lon="1.60381">
        <ele>144.8</ele>
        <time>2020-10-05 18:22:10</time>
      </trkpt>
      <trkpt lat="41.27102" lon="1.6032">
        <ele>145.8</ele>
        <time>2020-10-05 18:22:20</time>
      </trkpt>
      <trkpt lat="41.27105" lon="1.60314">
        <ele>145.8</ele>
        <time>2020-10-05 18:22:21</time>
      </trkpt>
      <trkpt lat="41.27132" lon="1.60262">
        <ele>146.8</ele>
        <time>2020-10-05 18:22:30</time>
      </trkpt>
      <trkpt lat="41.27138" lon="1.6025">
        <ele>147</ele>
        <time>2020-10-05 18:22:32</time>
      </trkpt>
      <trkpt lat="41.27164" lon="1.60206">
        <ele>147.8</ele>
        <time>2020-10-05 18:22:40</time>
      </trkpt>
      <trkpt lat="41.27167" lon="1.60201">
        <ele>148</ele>
        <time>2020-10-05 18:22:41</time>
      </trkpt>
      <trkpt lat="41.27175" lon="1.6019">
        <ele>148.4</ele>
        <time>2020-10-05 18:22:43</time>
      </trkpt>
      <trkpt lat="41.27182" lon="1.6017">
        <ele>148.6</ele>
        <time>2020-10-05 18:22:46</time>
      </trkpt>
      <trkpt lat="41.27178" lon="1.60139">
        <ele>148.6</ele>
        <time>2020-10-05 18:22:50</time>
      </trkpt>
      <trkpt lat="41.27176" lon="1.60123">
        <ele>148.8</ele>
        <time>2020-10-05 18:22:52</time>
      </trkpt>
      <trkpt lat="41.27178" lon="1.60107">
        <ele>148.8</ele>
        <time>2020-10-05 18:22:54</time>
      </trkpt>
      <trkpt lat="41.27197" lon="1.60041">
        <ele>147.6</ele>
        <time>2020-10-05 18:23:02</time>
      </trkpt>
      <trkpt lat="41.27207" lon="1.60008">
        <ele>146.8</ele>
        <time>2020-10-05 18:23:06</time>
      </trkpt>
      <trkpt lat="41.27221" lon="1.5996">
        <ele>146.8</ele>
        <time>2020-10-05 18:23:12</time>
      </trkpt>
      <trkpt lat="41.27239" lon="1.599">
        <ele>148</ele>
        <time>2020-10-05 18:23:20</time>
      </trkpt>
      <trkpt lat="41.27246" lon="1.59877">
        <ele>148.4</ele>
        <time>2020-10-05 18:23:23</time>
      </trkpt>
      <trkpt lat="41.27265" lon="1.59811">
        <ele>148.8</ele>
        <time>2020-10-05 18:23:31</time>
      </trkpt>
      <trkpt lat="41.27289" lon="1.59742">
        <ele>147.4</ele>
        <time>2020-10-05 18:23:38</time>
      </trkpt>
      <trkpt lat="41.27294" lon="1.59732">
        <ele>146.8</ele>
        <time>2020-10-05 18:23:39</time>
      </trkpt>
      <trkpt lat="41.27303" lon="1.5971">
        <ele>145.4</ele>
        <time>2020-10-05 18:23:41</time>
      </trkpt>
      <trkpt lat="41.27313" lon="1.59689">
        <ele>143.8</ele>
        <time>2020-10-05 18:23:43</time>
      </trkpt>
      <trkpt lat="41.27324" lon="1.59667">
        <ele>142.6</ele>
        <time>2020-10-05 18:23:45</time>
      </trkpt>
      <trkpt lat="41.27335" lon="1.59644">
        <ele>140.8</ele>
        <time>2020-10-05 18:23:47</time>
      </trkpt>
      <trkpt lat="41.27346" lon="1.59622">
        <ele>139.4</ele>
        <time>2020-10-05 18:23:49</time>
      </trkpt>
      <trkpt lat="41.27358" lon="1.59601">
        <ele>138.2</ele>
        <time>2020-10-05 18:23:51</time>
      </trkpt>
      <trkpt lat="41.27368" lon="1.5958">
        <ele>137</ele>
        <time>2020-10-05 18:23:53</time>
      </trkpt>
      <trkpt lat="41.27373" lon="1.5957">
        <ele>136</ele>
        <time>2020-10-05 18:23:54</time>
      </trkpt>
      <trkpt lat="41.27378" lon="1.5956">
        <ele>134.8</ele>
        <time>2020-10-05 18:23:55</time>
      </trkpt>
      <trkpt lat="41.27406" lon="1.59506">
        <ele>134.4</ele>
        <time>2020-10-05 18:24:01</time>
      </trkpt>
      <trkpt lat="41.27433" lon="1.59453">
        <ele>135</ele>
        <time>2020-10-05 18:24:08</time>
      </trkpt>
      <trkpt lat="41.27447" lon="1.59426">
        <ele>136</ele>
        <time>2020-10-05 18:24:12</time>
      </trkpt>
      <trkpt lat="41.27463" lon="1.59393">
        <ele>137</ele>
        <time>2020-10-05 18:24:17</time>
      </trkpt>
      <trkpt lat="41.2747" lon="1.5938">
        <ele>137.8</ele>
        <time>2020-10-05 18:24:19</time>
      </trkpt>
      <trkpt lat="41.27474" lon="1.59373">
        <ele>138.2</ele>
        <time>2020-10-05 18:24:20</time>
      </trkpt>
      <trkpt lat="41.2749" lon="1.5934">
        <ele>139.2</ele>
        <time>2020-10-05 18:24:25</time>
      </trkpt>
      <trkpt lat="41.2751" lon="1.59301">
        <ele>140</ele>
        <time>2020-10-05 18:24:31</time>
      </trkpt>
      <trkpt lat="41.27517" lon="1.59288">
        <ele>140.4</ele>
        <time>2020-10-05 18:24:33</time>
      </trkpt>
      <trkpt lat="41.27549" lon="1.59222">
        <ele>141.2</ele>
        <time>2020-10-05 18:24:43</time>
      </trkpt>
      <trkpt lat="41.27556" lon="1.59209">
        <ele>141.4</ele>
        <time>2020-10-05 18:24:45</time>
      </trkpt>
      <trkpt lat="41.27589" lon="1.59144">
        <ele>142.8</ele>
        <time>2020-10-05 18:24:55</time>
      </trkpt>
      <trkpt lat="41.27592" lon="1.59137">
        <ele>143</ele>
        <time>2020-10-05 18:24:56</time>
      </trkpt>
      <trkpt lat="41.27608" lon="1.59104">
        <ele>143.8</ele>
        <time>2020-10-05 18:25:01</time>
      </trkpt>
      <trkpt lat="41.27621" lon="1.59078">
        <ele>144.2</ele>
        <time>2020-10-05 18:25:05</time>
      </trkpt>
      <trkpt lat="41.27635" lon="1.59051">
        <ele>144.8</ele>
        <time>2020-10-05 18:25:09</time>
      </trkpt>
      <trkpt lat="41.27665" lon="1.5899">
        <ele>146</ele>
        <time>2020-10-05 18:25:18</time>
      </trkpt>
      <trkpt lat="41.27669" lon="1.58983">
        <ele>146.2</ele>
        <time>2020-10-05 18:25:19</time>
      </trkpt>
      <trkpt lat="41.27701" lon="1.58919">
        <ele>146.4</ele>
        <time>2020-10-05 18:25:28</time>
      </trkpt>
      <trkpt lat="41.27715" lon="1.58891">
        <ele>146.6</ele>
        <time>2020-10-05 18:25:32</time>
      </trkpt>
      <trkpt lat="41.27747" lon="1.58828">
        <ele>146.6</ele>
        <time>2020-10-05 18:25:41</time>
      </trkpt>
      <trkpt lat="41.27751" lon="1.5882">
        <ele>146.8</ele>
        <time>2020-10-05 18:25:42</time>
      </trkpt>
      <trkpt lat="41.27754" lon="1.58813">
        <ele>147</ele>
        <time>2020-10-05 18:25:43</time>
      </trkpt>
      <trkpt lat="41.27772" lon="1.58778">
        <ele>147.4</ele>
        <time>2020-10-05 18:25:48</time>
      </trkpt>
      <trkpt lat="41.27782" lon="1.58767">
        <ele>147.4</ele>
        <time>2020-10-05 18:25:50</time>
      </trkpt>
      <trkpt lat="41.27792" lon="1.58757">
        <ele>147.6</ele>
        <time>2020-10-05 18:25:52</time>
      </trkpt>
      <trkpt lat="41.27799" lon="1.58744">
        <ele>147.6</ele>
        <time>2020-10-05 18:25:54</time>
      </trkpt>
      <trkpt lat="41.27803" lon="1.58728">
        <ele>147.6</ele>
        <time>2020-10-05 18:25:56</time>
      </trkpt>
      <trkpt lat="41.27807" lon="1.58711">
        <ele>147.8</ele>
        <time>2020-10-05 18:25:58</time>
      </trkpt>
      <trkpt lat="41.2781" lon="1.58704">
        <ele>147.8</ele>
        <time>2020-10-05 18:25:59</time>
      </trkpt>
      <trkpt lat="41.27817" lon="1.58689">
        <ele>147.8</ele>
        <time>2020-10-05 18:26:01</time>
      </trkpt>
      <trkpt lat="41.27838" lon="1.58646">
        <ele>148</ele>
        <time>2020-10-05 18:26:07</time>
      </trkpt>
      <trkpt lat="41.27869" lon="1.58584">
        <ele>148.2</ele>
        <time>2020-10-05 18:26:16</time>
      </trkpt>
      <trkpt lat="41.27876" lon="1.58571">
        <ele>148.4</ele>
        <time>2020-10-05 18:26:18</time>
      </trkpt>
      <trkpt lat="41.27906" lon="1.5851">
        <ele>148.8</ele>
        <time>2020-10-05 18:26:27</time>
      </trkpt>
      <trkpt lat="41.27936" lon="1.58449">
        <ele>149.8</ele>
        <time>2020-10-05 18:26:36</time>
      </trkpt>
      <trkpt lat="41.27943" lon="1.58436">
        <ele>150.2</ele>
        <time>2020-10-05 18:26:38</time>
      </trkpt>
      <trkpt lat="41.27962" lon="1.58398">
        <ele>151</ele>
        <time>2020-10-05 18:26:44</time>
      </trkpt>
      <trkpt lat="41.27971" lon="1.58379">
        <ele>152</ele>
        <time>2020-10-05 18:26:47</time>
      </trkpt>
      <trkpt lat="41.27978" lon="1.58366">
        <ele>152.4</ele>
        <time>2020-10-05 18:26:49</time>
      </trkpt>
      <trkpt lat="41.27994" lon="1.58333">
        <ele>153</ele>
        <time>2020-10-05 18:26:54</time>
      </trkpt>
      <trkpt lat="41.28018" lon="1.58286">
        <ele>154.2</ele>
        <time>2020-10-05 18:27:01</time>
      </trkpt>
      <trkpt lat="41.28045" lon="1.58233">
        <ele>155.2</ele>
        <time>2020-10-05 18:27:09</time>
      </trkpt>
      <trkpt lat="41.28062" lon="1.582">
        <ele>156.8</ele>
        <time>2020-10-05 18:27:14</time>
      </trkpt>
      <trkpt lat="41.28079" lon="1.58168">
        <ele>157.6</ele>
        <time>2020-10-05 18:27:19</time>
      </trkpt>
      <trkpt lat="41.28082" lon="1.58161">
        <ele>158</ele>
        <time>2020-10-05 18:27:20</time>
      </trkpt>
      <trkpt lat="41.28109" lon="1.58112">
        <ele>159</ele>
        <time>2020-10-05 18:27:27</time>
      </trkpt>
      <trkpt lat="41.28113" lon="1.58104">
        <ele>159</ele>
        <time>2020-10-05 18:27:28</time>
      </trkpt>
      <trkpt lat="41.28146" lon="1.58044">
        <ele>159</ele>
        <time>2020-10-05 18:27:36</time>
      </trkpt>
      <trkpt lat="41.28165" lon="1.58035">
        <ele>159</ele>
        <time>2020-10-05 18:27:39</time>
      </trkpt>
      <trkpt lat="41.28185" lon="1.58046">
        <ele>158.4</ele>
        <time>2020-10-05 18:27:42</time>
      </trkpt>
      <trkpt lat="41.28191" lon="1.58053">
        <ele>158</ele>
        <time>2020-10-05 18:27:43</time>
      </trkpt>
      <trkpt lat="41.28211" lon="1.58071">
        <ele>157.6</ele>
        <time>2020-10-05 18:27:46</time>
      </trkpt>
      <trkpt lat="41.28231" lon="1.58087">
        <ele>157.2</ele>
        <time>2020-10-05 18:27:49</time>
      </trkpt>
      <trkpt lat="41.2826" lon="1.58103">
        <ele>156.6</ele>
        <time>2020-10-05 18:27:53</time>
      </trkpt>
      <trkpt lat="41.28267" lon="1.58105">
        <ele>156.4</ele>
        <time>2020-10-05 18:27:54</time>
      </trkpt>
      <trkpt lat="41.28274" lon="1.58107">
        <ele>156.2</ele>
        <time>2020-10-05 18:27:55</time>
      </trkpt>
      <trkpt lat="41.28304" lon="1.58111">
        <ele>156.2</ele>
        <time>2020-10-05 18:27:59</time>
      </trkpt>
      <trkpt lat="41.28339" lon="1.58109">
        <ele>156.2</ele>
        <time>2020-10-05 18:28:04</time>
      </trkpt>
      <trkpt lat="41.28391" lon="1.58096">
        <ele>156.4</ele>
        <time>2020-10-05 18:28:12</time>
      </trkpt>
      <trkpt lat="41.28417" lon="1.58084">
        <ele>157.6</ele>
        <time>2020-10-05 18:28:17</time>
      </trkpt>
      <trkpt lat="41.28426" lon="1.58079">
        <ele>158</ele>
        <time>2020-10-05 18:28:19</time>
      </trkpt>
      <trkpt lat="41.28438" lon="1.58071">
        <ele>158.8</ele>
        <time>2020-10-05 18:28:22</time>
      </trkpt>
      <trkpt lat="41.28442" lon="1.58068">
        <ele>159</ele>
        <time>2020-10-05 18:28:23</time>
      </trkpt>
      <trkpt lat="41.28453" lon="1.58061">
        <ele>159.8</ele>
        <time>2020-10-05 18:28:26</time>
      </trkpt>
      <trkpt lat="41.28468" lon="1.58051">
        <ele>160.2</ele>
        <time>2020-10-05 18:28:30</time>
      </trkpt>
      <trkpt lat="41.28479" lon="1.58043">
        <ele>161</ele>
        <time>2020-10-05 18:28:33</time>
      </trkpt>
      <trkpt lat="41.2849" lon="1.58039">
        <ele>162.4</ele>
        <time>2020-10-05 18:28:36</time>
      </trkpt>
      <trkpt lat="41.28494" lon="1.58038">
        <ele>162.6</ele>
        <time>2020-10-05 18:28:37</time>
      </trkpt>
      <trkpt lat="41.28502" lon="1.58039">
        <ele>163.8</ele>
        <time>2020-10-05 18:28:39</time>
      </trkpt>
      <trkpt lat="41.2851" lon="1.5804">
        <ele>164.2</ele>
        <time>2020-10-05 18:28:41</time>
      </trkpt>
      <trkpt lat="41.28525" lon="1.58043">
        <ele>164.8</ele>
        <time>2020-10-05 18:28:45</time>
      </trkpt>
      <trkpt lat="41.28537" lon="1.58044">
        <ele>166</ele>
        <time>2020-10-05 18:28:48</time>
      </trkpt>
      <trkpt lat="41.28548" lon="1.58044">
        <ele>167</ele>
        <time>2020-10-05 18:28:51</time>
      </trkpt>
      <trkpt lat="41.2856" lon="1.58042">
        <ele>168.2</ele>
        <time>2020-10-05 18:28:54</time>
      </trkpt>
      <trkpt lat="41.28563" lon="1.58041">
        <ele>168.6</ele>
        <time>2020-10-05 18:28:55</time>
      </trkpt>
      <trkpt lat="41.28571" lon="1.58039">
        <ele>169.2</ele>
        <time>2020-10-05 18:28:57</time>
      </trkpt>
      <trkpt lat="41.28586" lon="1.58035">
        <ele>170.4</ele>
        <time>2020-10-05 18:29:01</time>
      </trkpt>
      <trkpt lat="41.28594" lon="1.58033">
        <ele>170.8</ele>
        <time>2020-10-05 18:29:03</time>
      </trkpt>
      <trkpt lat="41.2861" lon="1.5803">
        <ele>171.6</ele>
        <time>2020-10-05 18:29:07</time>
      </trkpt>
      <trkpt lat="41.28621" lon="1.58027">
        <ele>172.8</ele>
        <time>2020-10-05 18:29:10</time>
      </trkpt>
      <trkpt lat="41.28625" lon="1.58026">
        <ele>173.2</ele>
        <time>2020-10-05 18:29:11</time>
      </trkpt>
      <trkpt lat="41.28642" lon="1.58026">
        <ele>173.8</ele>
        <time>2020-10-05 18:29:15</time>
      </trkpt>
      <trkpt lat="41.28646" lon="1.58026">
        <ele>174</ele>
        <time>2020-10-05 18:29:16</time>
      </trkpt>
      <trkpt lat="41.28671" lon="1.5803">
        <ele>174.4</ele>
        <time>2020-10-05 18:29:22</time>
      </trkpt>
      <trkpt lat="41.28675" lon="1.58032">
        <ele>174.4</ele>
        <time>2020-10-05 18:29:23</time>
      </trkpt>
      <trkpt lat="41.28683" lon="1.58036">
        <ele>175</ele>
        <time>2020-10-05 18:29:25</time>
      </trkpt>
      <trkpt lat="41.28705" lon="1.58052">
        <ele>175.8</ele>
        <time>2020-10-05 18:29:31</time>
      </trkpt>
      <trkpt lat="41.28712" lon="1.58059">
        <ele>176.2</ele>
        <time>2020-10-05 18:29:33</time>
      </trkpt>
      <trkpt lat="41.28722" lon="1.58069">
        <ele>177</ele>
        <time>2020-10-05 18:29:36</time>
      </trkpt>
      <trkpt lat="41.28726" lon="1.58072">
        <ele>177.2</ele>
        <time>2020-10-05 18:29:37</time>
      </trkpt>
      <trkpt lat="41.2873" lon="1.58075">
        <ele>177.4</ele>
        <time>2020-10-05 18:29:38</time>
      </trkpt>
      <trkpt lat="41.28741" lon="1.58083">
        <ele>178.2</ele>
        <time>2020-10-05 18:29:41</time>
      </trkpt>
      <trkpt lat="41.28745" lon="1.58086">
        <ele>178.4</ele>
        <time>2020-10-05 18:29:42</time>
      </trkpt>
      <trkpt lat="41.28758" lon="1.5809">
        <ele>178.8</ele>
        <time>2020-10-05 18:29:45</time>
      </trkpt>
      <trkpt lat="41.28775" lon="1.58094">
        <ele>179</ele>
        <time>2020-10-05 18:29:49</time>
      </trkpt>
      <trkpt lat="41.28779" lon="1.58095">
        <ele>179.4</ele>
        <time>2020-10-05 18:29:50</time>
      </trkpt>
      <trkpt lat="41.28792" lon="1.58094">
        <ele>179.8</ele>
        <time>2020-10-05 18:29:53</time>
      </trkpt>
      <trkpt lat="41.28814" lon="1.58088">
        <ele>180.4</ele>
        <time>2020-10-05 18:29:58</time>
      </trkpt>
      <trkpt lat="41.28823" lon="1.58085">
        <ele>180.8</ele>
        <time>2020-10-05 18:30:00</time>
      </trkpt>
      <trkpt lat="41.2884" lon="1.58079">
        <ele>181.6</ele>
        <time>2020-10-05 18:30:04</time>
      </trkpt>
      <trkpt lat="41.28848" lon="1.58075">
        <ele>181.6</ele>
        <time>2020-10-05 18:30:06</time>
      </trkpt>
      <trkpt lat="41.28868" lon="1.58067">
        <ele>182.4</ele>
        <time>2020-10-05 18:30:11</time>
      </trkpt>
      <trkpt lat="41.28872" lon="1.58065">
        <ele>182.6</ele>
        <time>2020-10-05 18:30:12</time>
      </trkpt>
      <trkpt lat="41.2888" lon="1.58062">
        <ele>182.8</ele>
        <time>2020-10-05 18:30:14</time>
      </trkpt>
      <trkpt lat="41.28896" lon="1.58055">
        <ele>183</ele>
        <time>2020-10-05 18:30:18</time>
      </trkpt>
      <trkpt lat="41.28983" lon="1.58057">
        <ele>187.4</ele>
        <time>2020-10-05 18:36:26</time>
      </trkpt>
      <trkpt lat="41.28986" lon="1.58059">
        <ele>187.4</ele>
        <time>2020-10-05 18:36:27</time>
      </trkpt>
      <trkpt lat="41.29009" lon="1.58073">
        <ele>187</ele>
        <time>2020-10-05 18:36:33</time>
      </trkpt>
      <trkpt lat="41.29022" lon="1.58082">
        <ele>186.6</ele>
        <time>2020-10-05 18:36:36</time>
      </trkpt>
      <trkpt lat="41.29031" lon="1.58087">
        <ele>186.4</ele>
        <time>2020-10-05 18:36:38</time>
      </trkpt>
      <trkpt lat="41.29036" lon="1.58089">
        <ele>186.2</ele>
        <time>2020-10-05 18:36:39</time>
      </trkpt>
      <trkpt lat="41.29047" lon="1.58092">
        <ele>185.8</ele>
        <time>2020-10-05 18:36:41</time>
      </trkpt>
      <trkpt lat="41.29063" lon="1.58091">
        <ele>185.6</ele>
        <time>2020-10-05 18:36:44</time>
      </trkpt>
      <trkpt lat="41.2908" lon="1.58081">
        <ele>185.2</ele>
        <time>2020-10-05 18:36:47</time>
      </trkpt>
      <trkpt lat="41.2909" lon="1.58072">
        <ele>184.8</ele>
        <time>2020-10-05 18:36:49</time>
      </trkpt>
      <trkpt lat="41.291" lon="1.58061">
        <ele>184.2</ele>
        <time>2020-10-05 18:36:51</time>
      </trkpt>
      <trkpt lat="41.29123" lon="1.58039">
        <ele>182.8</ele>
        <time>2020-10-05 18:36:55</time>
      </trkpt>
      <trkpt lat="41.29135" lon="1.58027">
        <ele>182.2</ele>
        <time>2020-10-05 18:36:57</time>
      </trkpt>
      <trkpt lat="41.29148" lon="1.58018">
        <ele>181.6</ele>
        <time>2020-10-05 18:36:59</time>
      </trkpt>
      <trkpt lat="41.29167" lon="1.58005">
        <ele>180.6</ele>
        <time>2020-10-05 18:37:02</time>
      </trkpt>
      <trkpt lat="41.29216" lon="1.57974">
        <ele>179.8</ele>
        <time>2020-10-05 18:37:10</time>
      </trkpt>
      <trkpt lat="41.29222" lon="1.5797">
        <ele>179.8</ele>
        <time>2020-10-05 18:37:11</time>
      </trkpt>
      <trkpt lat="41.29274" lon="1.57935">
        <ele>180.6</ele>
        <time>2020-10-05 18:37:20</time>
      </trkpt>
      <trkpt lat="41.29307" lon="1.57913">
        <ele>181.6</ele>
        <time>2020-10-05 18:37:27</time>
      </trkpt>
      <trkpt lat="41.29311" lon="1.57911">
        <ele>181.8</ele>
        <time>2020-10-05 18:37:28</time>
      </trkpt>
      <trkpt lat="41.29324" lon="1.57902">
        <ele>183</ele>
        <time>2020-10-05 18:37:31</time>
      </trkpt>
      <trkpt lat="41.29335" lon="1.57894">
        <ele>184.2</ele>
        <time>2020-10-05 18:37:34</time>
      </trkpt>
      <trkpt lat="41.29338" lon="1.57891">
        <ele>184.6</ele>
        <time>2020-10-05 18:37:35</time>
      </trkpt>
      <trkpt lat="41.29346" lon="1.57886">
        <ele>185.6</ele>
        <time>2020-10-05 18:37:37</time>
      </trkpt>
      <trkpt lat="41.29357" lon="1.57879">
        <ele>186.8</ele>
        <time>2020-10-05 18:37:40</time>
      </trkpt>
      <trkpt lat="41.29365" lon="1.57876">
        <ele>187.8</ele>
        <time>2020-10-05 18:37:42</time>
      </trkpt>
      <trkpt lat="41.29369" lon="1.57874">
        <ele>188.2</ele>
        <time>2020-10-05 18:37:43</time>
      </trkpt>
      <trkpt lat="41.29378" lon="1.5787">
        <ele>189.4</ele>
        <time>2020-10-05 18:37:45</time>
      </trkpt>
      <trkpt lat="41.29391" lon="1.57863">
        <ele>190.4</ele>
        <time>2020-10-05 18:37:48</time>
      </trkpt>
      <trkpt lat="41.29405" lon="1.57855">
        <ele>191.4</ele>
        <time>2020-10-05 18:37:51</time>
      </trkpt>
      <trkpt lat="41.2941" lon="1.57852">
        <ele>191.6</ele>
        <time>2020-10-05 18:37:52</time>
      </trkpt>
      <trkpt lat="41.29417" lon="1.57843">
        <ele>191.8</ele>
        <time>2020-10-05 18:37:54</time>
      </trkpt>
      <trkpt lat="41.29431" lon="1.57833">
        <ele>191.8</ele>
        <time>2020-10-05 18:37:57</time>
      </trkpt>
      <trkpt lat="41.29437" lon="1.5783">
        <ele>191.8</ele>
        <time>2020-10-05 18:37:58</time>
      </trkpt>
      <trkpt lat="41.29453" lon="1.57823">
        <ele>191.8</ele>
        <time>2020-10-05 18:38:01</time>
      </trkpt>
      <trkpt lat="41.29464" lon="1.57819">
        <ele>191.6</ele>
        <time>2020-10-05 18:38:03</time>
      </trkpt>
      <trkpt lat="41.29472" lon="1.57825">
        <ele>191.4</ele>
        <time>2020-10-05 18:38:05</time>
      </trkpt>
      <trkpt lat="41.29479" lon="1.57843">
        <ele>191.2</ele>
        <time>2020-10-05 18:38:08</time>
      </trkpt>
      <trkpt lat="41.29487" lon="1.57886">
        <ele>190.2</ele>
        <time>2020-10-05 18:38:12</time>
      </trkpt>
      <trkpt lat="41.295" lon="1.5794">
        <ele>189.4</ele>
        <time>2020-10-05 18:38:16</time>
      </trkpt>
      <trkpt lat="41.29505" lon="1.57954">
        <ele>188.8</ele>
        <time>2020-10-05 18:38:17</time>
      </trkpt>
      <trkpt lat="41.29517" lon="1.57982">
        <ele>187.4</ele>
        <time>2020-10-05 18:38:19</time>
      </trkpt>
      <trkpt lat="41.29525" lon="1.57995">
        <ele>186.6</ele>
        <time>2020-10-05 18:38:20</time>
      </trkpt>
      <trkpt lat="41.29534" lon="1.58007">
        <ele>185.6</ele>
        <time>2020-10-05 18:38:21</time>
      </trkpt>
      <trkpt lat="41.29544" lon="1.58018">
        <ele>184.4</ele>
        <time>2020-10-05 18:38:22</time>
      </trkpt>
      <trkpt lat="41.29563" lon="1.58039">
        <ele>182.2</ele>
        <time>2020-10-05 18:38:24</time>
      </trkpt>
      <trkpt lat="41.29572" lon="1.58051">
        <ele>180.8</ele>
        <time>2020-10-05 18:38:25</time>
      </trkpt>
      <trkpt lat="41.29581" lon="1.58062">
        <ele>179.6</ele>
        <time>2020-10-05 18:38:26</time>
      </trkpt>
      <trkpt lat="41.29599" lon="1.58084">
        <ele>177.6</ele>
        <time>2020-10-05 18:38:28</time>
      </trkpt>
      <trkpt lat="41.29607" lon="1.58095">
        <ele>176.6</ele>
        <time>2020-10-05 18:38:29</time>
      </trkpt>
      <trkpt lat="41.29624" lon="1.58117">
        <ele>174.8</ele>
        <time>2020-10-05 18:38:31</time>
      </trkpt>
      <trkpt lat="41.29633" lon="1.58127">
        <ele>174.6</ele>
        <time>2020-10-05 18:38:32</time>
      </trkpt>
      <trkpt lat="41.29677" lon="1.58176">
        <ele>174.2</ele>
        <time>2020-10-05 18:38:37</time>
      </trkpt>
      <trkpt lat="41.29714" lon="1.58209">
        <ele>173.8</ele>
        <time>2020-10-05 18:38:41</time>
      </trkpt>
      <trkpt lat="41.29732" lon="1.58225">
        <ele>173.8</ele>
        <time>2020-10-05 18:38:43</time>
      </trkpt>
      <trkpt lat="41.29783" lon="1.58274">
        <ele>173.8</ele>
        <time>2020-10-05 18:38:49</time>
      </trkpt>
      <trkpt lat="41.29799" lon="1.58292">
        <ele>173.8</ele>
        <time>2020-10-05 18:38:51</time>
      </trkpt>
      <trkpt lat="41.29842" lon="1.58349">
        <ele>174</ele>
        <time>2020-10-05 18:38:57</time>
      </trkpt>
      <trkpt lat="41.2986" lon="1.5838">
        <ele>174</ele>
        <time>2020-10-05 18:39:00</time>
      </trkpt>
      <trkpt lat="41.29867" lon="1.58388">
        <ele>174</ele>
        <time>2020-10-05 18:39:01</time>
      </trkpt>
      <trkpt lat="41.29882" lon="1.58394">
        <ele>174</ele>
        <time>2020-10-05 18:39:03</time>
      </trkpt>
      <trkpt lat="41.29905" lon="1.58395">
        <ele>173.8</ele>
        <time>2020-10-05 18:39:06</time>
      </trkpt>
      <trkpt lat="41.29924" lon="1.58415">
        <ele>173.6</ele>
        <time>2020-10-05 18:39:09</time>
      </trkpt>
      <trkpt lat="41.29951" lon="1.58426">
        <ele>173.4</ele>
        <time>2020-10-05 18:39:12</time>
      </trkpt>
      <trkpt lat="41.29961" lon="1.58429">
        <ele>173.2</ele>
        <time>2020-10-05 18:39:13</time>
      </trkpt>
      <trkpt lat="41.3" lon="1.58437">
        <ele>172.6</ele>
        <time>2020-10-05 18:39:17</time>
      </trkpt>
      <trkpt lat="41.30006" lon="1.58439">
        <ele>172</ele>
        <time>2020-10-05 18:39:18</time>
      </trkpt>
      <trkpt lat="41.30011" lon="1.58442">
        <ele>171.2</ele>
        <time>2020-10-05 18:39:19</time>
      </trkpt>
      <trkpt lat="41.30013" lon="1.58447">
        <ele>170.2</ele>
        <time>2020-10-05 18:39:20</time>
      </trkpt>
      <trkpt lat="41.30013" lon="1.58452">
        <ele>169.2</ele>
        <time>2020-10-05 18:39:21</time>
      </trkpt>
      <trkpt lat="41.30009" lon="1.58465">
        <ele>167.8</ele>
        <time>2020-10-05 18:39:23</time>
      </trkpt>
      <trkpt lat="41.29995" lon="1.5849">
        <ele>167</ele>
        <time>2020-10-05 18:39:26</time>
      </trkpt>
      <trkpt lat="41.29982" lon="1.585">
        <ele>166.8</ele>
        <time>2020-10-05 18:39:28</time>
      </trkpt>
      <trkpt lat="41.29976" lon="1.58501">
        <ele>166.6</ele>
        <time>2020-10-05 18:39:29</time>
      </trkpt>
      <trkpt lat="41.29966" lon="1.58499">
        <ele>165.6</ele>
        <time>2020-10-05 18:39:31</time>
      </trkpt>
      <trkpt lat="41.2996" lon="1.58499">
        <ele>165</ele>
        <time>2020-10-05 18:39:32</time>
      </trkpt>
      <trkpt lat="41.29955" lon="1.585">
        <ele>164.6</ele>
        <time>2020-10-05 18:39:33</time>
      </trkpt>
      <trkpt lat="41.29952" lon="1.58504">
        <ele>164.4</ele>
        <time>2020-10-05 18:39:34</time>
      </trkpt>
      <trkpt lat="41.29953" lon="1.58515">
        <ele>164.2</ele>
        <time>2020-10-05 18:39:36</time>
      </trkpt>
      <trkpt lat="41.29962" lon="1.58529">
        <ele>164.2</ele>
        <time>2020-10-05 18:39:39</time>
      </trkpt>
      <trkpt lat="41.29965" lon="1.58533">
        <ele>164.2</ele>
        <time>2020-10-05 18:39:40</time>
      </trkpt>
      <trkpt lat="41.29975" lon="1.58548">
        <ele>164.8</ele>
        <time>2020-10-05 18:39:43</time>
      </trkpt>
      <trkpt lat="41.29982" lon="1.58559">
        <ele>165.8</ele>
        <time>2020-10-05 18:39:45</time>
      </trkpt>
      <trkpt lat="41.29986" lon="1.58564">
        <ele>166.4</ele>
        <time>2020-10-05 18:39:46</time>
      </trkpt>
      <trkpt lat="41.29992" lon="1.58576">
        <ele>167.4</ele>
        <time>2020-10-05 18:39:48</time>
      </trkpt>
      <trkpt lat="41.29997" lon="1.58587">
        <ele>168.4</ele>
        <time>2020-10-05 18:39:50</time>
      </trkpt>
      <trkpt lat="41.30001" lon="1.58593">
        <ele>168.8</ele>
        <time>2020-10-05 18:39:51</time>
      </trkpt>
      <trkpt lat="41.30011" lon="1.58611">
        <ele>169.8</ele>
        <time>2020-10-05 18:39:54</time>
      </trkpt>
      <trkpt lat="41.30016" lon="1.58625">
        <ele>170.8</ele>
        <time>2020-10-05 18:39:56</time>
      </trkpt>
      <trkpt lat="41.30019" lon="1.58633">
        <ele>171</ele>
        <time>2020-10-05 18:39:57</time>
      </trkpt>
      <trkpt lat="41.30021" lon="1.58641">
        <ele>172.2</ele>
        <time>2020-10-05 18:39:58</time>
      </trkpt>
      <trkpt lat="41.30028" lon="1.58665">
        <ele>173.6</ele>
        <time>2020-10-05 18:40:01</time>
      </trkpt>
      <trkpt lat="41.3003" lon="1.58682">
        <ele>174.2</ele>
        <time>2020-10-05 18:40:03</time>
      </trkpt>
      <trkpt lat="41.30032" lon="1.58701">
        <ele>174.6</ele>
        <time>2020-10-05 18:40:05</time>
      </trkpt>
      <trkpt lat="41.30038" lon="1.58749">
        <ele>175</ele>
        <time>2020-10-05 18:40:10</time>
      </trkpt>
      <trkpt lat="41.3005" lon="1.58796">
        <ele>175.2</ele>
        <time>2020-10-05 18:40:15</time>
      </trkpt>
      <trkpt lat="41.30071" lon="1.58864">
        <ele>175.4</ele>
        <time>2020-10-05 18:40:22</time>
      </trkpt>
      <trkpt lat="41.30077" lon="1.58884">
        <ele>175.4</ele>
        <time>2020-10-05 18:40:24</time>
      </trkpt>
      <trkpt lat="41.30082" lon="1.58904">
        <ele>175.8</ele>
        <time>2020-10-05 18:40:26</time>
      </trkpt>
      <trkpt lat="41.30098" lon="1.58976">
        <ele>176</ele>
        <time>2020-10-05 18:40:33</time>
      </trkpt>
      <trkpt lat="41.301" lon="1.58986">
        <ele>176.2</ele>
        <time>2020-10-05 18:40:34</time>
      </trkpt>
      <trkpt lat="41.30118" lon="1.59058">
        <ele>176.8</ele>
        <time>2020-10-05 18:40:41</time>
      </trkpt>
      <trkpt lat="41.30145" lon="1.59123">
        <ele>177.6</ele>
        <time>2020-10-05 18:40:48</time>
      </trkpt>
      <trkpt lat="41.30158" lon="1.59162">
        <ele>177.8</ele>
        <time>2020-10-05 18:40:52</time>
      </trkpt>
      <trkpt lat="41.3016" lon="1.59172">
        <ele>178.2</ele>
        <time>2020-10-05 18:40:53</time>
      </trkpt>
      <trkpt lat="41.30163" lon="1.59192">
        <ele>179</ele>
        <time>2020-10-05 18:40:55</time>
      </trkpt>
      <trkpt lat="41.30171" lon="1.59234">
        <ele>180.2</ele>
        <time>2020-10-05 18:40:59</time>
      </trkpt>
      <trkpt lat="41.30177" lon="1.59267">
        <ele>180.8</ele>
        <time>2020-10-05 18:41:02</time>
      </trkpt>
      <trkpt lat="41.30177" lon="1.59279">
        <ele>180.8</ele>
        <time>2020-10-05 18:41:03</time>
      </trkpt>
      <trkpt lat="41.30178" lon="1.59361">
        <ele>180.8</ele>
        <time>2020-10-05 18:41:10</time>
      </trkpt>
      <trkpt lat="41.30178" lon="1.59373">
        <ele>180.8</ele>
        <time>2020-10-05 18:41:11</time>
      </trkpt>
      <trkpt lat="41.30172" lon="1.59433">
        <ele>180.8</ele>
        <time>2020-10-05 18:41:16</time>
      </trkpt>
      <trkpt lat="41.30154" lon="1.59506">
        <ele>180.2</ele>
        <time>2020-10-05 18:41:22</time>
      </trkpt>
      <trkpt lat="41.30143" lon="1.59556">
        <ele>179.8</ele>
        <time>2020-10-05 18:41:26</time>
      </trkpt>
      <trkpt lat="41.30141" lon="1.59569">
        <ele>179.4</ele>
        <time>2020-10-05 18:41:27</time>
      </trkpt>
      <trkpt lat="41.30141" lon="1.59582">
        <ele>179.2</ele>
        <time>2020-10-05 18:41:28</time>
      </trkpt>
      <trkpt lat="41.30146" lon="1.5962">
        <ele>178.6</ele>
        <time>2020-10-05 18:41:31</time>
      </trkpt>
      <trkpt lat="41.30159" lon="1.59653">
        <ele>177.8</ele>
        <time>2020-10-05 18:41:34</time>
      </trkpt>
      <trkpt lat="41.30164" lon="1.59664">
        <ele>177.6</ele>
        <time>2020-10-05 18:41:35</time>
      </trkpt>
      <trkpt lat="41.30177" lon="1.59695">
        <ele>177.4</ele>
        <time>2020-10-05 18:41:38</time>
      </trkpt>
      <trkpt lat="41.30182" lon="1.59719">
        <ele>177.2</ele>
        <time>2020-10-05 18:41:40</time>
      </trkpt>
      <trkpt lat="41.30189" lon="1.59786">
        <ele>176.6</ele>
        <time>2020-10-05 18:41:45</time>
      </trkpt>
      <trkpt lat="41.302" lon="1.59863">
        <ele>175.4</ele>
        <time>2020-10-05 18:41:50</time>
      </trkpt>
      <trkpt lat="41.30203" lon="1.59878">
        <ele>175</ele>
        <time>2020-10-05 18:41:51</time>
      </trkpt>
      <trkpt lat="41.30211" lon="1.59908">
        <ele>173.6</ele>
        <time>2020-10-05 18:41:53</time>
      </trkpt>
      <trkpt lat="41.30216" lon="1.59923">
        <ele>172.4</ele>
        <time>2020-10-05 18:41:54</time>
      </trkpt>
      <trkpt lat="41.30221" lon="1.59937">
        <ele>171.2</ele>
        <time>2020-10-05 18:41:55</time>
      </trkpt>
      <trkpt lat="41.30227" lon="1.5995">
        <ele>170.2</ele>
        <time>2020-10-05 18:41:56</time>
      </trkpt>
      <trkpt lat="41.30233" lon="1.59963">
        <ele>169.4</ele>
        <time>2020-10-05 18:41:57</time>
      </trkpt>
      <trkpt lat="41.30249" lon="1.59986">
        <ele>168.4</ele>
        <time>2020-10-05 18:41:59</time>
      </trkpt>
      <trkpt lat="41.30258" lon="1.59996">
        <ele>167.8</ele>
        <time>2020-10-05 18:42:00</time>
      </trkpt>
      <trkpt lat="41.30266" lon="1.60005">
        <ele>167.2</ele>
        <time>2020-10-05 18:42:01</time>
      </trkpt>
      <trkpt lat="41.30279" lon="1.60025">
        <ele>166.4</ele>
        <time>2020-10-05 18:42:03</time>
      </trkpt>
      <trkpt lat="41.30283" lon="1.60036">
        <ele>166.2</ele>
        <time>2020-10-05 18:42:04</time>
      </trkpt>
      <trkpt lat="41.30288" lon="1.6006">
        <ele>165.8</ele>
        <time>2020-10-05 18:42:06</time>
      </trkpt>
      <trkpt lat="41.30297" lon="1.60128">
        <ele>165.2</ele>
        <time>2020-10-05 18:42:11</time>
      </trkpt>
      <trkpt lat="41.30304" lon="1.60185">
        <ele>164.8</ele>
        <time>2020-10-05 18:42:15</time>
      </trkpt>
      <trkpt lat="41.30308" lon="1.60198">
        <ele>164.8</ele>
        <time>2020-10-05 18:42:16</time>
      </trkpt>
      <trkpt lat="41.30327" lon="1.60236">
        <ele>164</ele>
        <time>2020-10-05 18:42:19</time>
      </trkpt>
      <trkpt lat="41.30335" lon="1.60248">
        <ele>163.6</ele>
        <time>2020-10-05 18:42:20</time>
      </trkpt>
      <trkpt lat="41.30358" lon="1.60282">
        <ele>162.8</ele>
        <time>2020-10-05 18:42:23</time>
      </trkpt>
      <trkpt lat="41.30374" lon="1.60304">
        <ele>161.6</ele>
        <time>2020-10-05 18:42:25</time>
      </trkpt>
      <trkpt lat="41.3039" lon="1.60327">
        <ele>160</ele>
        <time>2020-10-05 18:42:27</time>
      </trkpt>
      <trkpt lat="41.30398" lon="1.60339">
        <ele>159.4</ele>
        <time>2020-10-05 18:42:28</time>
      </trkpt>
      <trkpt lat="41.30406" lon="1.60351">
        <ele>158.6</ele>
        <time>2020-10-05 18:42:29</time>
      </trkpt>
      <trkpt lat="41.30422" lon="1.60373">
        <ele>157.4</ele>
        <time>2020-10-05 18:42:31</time>
      </trkpt>
      <trkpt lat="41.30443" lon="1.60408">
        <ele>156.2</ele>
        <time>2020-10-05 18:42:34</time>
      </trkpt>
      <trkpt lat="41.30465" lon="1.6044">
        <ele>155</ele>
        <time>2020-10-05 18:42:37</time>
      </trkpt>
      <trkpt lat="41.30493" lon="1.60481">
        <ele>154.6</ele>
        <time>2020-10-05 18:42:41</time>
      </trkpt>
      <trkpt lat="41.30509" lon="1.6053">
        <ele>154.2</ele>
        <time>2020-10-05 18:42:45</time>
      </trkpt>
      <trkpt lat="41.30524" lon="1.60605">
        <ele>154.4</ele>
        <time>2020-10-05 18:42:51</time>
      </trkpt>
      <trkpt lat="41.30527" lon="1.60617">
        <ele>154.6</ele>
        <time>2020-10-05 18:42:52</time>
      </trkpt>
      <trkpt lat="41.30546" lon="1.60696">
        <ele>155.4</ele>
        <time>2020-10-05 18:42:59</time>
      </trkpt>
      <trkpt lat="41.30554" lon="1.60731">
        <ele>155.4</ele>
        <time>2020-10-05 18:43:02</time>
      </trkpt>
      <trkpt lat="41.30561" lon="1.60766">
        <ele>156</ele>
        <time>2020-10-05 18:43:05</time>
      </trkpt>
      <trkpt lat="41.30576" lon="1.60836">
        <ele>156.4</ele>
        <time>2020-10-05 18:43:11</time>
      </trkpt>
      <trkpt lat="41.30579" lon="1.60848">
        <ele>156.4</ele>
        <time>2020-10-05 18:43:12</time>
      </trkpt>
      <trkpt lat="41.30594" lon="1.60903">
        <ele>157</ele>
        <time>2020-10-05 18:43:17</time>
      </trkpt>
      <trkpt lat="41.30603" lon="1.60935">
        <ele>157.2</ele>
        <time>2020-10-05 18:43:20</time>
      </trkpt>
      <trkpt lat="41.30623" lon="1.61004">
        <ele>157.8</ele>
        <time>2020-10-05 18:43:27</time>
      </trkpt>
      <trkpt lat="41.30626" lon="1.61013">
        <ele>158.2</ele>
        <time>2020-10-05 18:43:28</time>
      </trkpt>
      <trkpt lat="41.30633" lon="1.61039">
        <ele>159.2</ele>
        <time>2020-10-05 18:43:31</time>
      </trkpt>
      <trkpt lat="41.30635" lon="1.61048">
        <ele>159.4</ele>
        <time>2020-10-05 18:43:32</time>
      </trkpt>
      <trkpt lat="41.30635" lon="1.61058">
        <ele>159.6</ele>
        <time>2020-10-05 18:43:33</time>
      </trkpt>
      <trkpt lat="41.30634" lon="1.61079">
        <ele>160.2</ele>
        <time>2020-10-05 18:43:35</time>
      </trkpt>
      <trkpt lat="41.30633" lon="1.6109">
        <ele>160.6</ele>
        <time>2020-10-05 18:43:36</time>
      </trkpt>
      <trkpt lat="41.30632" lon="1.611">
        <ele>161.6</ele>
        <time>2020-10-05 18:43:37</time>
      </trkpt>
      <trkpt lat="41.30624" lon="1.6118">
        <ele>162</ele>
        <time>2020-10-05 18:43:44</time>
      </trkpt>
      <trkpt lat="41.30623" lon="1.61192">
        <ele>162</ele>
        <time>2020-10-05 18:43:45</time>
      </trkpt>
      <trkpt lat="41.30617" lon="1.61264">
        <ele>161</ele>
        <time>2020-10-05 18:43:51</time>
      </trkpt>
      <trkpt lat="41.30613" lon="1.61314">
        <ele>160.4</ele>
        <time>2020-10-05 18:43:55</time>
      </trkpt>
      <trkpt lat="41.30617" lon="1.61394">
        <ele>159.4</ele>
        <time>2020-10-05 18:44:01</time>
      </trkpt>
      <trkpt lat="41.30617" lon="1.61408">
        <ele>159.4</ele>
        <time>2020-10-05 18:44:02</time>
      </trkpt>
      <trkpt lat="41.3062" lon="1.61465">
        <ele>157.8</ele>
        <time>2020-10-05 18:44:06</time>
      </trkpt>
      <trkpt lat="41.30623" lon="1.6151">
        <ele>156.6</ele>
        <time>2020-10-05 18:44:09</time>
      </trkpt>
      <trkpt lat="41.30624" lon="1.61525">
        <ele>156.2</ele>
        <time>2020-10-05 18:44:10</time>
      </trkpt>
      <trkpt lat="41.30625" lon="1.61555">
        <ele>155.4</ele>
        <time>2020-10-05 18:44:12</time>
      </trkpt>
      <trkpt lat="41.30624" lon="1.61599">
        <ele>154.2</ele>
        <time>2020-10-05 18:44:15</time>
      </trkpt>
      <trkpt lat="41.30624" lon="1.61613">
        <ele>154.2</ele>
        <time>2020-10-05 18:44:16</time>
      </trkpt>
      <trkpt lat="41.30624" lon="1.61641">
        <ele>152.6</ele>
        <time>2020-10-05 18:44:18</time>
      </trkpt>
      <trkpt lat="41.30626" lon="1.61668">
        <ele>151.8</ele>
        <time>2020-10-05 18:44:20</time>
      </trkpt>
      <trkpt lat="41.30629" lon="1.61681">
        <ele>151.8</ele>
        <time>2020-10-05 18:44:21</time>
      </trkpt>
      <trkpt lat="41.30646" lon="1.61743">
        <ele>151.6</ele>
        <time>2020-10-05 18:44:26</time>
      </trkpt>
      <trkpt lat="41.30656" lon="1.61801">
        <ele>152</ele>
        <time>2020-10-05 18:44:31</time>
      </trkpt>
      <trkpt lat="41.30652" lon="1.61843">
        <ele>152.4</ele>
        <time>2020-10-05 18:44:35</time>
      </trkpt>
      <trkpt lat="41.30645" lon="1.61871">
        <ele>153.6</ele>
        <time>2020-10-05 18:44:38</time>
      </trkpt>
      <trkpt lat="41.30639" lon="1.6189">
        <ele>154.8</ele>
        <time>2020-10-05 18:44:40</time>
      </trkpt>
      <trkpt lat="41.30636" lon="1.619">
        <ele>155.2</ele>
        <time>2020-10-05 18:44:41</time>
      </trkpt>
      <trkpt lat="41.3063" lon="1.6192">
        <ele>156</ele>
        <time>2020-10-05 18:44:43</time>
      </trkpt>
      <trkpt lat="41.30621" lon="1.61954">
        <ele>156.2</ele>
        <time>2020-10-05 18:44:46</time>
      </trkpt>
      <trkpt lat="41.30619" lon="1.61992">
        <ele>156.2</ele>
        <time>2020-10-05 18:44:49</time>
      </trkpt>
      <trkpt lat="41.30619" lon="1.62005">
        <ele>156.2</ele>
        <time>2020-10-05 18:44:50</time>
      </trkpt>
      <trkpt lat="41.30631" lon="1.62075">
        <ele>155.4</ele>
        <time>2020-10-05 18:44:55</time>
      </trkpt>
      <trkpt lat="41.30635" lon="1.62089">
        <ele>154.6</ele>
        <time>2020-10-05 18:44:56</time>
      </trkpt>
      <trkpt lat="41.30641" lon="1.62118">
        <ele>153</ele>
        <time>2020-10-05 18:44:58</time>
      </trkpt>
      <trkpt lat="41.30648" lon="1.62148">
        <ele>151.4</ele>
        <time>2020-10-05 18:45:00</time>
      </trkpt>
      <trkpt lat="41.30654" lon="1.62177">
        <ele>149.2</ele>
        <time>2020-10-05 18:45:02</time>
      </trkpt>
      <trkpt lat="41.30661" lon="1.62205">
        <ele>148</ele>
        <time>2020-10-05 18:45:04</time>
      </trkpt>
      <trkpt lat="41.30667" lon="1.62233">
        <ele>146.8</ele>
        <time>2020-10-05 18:45:06</time>
      </trkpt>
      <trkpt lat="41.30683" lon="1.62309">
        <ele>146.2</ele>
        <time>2020-10-05 18:45:12</time>
      </trkpt>
      <trkpt lat="41.30697" lon="1.62382">
        <ele>146.4</ele>
        <time>2020-10-05 18:45:18</time>
      </trkpt>
      <trkpt lat="41.30698" lon="1.62394">
        <ele>146.6</ele>
        <time>2020-10-05 18:45:19</time>
      </trkpt>
      <trkpt lat="41.30698" lon="1.62443">
        <ele>147.8</ele>
        <time>2020-10-05 18:45:23</time>
      </trkpt>
      <trkpt lat="41.30696" lon="1.62468">
        <ele>147.8</ele>
        <time>2020-10-05 18:45:25</time>
      </trkpt>
      <trkpt lat="41.30686" lon="1.62542">
        <ele>148.4</ele>
        <time>2020-10-05 18:45:31</time>
      </trkpt>
      <trkpt lat="41.30685" lon="1.62555">
        <ele>148.4</ele>
        <time>2020-10-05 18:45:32</time>
      </trkpt>
      <trkpt lat="41.30676" lon="1.62631">
        <ele>148.4</ele>
        <time>2020-10-05 18:45:38</time>
      </trkpt>
      <trkpt lat="41.30668" lon="1.62695">
        <ele>148</ele>
        <time>2020-10-05 18:45:43</time>
      </trkpt>
      <trkpt lat="41.3066" lon="1.62771">
        <ele>147.8</ele>
        <time>2020-10-05 18:45:49</time>
      </trkpt>
      <trkpt lat="41.30657" lon="1.62797">
        <ele>147.8</ele>
        <time>2020-10-05 18:45:51</time>
      </trkpt>
      <trkpt lat="41.30648" lon="1.62878">
        <ele>147.4</ele>
        <time>2020-10-05 18:45:57</time>
      </trkpt>
      <trkpt lat="41.30645" lon="1.62906">
        <ele>147.2</ele>
        <time>2020-10-05 18:45:59</time>
      </trkpt>
      <trkpt lat="41.30635" lon="1.62964">
        <ele>146.4</ele>
        <time>2020-10-05 18:46:03</time>
      </trkpt>
      <trkpt lat="41.30628" lon="1.62992">
        <ele>146.2</ele>
        <time>2020-10-05 18:46:05</time>
      </trkpt>
      <trkpt lat="41.3061" lon="1.63046">
        <ele>145</ele>
        <time>2020-10-05 18:46:09</time>
      </trkpt>
      <trkpt lat="41.306" lon="1.63072">
        <ele>143.8</ele>
        <time>2020-10-05 18:46:11</time>
      </trkpt>
      <trkpt lat="41.30595" lon="1.63085">
        <ele>143.4</ele>
        <time>2020-10-05 18:46:12</time>
      </trkpt>
      <trkpt lat="41.30567" lon="1.6316">
        <ele>142.4</ele>
        <time>2020-10-05 18:46:18</time>
      </trkpt>
      <trkpt lat="41.30557" lon="1.63185">
        <ele>142.2</ele>
        <time>2020-10-05 18:46:20</time>
      </trkpt>
      <trkpt lat="41.30553" lon="1.63198">
        <ele>142.2</ele>
        <time>2020-10-05 18:46:21</time>
      </trkpt>
      <trkpt lat="41.30525" lon="1.63272">
        <ele>142</ele>
        <time>2020-10-05 18:46:27</time>
      </trkpt>
      <trkpt lat="41.30512" lon="1.63306">
        <ele>142.2</ele>
        <time>2020-10-05 18:46:30</time>
      </trkpt>
      <trkpt lat="41.30494" lon="1.63353">
        <ele>142.2</ele>
        <time>2020-10-05 18:46:35</time>
      </trkpt>
      <trkpt lat="41.30478" lon="1.63383">
        <ele>143.8</ele>
        <time>2020-10-05 18:46:39</time>
      </trkpt>
      <trkpt lat="41.30474" lon="1.63391">
        <ele>144.4</ele>
        <time>2020-10-05 18:46:40</time>
      </trkpt>
      <trkpt lat="41.30472" lon="1.63399">
        <ele>144.8</ele>
        <time>2020-10-05 18:46:41</time>
      </trkpt>
      <trkpt lat="41.30467" lon="1.63417">
        <ele>146</ele>
        <time>2020-10-05 18:46:43</time>
      </trkpt>
      <trkpt lat="41.30463" lon="1.63436">
        <ele>147</ele>
        <time>2020-10-05 18:46:45</time>
      </trkpt>
      <trkpt lat="41.3046" lon="1.63445">
        <ele>147.4</ele>
        <time>2020-10-05 18:46:46</time>
      </trkpt>
      <trkpt lat="41.30443" lon="1.63481">
        <ele>148.4</ele>
        <time>2020-10-05 18:46:50</time>
      </trkpt>
      <trkpt lat="41.30434" lon="1.63499">
        <ele>148.6</ele>
        <time>2020-10-05 18:46:52</time>
      </trkpt>
      <trkpt lat="41.30421" lon="1.6353">
        <ele>148.6</ele>
        <time>2020-10-05 18:46:55</time>
      </trkpt>
      <trkpt lat="41.30394" lon="1.63567">
        <ele>148</ele>
        <time>2020-10-05 18:46:59</time>
      </trkpt>
      <trkpt lat="41.30378" lon="1.63586">
        <ele>147.2</ele>
        <time>2020-10-05 18:47:01</time>
      </trkpt>
      <trkpt lat="41.30362" lon="1.63605">
        <ele>146.2</ele>
        <time>2020-10-05 18:47:03</time>
      </trkpt>
      <trkpt lat="41.30346" lon="1.63624">
        <ele>144.2</ele>
        <time>2020-10-05 18:47:05</time>
      </trkpt>
      <trkpt lat="41.30339" lon="1.63633">
        <ele>143.8</ele>
        <time>2020-10-05 18:47:06</time>
      </trkpt>
      <trkpt lat="41.30331" lon="1.63643">
        <ele>143</ele>
        <time>2020-10-05 18:47:07</time>
      </trkpt>
      <trkpt lat="41.30316" lon="1.63662">
        <ele>141.6</ele>
        <time>2020-10-05 18:47:09</time>
      </trkpt>
      <trkpt lat="41.30309" lon="1.63672">
        <ele>140.6</ele>
        <time>2020-10-05 18:47:10</time>
      </trkpt>
      <trkpt lat="41.30295" lon="1.63691">
        <ele>139.4</ele>
        <time>2020-10-05 18:47:12</time>
      </trkpt>
      <trkpt lat="41.30288" lon="1.63702">
        <ele>139</ele>
        <time>2020-10-05 18:47:13</time>
      </trkpt>
      <trkpt lat="41.30275" lon="1.63722">
        <ele>138.2</ele>
        <time>2020-10-05 18:47:15</time>
      </trkpt>
      <trkpt lat="41.30265" lon="1.6374">
        <ele>137.8</ele>
        <time>2020-10-05 18:47:17</time>
      </trkpt>
      <trkpt lat="41.30257" lon="1.63755">
        <ele>137.8</ele>
        <time>2020-10-05 18:47:20</time>
      </trkpt>
      <trkpt lat="41.30247" lon="1.6377">
        <ele>137.8</ele>
        <time>2020-10-05 18:47:25</time>
      </trkpt>
      <trkpt lat="41.30249" lon="1.63783">
        <ele>138</ele>
        <time>2020-10-05 18:47:28</time>
      </trkpt>
      <trkpt lat="41.30259" lon="1.63803">
        <ele>138</ele>
        <time>2020-10-05 18:47:31</time>
      </trkpt>
      <trkpt lat="41.30264" lon="1.6381">
        <ele>138</ele>
        <time>2020-10-05 18:47:32</time>
      </trkpt>
      <trkpt lat="41.30299" lon="1.63868">
        <ele>137.2</ele>
        <time>2020-10-05 18:47:39</time>
      </trkpt>
      <trkpt lat="41.30304" lon="1.63877">
        <ele>136.8</ele>
        <time>2020-10-05 18:47:40</time>
      </trkpt>
      <trkpt lat="41.30335" lon="1.63929">
        <ele>136.2</ele>
        <time>2020-10-05 18:47:46</time>
      </trkpt>
      <trkpt lat="41.30362" lon="1.63974">
        <ele>135.6</ele>
        <time>2020-10-05 18:47:51</time>
      </trkpt>
      <trkpt lat="41.30399" lon="1.64038">
        <ele>135.8</ele>
        <time>2020-10-05 18:47:58</time>
      </trkpt>
      <trkpt lat="41.30435" lon="1.64099">
        <ele>136</ele>
        <time>2020-10-05 18:48:05</time>
      </trkpt>
      <trkpt lat="41.3045" lon="1.64125">
        <ele>136.4</ele>
        <time>2020-10-05 18:48:08</time>
      </trkpt>
      <trkpt lat="41.30465" lon="1.6415">
        <ele>136.8</ele>
        <time>2020-10-05 18:48:11</time>
      </trkpt>
      <trkpt lat="41.30489" lon="1.64193">
        <ele>137.8</ele>
        <time>2020-10-05 18:48:16</time>
      </trkpt>
      <trkpt lat="41.30504" lon="1.64218">
        <ele>138.6</ele>
        <time>2020-10-05 18:48:19</time>
      </trkpt>
      <trkpt lat="41.30509" lon="1.64227">
        <ele>139.2</ele>
        <time>2020-10-05 18:48:20</time>
      </trkpt>
      <trkpt lat="41.30528" lon="1.64261">
        <ele>140.2</ele>
        <time>2020-10-05 18:48:24</time>
      </trkpt>
      <trkpt lat="41.30542" lon="1.64285">
        <ele>140.8</ele>
        <time>2020-10-05 18:48:27</time>
      </trkpt>
      <trkpt lat="41.30552" lon="1.64301">
        <ele>141.4</ele>
        <time>2020-10-05 18:48:29</time>
      </trkpt>
      <trkpt lat="41.30579" lon="1.64346">
        <ele>142.8</ele>
        <time>2020-10-05 18:48:35</time>
      </trkpt>
      <trkpt lat="41.30589" lon="1.6436">
        <ele>143.6</ele>
        <time>2020-10-05 18:48:37</time>
      </trkpt>
      <trkpt lat="41.306" lon="1.64372">
        <ele>144</ele>
        <time>2020-10-05 18:48:39</time>
      </trkpt>
      <trkpt lat="41.30622" lon="1.64396">
        <ele>145.2</ele>
        <time>2020-10-05 18:48:43</time>
      </trkpt>
      <trkpt lat="41.30628" lon="1.64401">
        <ele>145.4</ele>
        <time>2020-10-05 18:48:44</time>
      </trkpt>
      <trkpt lat="41.30657" lon="1.6443">
        <ele>146.2</ele>
        <time>2020-10-05 18:48:49</time>
      </trkpt>
      <trkpt lat="41.30686" lon="1.64458">
        <ele>146.4</ele>
        <time>2020-10-05 18:48:54</time>
      </trkpt>
      <trkpt lat="41.30732" lon="1.64502">
        <ele>146.4</ele>
        <time>2020-10-05 18:49:02</time>
      </trkpt>
      <trkpt lat="41.30744" lon="1.64512">
        <ele>146.6</ele>
        <time>2020-10-05 18:49:04</time>
      </trkpt>
      <trkpt lat="41.30789" lon="1.64556">
        <ele>147.4</ele>
        <time>2020-10-05 18:49:12</time>
      </trkpt>
      <trkpt lat="41.30828" lon="1.64594">
        <ele>148</ele>
        <time>2020-10-05 18:49:19</time>
      </trkpt>
      <trkpt lat="41.3084" lon="1.64604">
        <ele>148.4</ele>
        <time>2020-10-05 18:49:21</time>
      </trkpt>
      <trkpt lat="41.30874" lon="1.64636">
        <ele>148.8</ele>
        <time>2020-10-05 18:49:27</time>
      </trkpt>
      <trkpt lat="41.30913" lon="1.64674">
        <ele>149.4</ele>
        <time>2020-10-05 18:49:34</time>
      </trkpt>
      <trkpt lat="41.30918" lon="1.64679">
        <ele>149.6</ele>
        <time>2020-10-05 18:49:35</time>
      </trkpt>
      <trkpt lat="41.30961" lon="1.64721">
        <ele>150.2</ele>
        <time>2020-10-05 18:49:43</time>
      </trkpt>
      <trkpt lat="41.30971" lon="1.64731">
        <ele>150.6</ele>
        <time>2020-10-05 18:49:45</time>
      </trkpt>
      <trkpt lat="41.31015" lon="1.64774">
        <ele>151.6</ele>
        <time>2020-10-05 18:49:53</time>
      </trkpt>
      <trkpt lat="41.31021" lon="1.64779">
        <ele>151.6</ele>
        <time>2020-10-05 18:49:54</time>
      </trkpt>
      <trkpt lat="41.31059" lon="1.64816">
        <ele>152.2</ele>
        <time>2020-10-05 18:50:01</time>
      </trkpt>
      <trkpt lat="41.31092" lon="1.64848">
        <ele>152.8</ele>
        <time>2020-10-05 18:50:07</time>
      </trkpt>
      <trkpt lat="41.31103" lon="1.64858">
        <ele>153</ele>
        <time>2020-10-05 18:50:09</time>
      </trkpt>
      <trkpt lat="41.31152" lon="1.64906">
        <ele>153.8</ele>
        <time>2020-10-05 18:50:18</time>
      </trkpt>
      <trkpt lat="41.31157" lon="1.64911">
        <ele>153.8</ele>
        <time>2020-10-05 18:50:19</time>
      </trkpt>
      <trkpt lat="41.31199" lon="1.64956">
        <ele>154.6</ele>
        <time>2020-10-05 18:50:27</time>
      </trkpt>
      <trkpt lat="41.31205" lon="1.64962">
        <ele>154.8</ele>
        <time>2020-10-05 18:50:28</time>
      </trkpt>
      <trkpt lat="41.31211" lon="1.64968">
        <ele>155</ele>
        <time>2020-10-05 18:50:29</time>
      </trkpt>
      <trkpt lat="41.31252" lon="1.65016">
        <ele>155.4</ele>
        <time>2020-10-05 18:50:37</time>
      </trkpt>
      <trkpt lat="41.31277" lon="1.65049">
        <ele>155.8</ele>
        <time>2020-10-05 18:50:42</time>
      </trkpt>
      <trkpt lat="41.31291" lon="1.65068">
        <ele>156.2</ele>
        <time>2020-10-05 18:50:45</time>
      </trkpt>
      <trkpt lat="41.31319" lon="1.65105">
        <ele>156.8</ele>
        <time>2020-10-05 18:50:51</time>
      </trkpt>
      <trkpt lat="41.31338" lon="1.6513">
        <ele>157.6</ele>
        <time>2020-10-05 18:50:55</time>
      </trkpt>
      <trkpt lat="41.31356" lon="1.65155">
        <ele>158</ele>
        <time>2020-10-05 18:50:59</time>
      </trkpt>
      <trkpt lat="41.3136" lon="1.65162">
        <ele>158.4</ele>
        <time>2020-10-05 18:51:00</time>
      </trkpt>
      <trkpt lat="41.31363" lon="1.6517">
        <ele>158.6</ele>
        <time>2020-10-05 18:51:01</time>
      </trkpt>
      <trkpt lat="41.31369" lon="1.65185">
        <ele>159</ele>
        <time>2020-10-05 18:51:03</time>
      </trkpt>
      <trkpt lat="41.31378" lon="1.65198">
        <ele>159.2</ele>
        <time>2020-10-05 18:51:05</time>
      </trkpt>
      <trkpt lat="41.31401" lon="1.65214">
        <ele>160</ele>
        <time>2020-10-05 18:51:09</time>
      </trkpt>
      <trkpt lat="41.31406" lon="1.6522">
        <ele>160.6</ele>
        <time>2020-10-05 18:51:10</time>
      </trkpt>
      <trkpt lat="41.3141" lon="1.65227">
        <ele>160.8</ele>
        <time>2020-10-05 18:51:11</time>
      </trkpt>
      <trkpt lat="41.31428" lon="1.65253">
        <ele>161.4</ele>
        <time>2020-10-05 18:51:15</time>
      </trkpt>
      <trkpt lat="41.31442" lon="1.65274">
        <ele>161.8</ele>
        <time>2020-10-05 18:51:18</time>
      </trkpt>
      <trkpt lat="41.31465" lon="1.65309">
        <ele>163</ele>
        <time>2020-10-05 18:51:23</time>
      </trkpt>
      <trkpt lat="41.31503" lon="1.65368">
        <ele>163.6</ele>
        <time>2020-10-05 18:51:31</time>
      </trkpt>
      <trkpt lat="41.31523" lon="1.65399">
        <ele>163.6</ele>
        <time>2020-10-05 18:51:35</time>
      </trkpt>
      <trkpt lat="41.3156" lon="1.65456">
        <ele>162.4</ele>
        <time>2020-10-05 18:51:42</time>
      </trkpt>
      <trkpt lat="41.31581" lon="1.6549">
        <ele>162</ele>
        <time>2020-10-05 18:51:46</time>
      </trkpt>
      <trkpt lat="41.31598" lon="1.65517">
        <ele>161.8</ele>
        <time>2020-10-05 18:51:49</time>
      </trkpt>
      <trkpt lat="41.31634" lon="1.65572">
        <ele>160.8</ele>
        <time>2020-10-05 18:51:55</time>
      </trkpt>
      <trkpt lat="41.31639" lon="1.65581">
        <ele>160.4</ele>
        <time>2020-10-05 18:51:56</time>
      </trkpt>
      <trkpt lat="41.31663" lon="1.65619">
        <ele>159.2</ele>
        <time>2020-10-05 18:52:00</time>
      </trkpt>
      <trkpt lat="41.31693" lon="1.65665">
        <ele>158</ele>
        <time>2020-10-05 18:52:05</time>
      </trkpt>
      <trkpt lat="41.31704" lon="1.65683">
        <ele>157.8</ele>
        <time>2020-10-05 18:52:07</time>
      </trkpt>
      <trkpt lat="41.31739" lon="1.65738">
        <ele>157.2</ele>
        <time>2020-10-05 18:52:13</time>
      </trkpt>
      <trkpt lat="41.31745" lon="1.65747">
        <ele>157</ele>
        <time>2020-10-05 18:52:14</time>
      </trkpt>
      <trkpt lat="41.31762" lon="1.65774">
        <ele>157</ele>
        <time>2020-10-05 18:52:17</time>
      </trkpt>
      <trkpt lat="41.31801" lon="1.65834">
        <ele>156.8</ele>
        <time>2020-10-05 18:52:24</time>
      </trkpt>
      <trkpt lat="41.31829" lon="1.65877">
        <ele>157</ele>
        <time>2020-10-05 18:52:29</time>
      </trkpt>
      <trkpt lat="41.31867" lon="1.65935">
        <ele>157.4</ele>
        <time>2020-10-05 18:52:36</time>
      </trkpt>
      <trkpt lat="41.31872" lon="1.65943">
        <ele>157.4</ele>
        <time>2020-10-05 18:52:37</time>
      </trkpt>
      <trkpt lat="41.31895" lon="1.6598">
        <ele>157.8</ele>
        <time>2020-10-05 18:52:42</time>
      </trkpt>
      <trkpt lat="41.3192" lon="1.66017">
        <ele>158.2</ele>
        <time>2020-10-05 18:52:47</time>
      </trkpt>
      <trkpt lat="41.31944" lon="1.66054">
        <ele>159</ele>
        <time>2020-10-05 18:52:52</time>
      </trkpt>
      <trkpt lat="41.31959" lon="1.66076">
        <ele>159.2</ele>
        <time>2020-10-05 18:52:55</time>
      </trkpt>
      <trkpt lat="41.31992" lon="1.66129">
        <ele>159.4</ele>
        <time>2020-10-05 18:53:02</time>
      </trkpt>
      <trkpt lat="41.32028" lon="1.66184">
        <ele>159.6</ele>
        <time>2020-10-05 18:53:09</time>
      </trkpt>
      <trkpt lat="41.32065" lon="1.6624">
        <ele>159.2</ele>
        <time>2020-10-05 18:53:16</time>
      </trkpt>
      <trkpt lat="41.32075" lon="1.66256">
        <ele>159.2</ele>
        <time>2020-10-05 18:53:18</time>
      </trkpt>
      <trkpt lat="41.32094" lon="1.66287">
        <ele>158.6</ele>
        <time>2020-10-05 18:53:23</time>
      </trkpt>
      <trkpt lat="41.32117" lon="1.66326">
        <ele>158.6</ele>
        <time>2020-10-05 18:53:31</time>
      </trkpt>
      <trkpt lat="41.32136" lon="1.66354">
        <ele>159.6</ele>
        <time>2020-10-05 18:53:37</time>
      </trkpt>
      <trkpt lat="41.3216" lon="1.6639">
        <ele>160</ele>
        <time>2020-10-05 18:53:44</time>
      </trkpt>
      <trkpt lat="41.32187" lon="1.6643">
        <ele>160.6</ele>
        <time>2020-10-05 18:53:52</time>
      </trkpt>
      <trkpt lat="41.32209" lon="1.66461">
        <ele>161</ele>
        <time>2020-10-05 18:53:58</time>
      </trkpt>
      <trkpt lat="41.32242" lon="1.66507">
        <ele>160.8</ele>
        <time>2020-10-05 18:54:06</time>
      </trkpt>
      <trkpt lat="41.32261" lon="1.66535">
        <ele>161</ele>
        <time>2020-10-05 18:54:11</time>
      </trkpt>
      <trkpt lat="41.32289" lon="1.6658">
        <ele>161.2</ele>
        <time>2020-10-05 18:54:18</time>
      </trkpt>
      <trkpt lat="41.32316" lon="1.66625">
        <ele>161.4</ele>
        <time>2020-10-05 18:54:25</time>
      </trkpt>
      <trkpt lat="41.32329" lon="1.6665">
        <ele>161.4</ele>
        <time>2020-10-05 18:54:30</time>
      </trkpt>
      <trkpt lat="41.32332" lon="1.66654">
        <ele>161.6</ele>
        <time>2020-10-05 18:54:31</time>
      </trkpt>
      <trkpt lat="41.32346" lon="1.66677">
        <ele>162</ele>
        <time>2020-10-05 18:54:35</time>
      </trkpt>
      <trkpt lat="41.3235" lon="1.66684">
        <ele>162</ele>
        <time>2020-10-05 18:54:36</time>
      </trkpt>
      <trkpt lat="41.32368" lon="1.66714">
        <ele>162</ele>
        <time>2020-10-05 18:54:40</time>
      </trkpt>
      <trkpt lat="41.32384" lon="1.66748">
        <ele>162</ele>
        <time>2020-10-05 18:54:44</time>
      </trkpt>
      <trkpt lat="41.32387" lon="1.66757">
        <ele>162</ele>
        <time>2020-10-05 18:54:45</time>
      </trkpt>
      <trkpt lat="41.3239" lon="1.66767">
        <ele>162</ele>
        <time>2020-10-05 18:54:46</time>
      </trkpt>
      <trkpt lat="41.324" lon="1.66783">
        <ele>162</ele>
        <time>2020-10-05 18:54:48</time>
      </trkpt>
      <trkpt lat="41.32412" lon="1.668">
        <ele>162</ele>
        <time>2020-10-05 18:54:50</time>
      </trkpt>
      <trkpt lat="41.32423" lon="1.6682">
        <ele>162</ele>
        <time>2020-10-05 18:54:52</time>
      </trkpt>
      <trkpt lat="41.32452" lon="1.66881">
        <ele>162</ele>
        <time>2020-10-05 18:54:58</time>
      </trkpt>
      <trkpt lat="41.32485" lon="1.66952">
        <ele>161.8</ele>
        <time>2020-10-05 18:55:04</time>
      </trkpt>
      <trkpt lat="41.32514" lon="1.67014">
        <ele>161.4</ele>
        <time>2020-10-05 18:55:09</time>
      </trkpt>
      <trkpt lat="41.32526" lon="1.67039">
        <ele>160.8</ele>
        <time>2020-10-05 18:55:11</time>
      </trkpt>
      <trkpt lat="41.32532" lon="1.67051">
        <ele>160.6</ele>
        <time>2020-10-05 18:55:12</time>
      </trkpt>
      <trkpt lat="41.32565" lon="1.67122">
        <ele>159.8</ele>
        <time>2020-10-05 18:55:18</time>
      </trkpt>
      <trkpt lat="41.32587" lon="1.67168">
        <ele>159.8</ele>
        <time>2020-10-05 18:55:22</time>
      </trkpt>
      <trkpt lat="41.32617" lon="1.67233">
        <ele>159.8</ele>
        <time>2020-10-05 18:55:28</time>
      </trkpt>
      <trkpt lat="41.32627" lon="1.67254">
        <ele>159.6</ele>
        <time>2020-10-05 18:55:30</time>
      </trkpt>
      <trkpt lat="41.32659" lon="1.6731">
        <ele>160.4</ele>
        <time>2020-10-05 18:55:36</time>
      </trkpt>
      <trkpt lat="41.32695" lon="1.6736">
        <ele>161.6</ele>
        <time>2020-10-05 18:55:42</time>
      </trkpt>
      <trkpt lat="41.32719" lon="1.67393">
        <ele>161.8</ele>
        <time>2020-10-05 18:55:46</time>
      </trkpt>
      <trkpt lat="41.3276" lon="1.67447">
        <ele>162</ele>
        <time>2020-10-05 18:55:53</time>
      </trkpt>
      <trkpt lat="41.32764" lon="1.67456">
        <ele>162.2</ele>
        <time>2020-10-05 18:55:54</time>
      </trkpt>
      <trkpt lat="41.32773" lon="1.67484">
        <ele>162.6</ele>
        <time>2020-10-05 18:55:57</time>
      </trkpt>
      <trkpt lat="41.32776" lon="1.67493">
        <ele>162.8</ele>
        <time>2020-10-05 18:55:58</time>
      </trkpt>
      <trkpt lat="41.32794" lon="1.67509">
        <ele>163</ele>
        <time>2020-10-05 18:56:01</time>
      </trkpt>
      <trkpt lat="41.32809" lon="1.67512">
        <ele>163.4</ele>
        <time>2020-10-05 18:56:03</time>
      </trkpt>
      <trkpt lat="41.32817" lon="1.67514">
        <ele>163.6</ele>
        <time>2020-10-05 18:56:04</time>
      </trkpt>
      <trkpt lat="41.32824" lon="1.67518">
        <ele>163.8</ele>
        <time>2020-10-05 18:56:05</time>
      </trkpt>
      <trkpt lat="41.32843" lon="1.67536">
        <ele>163.8</ele>
        <time>2020-10-05 18:56:08</time>
      </trkpt>
      <trkpt lat="41.32849" lon="1.67543">
        <ele>163.8</ele>
        <time>2020-10-05 18:56:09</time>
      </trkpt>
      <trkpt lat="41.32885" lon="1.67585">
        <ele>164</ele>
        <time>2020-10-05 18:56:15</time>
      </trkpt>
      <trkpt lat="41.32918" lon="1.67622">
        <ele>164.4</ele>
        <time>2020-10-05 18:56:21</time>
      </trkpt>
      <trkpt lat="41.32934" lon="1.67644">
        <ele>164.6</ele>
        <time>2020-10-05 18:56:24</time>
      </trkpt>
      <trkpt lat="41.32938" lon="1.67652">
        <ele>164.8</ele>
        <time>2020-10-05 18:56:25</time>
      </trkpt>
      <trkpt lat="41.3294" lon="1.67662">
        <ele>164.8</ele>
        <time>2020-10-05 18:56:26</time>
      </trkpt>
      <trkpt lat="41.32946" lon="1.6768">
        <ele>164.8</ele>
        <time>2020-10-05 18:56:28</time>
      </trkpt>
      <trkpt lat="41.32951" lon="1.67688">
        <ele>164.8</ele>
        <time>2020-10-05 18:56:29</time>
      </trkpt>
      <trkpt lat="41.3297" lon="1.67702">
        <ele>165</ele>
        <time>2020-10-05 18:56:32</time>
      </trkpt>
      <trkpt lat="41.32998" lon="1.67715">
        <ele>165.8</ele>
        <time>2020-10-05 18:56:36</time>
      </trkpt>
      <trkpt lat="41.33004" lon="1.67721">
        <ele>165.6</ele>
        <time>2020-10-05 18:56:37</time>
      </trkpt>
      <trkpt lat="41.33015" lon="1.67735">
        <ele>166</ele>
        <time>2020-10-05 18:56:39</time>
      </trkpt>
      <trkpt lat="41.33026" lon="1.67749">
        <ele>166.2</ele>
        <time>2020-10-05 18:56:41</time>
      </trkpt>
      <trkpt lat="41.33058" lon="1.67793">
        <ele>166.6</ele>
        <time>2020-10-05 18:56:47</time>
      </trkpt>
      <trkpt lat="41.33063" lon="1.67801">
        <ele>166.6</ele>
        <time>2020-10-05 18:56:48</time>
      </trkpt>
      <trkpt lat="41.33093" lon="1.67847">
        <ele>167.8</ele>
        <time>2020-10-05 18:56:54</time>
      </trkpt>
      <trkpt lat="41.33108" lon="1.67871">
        <ele>168.2</ele>
        <time>2020-10-05 18:56:57</time>
      </trkpt>
      <trkpt lat="41.33142" lon="1.67928">
        <ele>168.2</ele>
        <time>2020-10-05 18:57:04</time>
      </trkpt>
      <trkpt lat="41.33166" lon="1.67969">
        <ele>168.4</ele>
        <time>2020-10-05 18:57:09</time>
      </trkpt>
      <trkpt lat="41.33178" lon="1.67994">
        <ele>168.4</ele>
        <time>2020-10-05 18:57:12</time>
      </trkpt>
      <trkpt lat="41.33188" lon="1.68021">
        <ele>168.4</ele>
        <time>2020-10-05 18:57:15</time>
      </trkpt>
      <trkpt lat="41.33206" lon="1.6804">
        <ele>168.6</ele>
        <time>2020-10-05 18:57:18</time>
      </trkpt>
      <trkpt lat="41.33212" lon="1.68046">
        <ele>169</ele>
        <time>2020-10-05 18:57:19</time>
      </trkpt>
      <trkpt lat="41.33229" lon="1.68067">
        <ele>169.8</ele>
        <time>2020-10-05 18:57:22</time>
      </trkpt>
      <trkpt lat="41.33268" lon="1.68119">
        <ele>170</ele>
        <time>2020-10-05 18:57:29</time>
      </trkpt>
      <trkpt lat="41.33274" lon="1.68127">
        <ele>170</ele>
        <time>2020-10-05 18:57:30</time>
      </trkpt>
      <trkpt lat="41.333" lon="1.68164">
        <ele>170.2</ele>
        <time>2020-10-05 18:57:35</time>
      </trkpt>
      <trkpt lat="41.33339" lon="1.68223">
        <ele>170.6</ele>
        <time>2020-10-05 18:57:43</time>
      </trkpt>
      <trkpt lat="41.33342" lon="1.68228">
        <ele>170.6</ele>
        <time>2020-10-05 18:57:44</time>
      </trkpt>
      <trkpt lat="41.33349" lon="1.68242">
        <ele>171</ele>
        <time>2020-10-05 18:57:48</time>
      </trkpt>
      <trkpt lat="41.3335" lon="1.68246">
        <ele>171</ele>
        <time>2020-10-05 18:57:49</time>
      </trkpt>
      <trkpt lat="41.33353" lon="1.68257">
        <ele>171.4</ele>
        <time>2020-10-05 18:57:51</time>
      </trkpt>
      <trkpt lat="41.33354" lon="1.68263">
        <ele>172</ele>
        <time>2020-10-05 18:57:52</time>
      </trkpt>
      <trkpt lat="41.33353" lon="1.6827">
        <ele>172.4</ele>
        <time>2020-10-05 18:57:53</time>
      </trkpt>
      <trkpt lat="41.33349" lon="1.68283">
        <ele>172.8</ele>
        <time>2020-10-05 18:57:55</time>
      </trkpt>
      <trkpt lat="41.33347" lon="1.6829">
        <ele>173</ele>
        <time>2020-10-05 18:57:56</time>
      </trkpt>
      <trkpt lat="41.33342" lon="1.68314">
        <ele>173.2</ele>
        <time>2020-10-05 18:57:59</time>
      </trkpt>
      <trkpt lat="41.33342" lon="1.68323">
        <ele>173.2</ele>
        <time>2020-10-05 18:58:00</time>
      </trkpt>
      <trkpt lat="41.33344" lon="1.68359">
        <ele>173.4</ele>
        <time>2020-10-05 18:58:04</time>
      </trkpt>
      <trkpt lat="41.33345" lon="1.68368">
        <ele>173.4</ele>
        <time>2020-10-05 18:58:05</time>
      </trkpt>
      <trkpt lat="41.33356" lon="1.68401">
        <ele>173.4</ele>
        <time>2020-10-05 18:58:09</time>
      </trkpt>
      <trkpt lat="41.33378" lon="1.68436">
        <ele>173.4</ele>
        <time>2020-10-05 18:58:14</time>
      </trkpt>
      <trkpt lat="41.33388" lon="1.68448">
        <ele>173.6</ele>
        <time>2020-10-05 18:58:16</time>
      </trkpt>
      <trkpt lat="41.33395" lon="1.68463">
        <ele>173.6</ele>
        <time>2020-10-05 18:58:18</time>
      </trkpt>
      <trkpt lat="41.33401" lon="1.68497">
        <ele>173.8</ele>
        <time>2020-10-05 18:58:22</time>
      </trkpt>
      <trkpt lat="41.33401" lon="1.68505">
        <ele>174</ele>
        <time>2020-10-05 18:58:23</time>
      </trkpt>
      <trkpt lat="41.33402" lon="1.6855">
        <ele>174.4</ele>
        <time>2020-10-05 18:58:29</time>
      </trkpt>
      <trkpt lat="41.33403" lon="1.68579">
        <ele>175.6</ele>
        <time>2020-10-05 18:58:33</time>
      </trkpt>
      <trkpt lat="41.33404" lon="1.68596">
        <ele>176.4</ele>
        <time>2020-10-05 18:58:35</time>
      </trkpt>
      <trkpt lat="41.33404" lon="1.68604">
        <ele>176.8</ele>
        <time>2020-10-05 18:58:36</time>
      </trkpt>
      <trkpt lat="41.33406" lon="1.68629">
        <ele>178</ele>
        <time>2020-10-05 18:58:39</time>
      </trkpt>
      <trkpt lat="41.3341" lon="1.68666">
        <ele>178.6</ele>
        <time>2020-10-05 18:58:43</time>
      </trkpt>
      <trkpt lat="41.33416" lon="1.68748">
        <ele>178.6</ele>
        <time>2020-10-05 18:58:51</time>
      </trkpt>
      <trkpt lat="41.33417" lon="1.68824">
        <ele>178</ele>
        <time>2020-10-05 18:58:58</time>
      </trkpt>
      <trkpt lat="41.33417" lon="1.68847">
        <ele>177.6</ele>
        <time>2020-10-05 18:59:00</time>
      </trkpt>
      <trkpt lat="41.33414" lon="1.68926">
        <ele>177</ele>
        <time>2020-10-05 18:59:07</time>
      </trkpt>
      <trkpt lat="41.33414" lon="1.68959">
        <ele>176.8</ele>
        <time>2020-10-05 18:59:10</time>
      </trkpt>
      <trkpt lat="41.33414" lon="1.68992">
        <ele>176.8</ele>
        <time>2020-10-05 18:59:13</time>
      </trkpt>
      <trkpt lat="41.33412" lon="1.69067">
        <ele>176.8</ele>
        <time>2020-10-05 18:59:20</time>
      </trkpt>
      <trkpt lat="41.33412" lon="1.69078">
        <ele>176.8</ele>
        <time>2020-10-05 18:59:21</time>
      </trkpt>
      <trkpt lat="41.3341" lon="1.69157">
        <ele>177.6</ele>
        <time>2020-10-05 18:59:29</time>
      </trkpt>
      <trkpt lat="41.3341" lon="1.69167">
        <ele>177.8</ele>
        <time>2020-10-05 18:59:30</time>
      </trkpt>
      <trkpt lat="41.33409" lon="1.6924">
        <ele>178.8</ele>
        <time>2020-10-05 18:59:38</time>
      </trkpt>
      <trkpt lat="41.33409" lon="1.69249">
        <ele>178.8</ele>
        <time>2020-10-05 18:59:39</time>
      </trkpt>
      <trkpt lat="41.33408" lon="1.69267">
        <ele>179.8</ele>
        <time>2020-10-05 18:59:41</time>
      </trkpt>
      <trkpt lat="41.33409" lon="1.69276">
        <ele>180.8</ele>
        <time>2020-10-05 18:59:42</time>
      </trkpt>
      <trkpt lat="41.33409" lon="1.69312">
        <ele>181.6</ele>
        <time>2020-10-05 18:59:46</time>
      </trkpt>
      <trkpt lat="41.33409" lon="1.69348">
        <ele>182.6</ele>
        <time>2020-10-05 18:59:50</time>
      </trkpt>
      <trkpt lat="41.33409" lon="1.69375">
        <ele>183.6</ele>
        <time>2020-10-05 18:59:53</time>
      </trkpt>
      <trkpt lat="41.33409" lon="1.69384">
        <ele>183.8</ele>
        <time>2020-10-05 18:59:54</time>
      </trkpt>
      <trkpt lat="41.3341" lon="1.69402">
        <ele>184</ele>
        <time>2020-10-05 18:59:56</time>
      </trkpt>
      <trkpt lat="41.33409" lon="1.69419">
        <ele>184.2</ele>
        <time>2020-10-05 18:59:58</time>
      </trkpt>
      <trkpt lat="41.33409" lon="1.69453">
        <ele>185</ele>
        <time>2020-10-05 19:00:02</time>
      </trkpt>
      <trkpt lat="41.33409" lon="1.69488">
        <ele>186</ele>
        <time>2020-10-05 19:00:06</time>
      </trkpt>
      <trkpt lat="41.33409" lon="1.69524">
        <ele>187.4</ele>
        <time>2020-10-05 19:00:10</time>
      </trkpt>
      <trkpt lat="41.33408" lon="1.6956">
        <ele>188</ele>
        <time>2020-10-05 19:00:14</time>
      </trkpt>
      <trkpt lat="41.33408" lon="1.69596">
        <ele>188.4</ele>
        <time>2020-10-05 19:00:18</time>
      </trkpt>
      <trkpt lat="41.33408" lon="1.69632">
        <ele>189.6</ele>
        <time>2020-10-05 19:00:22</time>
      </trkpt>
      <trkpt lat="41.33408" lon="1.6965">
        <ele>189.8</ele>
        <time>2020-10-05 19:00:24</time>
      </trkpt>
      <trkpt lat="41.33407" lon="1.69686">
        <ele>190.6</ele>
        <time>2020-10-05 19:00:28</time>
      </trkpt>
      <trkpt lat="41.33406" lon="1.69742">
        <ele>191</ele>
        <time>2020-10-05 19:00:34</time>
      </trkpt>
      <trkpt lat="41.33403" lon="1.69822">
        <ele>191.2</ele>
        <time>2020-10-05 19:00:42</time>
      </trkpt>
      <trkpt lat="41.33403" lon="1.69832">
        <ele>191.2</ele>
        <time>2020-10-05 19:00:43</time>
      </trkpt>
      <trkpt lat="41.334" lon="1.69907">
        <ele>191.2</ele>
        <time>2020-10-05 19:00:50</time>
      </trkpt>
      <trkpt lat="41.33399" lon="1.6994">
        <ele>190.6</ele>
        <time>2020-10-05 19:00:53</time>
      </trkpt>
      <trkpt lat="41.33396" lon="1.7002">
        <ele>190.2</ele>
        <time>2020-10-05 19:01:00</time>
      </trkpt>
      <trkpt lat="41.33396" lon="1.70044">
        <ele>190.2</ele>
        <time>2020-10-05 19:01:02</time>
      </trkpt>
      <trkpt lat="41.33398" lon="1.70117">
        <ele>190</ele>
        <time>2020-10-05 19:01:08</time>
      </trkpt>
      <trkpt lat="41.334" lon="1.70141">
        <ele>189.8</ele>
        <time>2020-10-05 19:01:10</time>
      </trkpt>
      <trkpt lat="41.33405" lon="1.7019">
        <ele>189.4</ele>
        <time>2020-10-05 19:01:14</time>
      </trkpt>
      <trkpt lat="41.33412" lon="1.70238">
        <ele>188.6</ele>
        <time>2020-10-05 19:01:18</time>
      </trkpt>
      <trkpt lat="41.33421" lon="1.70285">
        <ele>188.2</ele>
        <time>2020-10-05 19:01:22</time>
      </trkpt>
      <trkpt lat="41.33429" lon="1.70319">
        <ele>188.2</ele>
        <time>2020-10-05 19:01:25</time>
      </trkpt>
      <trkpt lat="41.33453" lon="1.70393">
        <ele>188.6</ele>
        <time>2020-10-05 19:01:32</time>
      </trkpt>
      <trkpt lat="41.33456" lon="1.70404">
        <ele>188.6</ele>
        <time>2020-10-05 19:01:33</time>
      </trkpt>
      <trkpt lat="41.33467" lon="1.70433">
        <ele>189.6</ele>
        <time>2020-10-05 19:01:36</time>
      </trkpt>
      <trkpt lat="41.33477" lon="1.70462">
        <ele>190.6</ele>
        <time>2020-10-05 19:01:39</time>
      </trkpt>
      <trkpt lat="41.33489" lon="1.7049">
        <ele>191.6</ele>
        <time>2020-10-05 19:01:42</time>
      </trkpt>
      <trkpt lat="41.33493" lon="1.70499">
        <ele>191.8</ele>
        <time>2020-10-05 19:01:43</time>
      </trkpt>
      <trkpt lat="41.33514" lon="1.70538">
        <ele>191.8</ele>
        <time>2020-10-05 19:01:47</time>
      </trkpt>
      <trkpt lat="41.33549" lon="1.70599">
        <ele>191.6</ele>
        <time>2020-10-05 19:01:53</time>
      </trkpt>
      <trkpt lat="41.33554" lon="1.7061">
        <ele>191.4</ele>
        <time>2020-10-05 19:01:54</time>
      </trkpt>
      <trkpt lat="41.33561" lon="1.70634">
        <ele>190.4</ele>
        <time>2020-10-05 19:01:56</time>
      </trkpt>
      <trkpt lat="41.33561" lon="1.70647">
        <ele>189.6</ele>
        <time>2020-10-05 19:01:57</time>
      </trkpt>
      <trkpt lat="41.3356" lon="1.7066">
        <ele>189</ele>
        <time>2020-10-05 19:01:58</time>
      </trkpt>
      <trkpt lat="41.33553" lon="1.70683">
        <ele>187.8</ele>
        <time>2020-10-05 19:02:00</time>
      </trkpt>
      <trkpt lat="41.33537" lon="1.70714">
        <ele>186.8</ele>
        <time>2020-10-05 19:02:03</time>
      </trkpt>
      <trkpt lat="41.33529" lon="1.70721">
        <ele>186.6</ele>
        <time>2020-10-05 19:02:04</time>
      </trkpt>
      <trkpt lat="41.33521" lon="1.70728">
        <ele>186.4</ele>
        <time>2020-10-05 19:02:05</time>
      </trkpt>
      <trkpt lat="41.33505" lon="1.70741">
        <ele>186.4</ele>
        <time>2020-10-05 19:02:07</time>
      </trkpt>
      <trkpt lat="41.33455" lon="1.70782">
        <ele>186.2</ele>
        <time>2020-10-05 19:02:13</time>
      </trkpt>
      <trkpt lat="41.33406" lon="1.70825">
        <ele>185.4</ele>
        <time>2020-10-05 19:02:19</time>
      </trkpt>
      <trkpt lat="41.33397" lon="1.70831">
        <ele>185.4</ele>
        <time>2020-10-05 19:02:20</time>
      </trkpt>
      <trkpt lat="41.33366" lon="1.70858">
        <ele>185.2</ele>
        <time>2020-10-05 19:02:24</time>
      </trkpt>
      <trkpt lat="41.33358" lon="1.7086">
        <ele>185.2</ele>
        <time>2020-10-05 19:02:25</time>
      </trkpt>
      <trkpt lat="41.33333" lon="1.70858">
        <ele>185.2</ele>
        <time>2020-10-05 19:02:28</time>
      </trkpt>
      <trkpt lat="41.33318" lon="1.70868">
        <ele>185.2</ele>
        <time>2020-10-05 19:02:30</time>
      </trkpt>
      <trkpt lat="41.33308" lon="1.70898">
        <ele>185.4</ele>
        <time>2020-10-05 19:02:33</time>
      </trkpt>
      <trkpt lat="41.33306" lon="1.70909">
        <ele>185.4</ele>
        <time>2020-10-05 19:02:34</time>
      </trkpt>
      <trkpt lat="41.33296" lon="1.70927">
        <ele>185.6</ele>
        <time>2020-10-05 19:02:36</time>
      </trkpt>
      <trkpt lat="41.33285" lon="1.70943">
        <ele>186.2</ele>
        <time>2020-10-05 19:02:38</time>
      </trkpt>
      <trkpt lat="41.3328" lon="1.70952">
        <ele>186.6</ele>
        <time>2020-10-05 19:02:39</time>
      </trkpt>
      <trkpt lat="41.3327" lon="1.70968">
        <ele>187</ele>
        <time>2020-10-05 19:02:41</time>
      </trkpt>
      <trkpt lat="41.33256" lon="1.70993">
        <ele>187.8</ele>
        <time>2020-10-05 19:02:44</time>
      </trkpt>
      <trkpt lat="41.33243" lon="1.71016">
        <ele>188.4</ele>
        <time>2020-10-05 19:02:47</time>
      </trkpt>
      <trkpt lat="41.33239" lon="1.71023">
        <ele>188.6</ele>
        <time>2020-10-05 19:02:48</time>
      </trkpt>
      <trkpt lat="41.33235" lon="1.71031">
        <ele>188.8</ele>
        <time>2020-10-05 19:02:49</time>
      </trkpt>
      <trkpt lat="41.33219" lon="1.71061">
        <ele>190</ele>
        <time>2020-10-05 19:02:53</time>
      </trkpt>
      <trkpt lat="41.33207" lon="1.71084">
        <ele>191.6</ele>
        <time>2020-10-05 19:02:56</time>
      </trkpt>
      <trkpt lat="41.33202" lon="1.71092">
        <ele>192</ele>
        <time>2020-10-05 19:02:57</time>
      </trkpt>
      <trkpt lat="41.33194" lon="1.71107">
        <ele>192.6</ele>
        <time>2020-10-05 19:02:59</time>
      </trkpt>
      <trkpt lat="41.33176" lon="1.71136">
        <ele>193.2</ele>
        <time>2020-10-05 19:03:03</time>
      </trkpt>
      <trkpt lat="41.33171" lon="1.7114">
        <ele>193.2</ele>
        <time>2020-10-05 19:03:04</time>
      </trkpt>
      <trkpt lat="41.33152" lon="1.71149">
        <ele>193.2</ele>
        <time>2020-10-05 19:03:07</time>
      </trkpt>
      <trkpt lat="41.33146" lon="1.71154">
        <ele>193.2</ele>
        <time>2020-10-05 19:03:08</time>
      </trkpt>
      <trkpt lat="41.33134" lon="1.71174">
        <ele>193.4</ele>
        <time>2020-10-05 19:03:11</time>
      </trkpt>
      <trkpt lat="41.33131" lon="1.71182">
        <ele>193.4</ele>
        <time>2020-10-05 19:03:12</time>
      </trkpt>
      <trkpt lat="41.33121" lon="1.71205">
        <ele>193.6</ele>
        <time>2020-10-05 19:03:15</time>
      </trkpt>
      <trkpt lat="41.33113" lon="1.71218">
        <ele>193.6</ele>
        <time>2020-10-05 19:03:17</time>
      </trkpt>
      <trkpt lat="41.33086" lon="1.71249">
        <ele>194.8</ele>
        <time>2020-10-05 19:03:23</time>
      </trkpt>
      <trkpt lat="41.33061" lon="1.71277">
        <ele>196.6</ele>
        <time>2020-10-05 19:03:29</time>
      </trkpt>
      <trkpt lat="41.33053" lon="1.71286">
        <ele>197.6</ele>
        <time>2020-10-05 19:03:31</time>
      </trkpt>
      <trkpt lat="41.33049" lon="1.7129">
        <ele>198</ele>
        <time>2020-10-05 19:03:32</time>
      </trkpt>
      <trkpt lat="41.33036" lon="1.71304">
        <ele>199</ele>
        <time>2020-10-05 19:03:35</time>
      </trkpt>
      <trkpt lat="41.33024" lon="1.71316">
        <ele>200.2</ele>
        <time>2020-10-05 19:03:38</time>
      </trkpt>
      <trkpt lat="41.33019" lon="1.7132">
        <ele>200.6</ele>
        <time>2020-10-05 19:03:39</time>
      </trkpt>
      <trkpt lat="41.33005" lon="1.7133">
        <ele>201.2</ele>
        <time>2020-10-05 19:03:42</time>
      </trkpt>
      <trkpt lat="41.3299" lon="1.71341">
        <ele>202.2</ele>
        <time>2020-10-05 19:03:45</time>
      </trkpt>
      <trkpt lat="41.3298" lon="1.71347">
        <ele>202.8</ele>
        <time>2020-10-05 19:03:47</time>
      </trkpt>
      <trkpt lat="41.32975" lon="1.7135">
        <ele>203</ele>
        <time>2020-10-05 19:03:48</time>
      </trkpt>
      <trkpt lat="41.32968" lon="1.71359">
        <ele>203.2</ele>
        <time>2020-10-05 19:03:50</time>
      </trkpt>
      <trkpt lat="41.32966" lon="1.71365">
        <ele>203.4</ele>
        <time>2020-10-05 19:03:51</time>
      </trkpt>
      <trkpt lat="41.32969" lon="1.71383">
        <ele>203.6</ele>
        <time>2020-10-05 19:03:54</time>
      </trkpt>
      <trkpt lat="41.32976" lon="1.71392">
        <ele>204</ele>
        <time>2020-10-05 19:03:56</time>
      </trkpt>
      <trkpt lat="41.32979" lon="1.71396">
        <ele>204</ele>
        <time>2020-10-05 19:03:57</time>
      </trkpt>
      <trkpt lat="41.32982" lon="1.71401">
        <ele>204.4</ele>
        <time>2020-10-05 19:03:58</time>
      </trkpt>
      <trkpt lat="41.3298" lon="1.71411">
        <ele>205</ele>
        <time>2020-10-05 19:04:00</time>
      </trkpt>
      <trkpt lat="41.32977" lon="1.71411">
        <ele>205.4</ele>
        <time>2020-10-05 19:04:01</time>
      </trkpt>
      <trkpt lat="41.3297" lon="1.71407">
        <ele>206.2</ele>
        <time>2020-10-05 19:04:03</time>
      </trkpt>
      <trkpt lat="41.32964" lon="1.714">
        <ele>206.4</ele>
        <time>2020-10-05 19:04:05</time>
      </trkpt>
      <trkpt lat="41.32961" lon="1.71396">
        <ele>206.6</ele>
        <time>2020-10-05 19:04:06</time>
      </trkpt>
      <trkpt lat="41.32953" lon="1.71389">
        <ele>207.4</ele>
        <time>2020-10-05 19:04:08</time>
      </trkpt>
      <trkpt lat="41.32948" lon="1.71385">
        <ele>208</ele>
        <time>2020-10-05 19:04:09</time>
      </trkpt>
      <trkpt lat="41.32931" lon="1.71369">
        <ele>208.6</ele>
        <time>2020-10-05 19:04:12</time>
      </trkpt>
      <trkpt lat="41.329" lon="1.71339">
        <ele>208.8</ele>
        <time>2020-10-05 19:04:18</time>
      </trkpt>
      <trkpt lat="41.32882" lon="1.71324">
        <ele>209</ele>
        <time>2020-10-05 19:04:22</time>
      </trkpt>
      <trkpt lat="41.32871" lon="1.71316">
        <ele>209</ele>
        <time>2020-10-05 19:04:25</time>
      </trkpt>
      <trkpt lat="41.32848" lon="1.71302">
        <ele>210.4</ele>
        <time>2020-10-05 19:04:31</time>
      </trkpt>
      <trkpt lat="41.3284" lon="1.71298">
        <ele>211.6</ele>
        <time>2020-10-05 19:04:33</time>
      </trkpt>
      <trkpt lat="41.32824" lon="1.71291">
        <ele>212.8</ele>
        <time>2020-10-05 19:04:37</time>
      </trkpt>
      <trkpt lat="41.32813" lon="1.71287">
        <ele>213.6</ele>
        <time>2020-10-05 19:04:40</time>
      </trkpt>
      <trkpt lat="41.32809" lon="1.71285">
        <ele>214</ele>
        <time>2020-10-05 19:04:41</time>
      </trkpt>
      <trkpt lat="41.32792" lon="1.71277">
        <ele>215.2</ele>
        <time>2020-10-05 19:04:45</time>
      </trkpt>
      <trkpt lat="41.32782" lon="1.71273">
        <ele>216</ele>
        <time>2020-10-05 19:04:47</time>
      </trkpt>
      <trkpt lat="41.32745" lon="1.71263">
        <ele>216.2</ele>
        <time>2020-10-05 19:04:53</time>
      </trkpt>
      <trkpt lat="41.32731" lon="1.71262">
        <ele>216</ele>
        <time>2020-10-05 19:04:55</time>
      </trkpt>
      <trkpt lat="41.32715" lon="1.71266">
        <ele>215.2</ele>
        <time>2020-10-05 19:04:57</time>
      </trkpt>
      <trkpt lat="41.3268" lon="1.71276">
        <ele>214.4</ele>
        <time>2020-10-05 19:05:01</time>
      </trkpt>
      <trkpt lat="41.32671" lon="1.71276">
        <ele>213.8</ele>
        <time>2020-10-05 19:05:02</time>
      </trkpt>
      <trkpt lat="41.32661" lon="1.71275">
        <ele>212.8</ele>
        <time>2020-10-05 19:05:03</time>
      </trkpt>
      <trkpt lat="41.32642" lon="1.71273">
        <ele>211.8</ele>
        <time>2020-10-05 19:05:05</time>
      </trkpt>
      <trkpt lat="41.32633" lon="1.71272">
        <ele>211.4</ele>
        <time>2020-10-05 19:05:06</time>
      </trkpt>
      <trkpt lat="41.32624" lon="1.71271">
        <ele>210.6</ele>
        <time>2020-10-05 19:05:07</time>
      </trkpt>
      <trkpt lat="41.32606" lon="1.7127">
        <ele>209</ele>
        <time>2020-10-05 19:05:09</time>
      </trkpt>
      <trkpt lat="41.32598" lon="1.71271">
        <ele>208.4</ele>
        <time>2020-10-05 19:05:10</time>
      </trkpt>
      <trkpt lat="41.3259" lon="1.71275">
        <ele>208.2</ele>
        <time>2020-10-05 19:05:11</time>
      </trkpt>
      <trkpt lat="41.32583" lon="1.71279">
        <ele>208</ele>
        <time>2020-10-05 19:05:12</time>
      </trkpt>
      <trkpt lat="41.32549" lon="1.71306">
        <ele>207.6</ele>
        <time>2020-10-05 19:05:17</time>
      </trkpt>
      <trkpt lat="41.32506" lon="1.71341">
        <ele>208</ele>
        <time>2020-10-05 19:05:24</time>
      </trkpt>
      <trkpt lat="41.32494" lon="1.71352">
        <ele>208</ele>
        <time>2020-10-05 19:05:26</time>
      </trkpt>
      <trkpt lat="41.3248" lon="1.71357">
        <ele>208</ele>
        <time>2020-10-05 19:05:28</time>
      </trkpt>
      <trkpt lat="41.32467" lon="1.7135">
        <ele>208</ele>
        <time>2020-10-05 19:05:30</time>
      </trkpt>
      <trkpt lat="41.32456" lon="1.71338">
        <ele>208</ele>
        <time>2020-10-05 19:05:32</time>
      </trkpt>
      <trkpt lat="41.32441" lon="1.71319">
        <ele>207.8</ele>
        <time>2020-10-05 19:05:35</time>
      </trkpt>
      <trkpt lat="41.32429" lon="1.71306">
        <ele>206.8</ele>
        <time>2020-10-05 19:05:37</time>
      </trkpt>
      <trkpt lat="41.3241" lon="1.7129">
        <ele>206.2</ele>
        <time>2020-10-05 19:05:40</time>
      </trkpt>
      <trkpt lat="41.32403" lon="1.71285">
        <ele>206.2</ele>
        <time>2020-10-05 19:05:41</time>
      </trkpt>
      <trkpt lat="41.32387" lon="1.71287">
        <ele>206</ele>
        <time>2020-10-05 19:05:43</time>
      </trkpt>
      <trkpt lat="41.32374" lon="1.71304">
        <ele>205.8</ele>
        <time>2020-10-05 19:05:45</time>
      </trkpt>
      <trkpt lat="41.32371" lon="1.71316">
        <ele>205.8</ele>
        <time>2020-10-05 19:05:46</time>
      </trkpt>
      <trkpt lat="41.3237" lon="1.71345">
        <ele>205.4</ele>
        <time>2020-10-05 19:05:48</time>
      </trkpt>
      <trkpt lat="41.3237" lon="1.7136">
        <ele>205.2</ele>
        <time>2020-10-05 19:05:49</time>
      </trkpt>
      <trkpt lat="41.3237" lon="1.71374">
        <ele>204.6</ele>
        <time>2020-10-05 19:05:50</time>
      </trkpt>
      <trkpt lat="41.32369" lon="1.71387">
        <ele>203.6</ele>
        <time>2020-10-05 19:05:51</time>
      </trkpt>
      <trkpt lat="41.32366" lon="1.71399">
        <ele>203</ele>
        <time>2020-10-05 19:05:52</time>
      </trkpt>
      <trkpt lat="41.32362" lon="1.71411">
        <ele>202.4</ele>
        <time>2020-10-05 19:05:53</time>
      </trkpt>
      <trkpt lat="41.32354" lon="1.71433">
        <ele>200.4</ele>
        <time>2020-10-05 19:05:55</time>
      </trkpt>
      <trkpt lat="41.3235" lon="1.71443">
        <ele>199</ele>
        <time>2020-10-05 19:05:56</time>
      </trkpt>
      <trkpt lat="41.32346" lon="1.71454">
        <ele>197.8</ele>
        <time>2020-10-05 19:05:57</time>
      </trkpt>
      <trkpt lat="41.32333" lon="1.71487">
        <ele>196.6</ele>
        <time>2020-10-05 19:06:00</time>
      </trkpt>
      <trkpt lat="41.32317" lon="1.71535">
        <ele>196</ele>
        <time>2020-10-05 19:06:04</time>
      </trkpt>
      <trkpt lat="41.3231" lon="1.71561">
        <ele>195.6</ele>
        <time>2020-10-05 19:06:06</time>
      </trkpt>
      <trkpt lat="41.32297" lon="1.71616">
        <ele>194.6</ele>
        <time>2020-10-05 19:06:10</time>
      </trkpt>
      <trkpt lat="41.32287" lon="1.71644">
        <ele>194</ele>
        <time>2020-10-05 19:06:12</time>
      </trkpt>
      <trkpt lat="41.32281" lon="1.71657">
        <ele>193.6</ele>
        <time>2020-10-05 19:06:13</time>
      </trkpt>
      <trkpt lat="41.32274" lon="1.71669">
        <ele>193</ele>
        <time>2020-10-05 19:06:14</time>
      </trkpt>
      <trkpt lat="41.32268" lon="1.71682">
        <ele>192.2</ele>
        <time>2020-10-05 19:06:15</time>
      </trkpt>
      <trkpt lat="41.32263" lon="1.71709">
        <ele>190.6</ele>
        <time>2020-10-05 19:06:17</time>
      </trkpt>
      <trkpt lat="41.32267" lon="1.71736">
        <ele>189.2</ele>
        <time>2020-10-05 19:06:19</time>
      </trkpt>
      <trkpt lat="41.3227" lon="1.71749">
        <ele>187.8</ele>
        <time>2020-10-05 19:06:20</time>
      </trkpt>
      <trkpt lat="41.32275" lon="1.71777">
        <ele>186.4</ele>
        <time>2020-10-05 19:06:22</time>
      </trkpt>
      <trkpt lat="41.32275" lon="1.71792">
        <ele>186.2</ele>
        <time>2020-10-05 19:06:23</time>
      </trkpt>
      <trkpt lat="41.32264" lon="1.71835">
        <ele>185.8</ele>
        <time>2020-10-05 19:06:26</time>
      </trkpt>
      <trkpt lat="41.32258" lon="1.71849">
        <ele>185.8</ele>
        <time>2020-10-05 19:06:27</time>
      </trkpt>
      <trkpt lat="41.32239" lon="1.71889">
        <ele>185</ele>
        <time>2020-10-05 19:06:30</time>
      </trkpt>
      <trkpt lat="41.32233" lon="1.71903">
        <ele>184.4</ele>
        <time>2020-10-05 19:06:31</time>
      </trkpt>
      <trkpt lat="41.32227" lon="1.71917">
        <ele>183.6</ele>
        <time>2020-10-05 19:06:32</time>
      </trkpt>
      <trkpt lat="41.32215" lon="1.71947">
        <ele>182</ele>
        <time>2020-10-05 19:06:34</time>
      </trkpt>
      <trkpt lat="41.32202" lon="1.71977">
        <ele>180.6</ele>
        <time>2020-10-05 19:06:36</time>
      </trkpt>
      <trkpt lat="41.32196" lon="1.71992">
        <ele>180</ele>
        <time>2020-10-05 19:06:37</time>
      </trkpt>
      <trkpt lat="41.32183" lon="1.72022">
        <ele>178.8</ele>
        <time>2020-10-05 19:06:39</time>
      </trkpt>
      <trkpt lat="41.3217" lon="1.72051">
        <ele>177</ele>
        <time>2020-10-05 19:06:41</time>
      </trkpt>
      <trkpt lat="41.32164" lon="1.72065">
        <ele>175.2</ele>
        <time>2020-10-05 19:06:42</time>
      </trkpt>
      <trkpt lat="41.32158" lon="1.72079">
        <ele>173.4</ele>
        <time>2020-10-05 19:06:43</time>
      </trkpt>
      <trkpt lat="41.32153" lon="1.72093">
        <ele>171.8</ele>
        <time>2020-10-05 19:06:44</time>
      </trkpt>
      <trkpt lat="41.32147" lon="1.72106">
        <ele>170.6</ele>
        <time>2020-10-05 19:06:45</time>
      </trkpt>
      <trkpt lat="41.32142" lon="1.72118">
        <ele>169.4</ele>
        <time>2020-10-05 19:06:46</time>
      </trkpt>
      <trkpt lat="41.32126" lon="1.72153">
        <ele>168.4</ele>
        <time>2020-10-05 19:06:49</time>
      </trkpt>
      <trkpt lat="41.32122" lon="1.72165">
        <ele>168.4</ele>
        <time>2020-10-05 19:06:50</time>
      </trkpt>
      <trkpt lat="41.32097" lon="1.72228">
        <ele>168.8</ele>
        <time>2020-10-05 19:06:56</time>
      </trkpt>
      <trkpt lat="41.32095" lon="1.72263">
        <ele>169.8</ele>
        <time>2020-10-05 19:06:59</time>
      </trkpt>
      <trkpt lat="41.32096" lon="1.72276">
        <ele>169.8</ele>
        <time>2020-10-05 19:07:00</time>
      </trkpt>
      <trkpt lat="41.32101" lon="1.72343">
        <ele>170</ele>
        <time>2020-10-05 19:07:05</time>
      </trkpt>
      <trkpt lat="41.32106" lon="1.72413">
        <ele>168.4</ele>
        <time>2020-10-05 19:07:10</time>
      </trkpt>
      <trkpt lat="41.32108" lon="1.72441">
        <ele>166.6</ele>
        <time>2020-10-05 19:07:12</time>
      </trkpt>
      <trkpt lat="41.32112" lon="1.72468">
        <ele>165</ele>
        <time>2020-10-05 19:07:14</time>
      </trkpt>
      <trkpt lat="41.32122" lon="1.72504">
        <ele>163</ele>
        <time>2020-10-05 19:07:17</time>
      </trkpt>
      <trkpt lat="41.32128" lon="1.72513">
        <ele>162.8</ele>
        <time>2020-10-05 19:07:18</time>
      </trkpt>
      <trkpt lat="41.32151" lon="1.72545">
        <ele>162.4</ele>
        <time>2020-10-05 19:07:22</time>
      </trkpt>
      <trkpt lat="41.32158" lon="1.72564">
        <ele>162.4</ele>
        <time>2020-10-05 19:07:24</time>
      </trkpt>
      <trkpt lat="41.32161" lon="1.72574">
        <ele>162.4</ele>
        <time>2020-10-05 19:07:25</time>
      </trkpt>
      <trkpt lat="41.32163" lon="1.72584">
        <ele>162.4</ele>
        <time>2020-10-05 19:07:26</time>
      </trkpt>
      <trkpt lat="41.32163" lon="1.72617">
        <ele>162.8</ele>
        <time>2020-10-05 19:07:29</time>
      </trkpt>
      <trkpt lat="41.32156" lon="1.72636">
        <ele>163</ele>
        <time>2020-10-05 19:07:31</time>
      </trkpt>
      <trkpt lat="41.3214" lon="1.72641">
        <ele>163</ele>
        <time>2020-10-05 19:07:33</time>
      </trkpt>
      <trkpt lat="41.32131" lon="1.7264">
        <ele>163</ele>
        <time>2020-10-05 19:07:34</time>
      </trkpt>
      <trkpt lat="41.321" lon="1.72643">
        <ele>163</ele>
        <time>2020-10-05 19:07:37</time>
      </trkpt>
      <trkpt lat="41.32056" lon="1.72653">
        <ele>162</ele>
        <time>2020-10-05 19:07:41</time>
      </trkpt>
      <trkpt lat="41.32044" lon="1.72654">
        <ele>161.4</ele>
        <time>2020-10-05 19:07:42</time>
      </trkpt>
      <trkpt lat="41.32033" lon="1.72656">
        <ele>160.6</ele>
        <time>2020-10-05 19:07:43</time>
      </trkpt>
      <trkpt lat="41.32009" lon="1.72656">
        <ele>157.6</ele>
        <time>2020-10-05 19:07:45</time>
      </trkpt>
      <trkpt lat="41.31998" lon="1.72655">
        <ele>156.6</ele>
        <time>2020-10-05 19:07:46</time>
      </trkpt>
      <trkpt lat="41.31987" lon="1.72654">
        <ele>155.4</ele>
        <time>2020-10-05 19:07:47</time>
      </trkpt>
      <trkpt lat="41.31976" lon="1.72653">
        <ele>154.4</ele>
        <time>2020-10-05 19:07:48</time>
      </trkpt>
      <trkpt lat="41.31965" lon="1.72651">
        <ele>153.4</ele>
        <time>2020-10-05 19:07:49</time>
      </trkpt>
      <trkpt lat="41.31945" lon="1.72647">
        <ele>151.8</ele>
        <time>2020-10-05 19:07:51</time>
      </trkpt>
      <trkpt lat="41.31925" lon="1.72643">
        <ele>150.8</ele>
        <time>2020-10-05 19:07:53</time>
      </trkpt>
      <trkpt lat="41.3188" lon="1.72639">
        <ele>150.4</ele>
        <time>2020-10-05 19:07:58</time>
      </trkpt>
      <trkpt lat="41.31862" lon="1.72638">
        <ele>150.4</ele>
        <time>2020-10-05 19:08:00</time>
      </trkpt>
      <trkpt lat="41.31846" lon="1.72632">
        <ele>150.6</ele>
        <time>2020-10-05 19:08:02</time>
      </trkpt>
      <trkpt lat="41.318" lon="1.72605">
        <ele>151.6</ele>
        <time>2020-10-05 19:08:08</time>
      </trkpt>
      <trkpt lat="41.31793" lon="1.72601">
        <ele>151.8</ele>
        <time>2020-10-05 19:08:09</time>
      </trkpt>
      <trkpt lat="41.31753" lon="1.72577">
        <ele>152.2</ele>
        <time>2020-10-05 19:08:15</time>
      </trkpt>
      <trkpt lat="41.31734" lon="1.72566">
        <ele>152.8</ele>
        <time>2020-10-05 19:08:18</time>
      </trkpt>
      <trkpt lat="41.3171" lon="1.72553">
        <ele>153.8</ele>
        <time>2020-10-05 19:08:22</time>
      </trkpt>
      <trkpt lat="41.31705" lon="1.72549">
        <ele>154.2</ele>
        <time>2020-10-05 19:08:23</time>
      </trkpt>
      <trkpt lat="41.31681" lon="1.72537">
        <ele>155</ele>
        <time>2020-10-05 19:08:27</time>
      </trkpt>
      <trkpt lat="41.31663" lon="1.72529">
        <ele>156</ele>
        <time>2020-10-05 19:08:30</time>
      </trkpt>
      <trkpt lat="41.3165" lon="1.72512">
        <ele>156.8</ele>
        <time>2020-10-05 19:08:33</time>
      </trkpt>
      <trkpt lat="41.31648" lon="1.72496">
        <ele>156.8</ele>
        <time>2020-10-05 19:08:35</time>
      </trkpt>
      <trkpt lat="41.31648" lon="1.72489">
        <ele>157</ele>
        <time>2020-10-05 19:08:36</time>
      </trkpt>
      <trkpt lat="41.31648" lon="1.72481">
        <ele>157.2</ele>
        <time>2020-10-05 19:08:37</time>
      </trkpt>
      <trkpt lat="41.31646" lon="1.72428">
        <ele>158.2</ele>
        <time>2020-10-05 19:08:44</time>
      </trkpt>
      <trkpt lat="41.31645" lon="1.72421">
        <ele>158.4</ele>
        <time>2020-10-05 19:08:45</time>
      </trkpt>
      <trkpt lat="41.31641" lon="1.72397">
        <ele>159.4</ele>
        <time>2020-10-05 19:08:48</time>
      </trkpt>
      <trkpt lat="41.31639" lon="1.72389">
        <ele>159.8</ele>
        <time>2020-10-05 19:08:49</time>
      </trkpt>
      <trkpt lat="41.31635" lon="1.72381">
        <ele>160</ele>
        <time>2020-10-05 19:08:50</time>
      </trkpt>
      <trkpt lat="41.31615" lon="1.72362">
        <ele>160</ele>
        <time>2020-10-05 19:08:53</time>
      </trkpt>
      <trkpt lat="41.31587" lon="1.72357">
        <ele>160.2</ele>
        <time>2020-10-05 19:08:56</time>
      </trkpt>
      <trkpt lat="41.31568" lon="1.72363">
        <ele>160.2</ele>
        <time>2020-10-05 19:08:58</time>
      </trkpt>
      <trkpt lat="41.3155" lon="1.72369">
        <ele>159.2</ele>
        <time>2020-10-05 19:09:00</time>
      </trkpt>
      <trkpt lat="41.31533" lon="1.72374">
        <ele>157.6</ele>
        <time>2020-10-05 19:09:02</time>
      </trkpt>
      <trkpt lat="41.31519" lon="1.72376">
        <ele>157.2</ele>
        <time>2020-10-05 19:09:04</time>
      </trkpt>
      <trkpt lat="41.3149" lon="1.72375">
        <ele>157</ele>
        <time>2020-10-05 19:09:09</time>
      </trkpt>
      <trkpt lat="41.31485" lon="1.72374">
        <ele>157</ele>
        <time>2020-10-05 19:09:10</time>
      </trkpt>
      <trkpt lat="41.31471" lon="1.7237">
        <ele>159.2</ele>
        <time>2020-10-05 19:09:13</time>
      </trkpt>
      <trkpt lat="41.31466" lon="1.72368">
        <ele>160.2</ele>
        <time>2020-10-05 19:09:14</time>
      </trkpt>
      <trkpt lat="41.31456" lon="1.72364">
        <ele>162.2</ele>
        <time>2020-10-05 19:09:16</time>
      </trkpt>
      <trkpt lat="41.31451" lon="1.72361">
        <ele>163.2</ele>
        <time>2020-10-05 19:09:17</time>
      </trkpt>
      <trkpt lat="41.31447" lon="1.72359">
        <ele>164</ele>
        <time>2020-10-05 19:09:18</time>
      </trkpt>
      <trkpt lat="41.31442" lon="1.72356">
        <ele>164.4</ele>
        <time>2020-10-05 19:09:19</time>
      </trkpt>
      <trkpt lat="41.31438" lon="1.72352">
        <ele>164.8</ele>
        <time>2020-10-05 19:09:20</time>
      </trkpt>
      <trkpt lat="41.31434" lon="1.72348">
        <ele>165.4</ele>
        <time>2020-10-05 19:09:21</time>
      </trkpt>
      <trkpt lat="41.31425" lon="1.7234">
        <ele>166.6</ele>
        <time>2020-10-05 19:09:23</time>
      </trkpt>
      <trkpt lat="41.31421" lon="1.72335">
        <ele>167.2</ele>
        <time>2020-10-05 19:09:24</time>
      </trkpt>
      <trkpt lat="41.31418" lon="1.72331">
        <ele>167.8</ele>
        <time>2020-10-05 19:09:25</time>
      </trkpt>
      <trkpt lat="41.31414" lon="1.72326">
        <ele>168.4</ele>
        <time>2020-10-05 19:09:26</time>
      </trkpt>
      <trkpt lat="41.3141" lon="1.72321">
        <ele>169</ele>
        <time>2020-10-05 19:09:27</time>
      </trkpt>
      <trkpt lat="41.31403" lon="1.72311">
        <ele>170.6</ele>
        <time>2020-10-05 19:09:29</time>
      </trkpt>
      <trkpt lat="41.31393" lon="1.72297">
        <ele>172.4</ele>
        <time>2020-10-05 19:09:32</time>
      </trkpt>
      <trkpt lat="41.3139" lon="1.72292">
        <ele>173.2</ele>
        <time>2020-10-05 19:09:33</time>
      </trkpt>
      <trkpt lat="41.31386" lon="1.72287">
        <ele>174</ele>
        <time>2020-10-05 19:09:34</time>
      </trkpt>
      <trkpt lat="41.31379" lon="1.72277">
        <ele>175.6</ele>
        <time>2020-10-05 19:09:36</time>
      </trkpt>
      <trkpt lat="41.31372" lon="1.72268">
        <ele>177.4</ele>
        <time>2020-10-05 19:09:38</time>
      </trkpt>
      <trkpt lat="41.31369" lon="1.72264">
        <ele>178</ele>
        <time>2020-10-05 19:09:39</time>
      </trkpt>
      <trkpt lat="41.31366" lon="1.72259">
        <ele>178.4</ele>
        <time>2020-10-05 19:09:40</time>
      </trkpt>
      <trkpt lat="41.31359" lon="1.7225">
        <ele>179.4</ele>
        <time>2020-10-05 19:09:42</time>
      </trkpt>
      <trkpt lat="41.31356" lon="1.72246">
        <ele>179.8</ele>
        <time>2020-10-05 19:09:43</time>
      </trkpt>
      <trkpt lat="41.31349" lon="1.72238">
        <ele>181</ele>
        <time>2020-10-05 19:09:45</time>
      </trkpt>
      <trkpt lat="41.31342" lon="1.7223">
        <ele>182.2</ele>
        <time>2020-10-05 19:09:47</time>
      </trkpt>
      <trkpt lat="41.31334" lon="1.72223">
        <ele>183.4</ele>
        <time>2020-10-05 19:09:49</time>
      </trkpt>
      <trkpt lat="41.31327" lon="1.72216">
        <ele>184.4</ele>
        <time>2020-10-05 19:09:51</time>
      </trkpt>
      <trkpt lat="41.3132" lon="1.7221">
        <ele>185.6</ele>
        <time>2020-10-05 19:09:53</time>
      </trkpt>
      <trkpt lat="41.31313" lon="1.72204">
        <ele>186.6</ele>
        <time>2020-10-05 19:09:55</time>
      </trkpt>
      <trkpt lat="41.31305" lon="1.72198">
        <ele>187.6</ele>
        <time>2020-10-05 19:09:57</time>
      </trkpt>
      <trkpt lat="41.31294" lon="1.72191">
        <ele>188.8</ele>
        <time>2020-10-05 19:10:00</time>
      </trkpt>
      <trkpt lat="41.31283" lon="1.72184">
        <ele>190</ele>
        <time>2020-10-05 19:10:03</time>
      </trkpt>
      <trkpt lat="41.31275" lon="1.7218">
        <ele>191</ele>
        <time>2020-10-05 19:10:05</time>
      </trkpt>
      <trkpt lat="41.31272" lon="1.72178">
        <ele>191.4</ele>
        <time>2020-10-05 19:10:06</time>
      </trkpt>
      <trkpt lat="41.31264" lon="1.72173">
        <ele>192.8</ele>
        <time>2020-10-05 19:10:08</time>
      </trkpt>
      <trkpt lat="41.31253" lon="1.72166">
        <ele>194</ele>
        <time>2020-10-05 19:10:11</time>
      </trkpt>
      <trkpt lat="41.31243" lon="1.7216">
        <ele>195.4</ele>
        <time>2020-10-05 19:10:14</time>
      </trkpt>
      <trkpt lat="41.31236" lon="1.72156">
        <ele>196.6</ele>
        <time>2020-10-05 19:10:16</time>
      </trkpt>
      <trkpt lat="41.31229" lon="1.72151">
        <ele>197.6</ele>
        <time>2020-10-05 19:10:18</time>
      </trkpt>
      <trkpt lat="41.31226" lon="1.72149">
        <ele>198</ele>
        <time>2020-10-05 19:10:19</time>
      </trkpt>
      <trkpt lat="41.31217" lon="1.7214">
        <ele>199.4</ele>
        <time>2020-10-05 19:10:22</time>
      </trkpt>
      <trkpt lat="41.31208" lon="1.72131">
        <ele>200.4</ele>
        <time>2020-10-05 19:10:25</time>
      </trkpt>
      <trkpt lat="41.31199" lon="1.7212">
        <ele>201.8</ele>
        <time>2020-10-05 19:10:28</time>
      </trkpt>
      <trkpt lat="41.3119" lon="1.7211">
        <ele>202.8</ele>
        <time>2020-10-05 19:10:31</time>
      </trkpt>
      <trkpt lat="41.31181" lon="1.72099">
        <ele>203.8</ele>
        <time>2020-10-05 19:10:34</time>
      </trkpt>
      <trkpt lat="41.31175" lon="1.72091">
        <ele>205</ele>
        <time>2020-10-05 19:10:36</time>
      </trkpt>
      <trkpt lat="41.31163" lon="1.72077">
        <ele>206.4</ele>
        <time>2020-10-05 19:10:40</time>
      </trkpt>
      <trkpt lat="41.3116" lon="1.72073">
        <ele>206.8</ele>
        <time>2020-10-05 19:10:41</time>
      </trkpt>
      <trkpt lat="41.31152" lon="1.72061">
        <ele>207.8</ele>
        <time>2020-10-05 19:10:44</time>
      </trkpt>
      <trkpt lat="41.3114" lon="1.72045">
        <ele>209.2</ele>
        <time>2020-10-05 19:10:48</time>
      </trkpt>
      <trkpt lat="41.31131" lon="1.72033">
        <ele>210.2</ele>
        <time>2020-10-05 19:10:51</time>
      </trkpt>
      <trkpt lat="41.31128" lon="1.72029">
        <ele>210.6</ele>
        <time>2020-10-05 19:10:52</time>
      </trkpt>
      <trkpt lat="41.31122" lon="1.7202">
        <ele>211.4</ele>
        <time>2020-10-05 19:10:54</time>
      </trkpt>
      <trkpt lat="41.31109" lon="1.72004">
        <ele>212.6</ele>
        <time>2020-10-05 19:10:58</time>
      </trkpt>
      <trkpt lat="41.311" lon="1.71992">
        <ele>213.8</ele>
        <time>2020-10-05 19:11:01</time>
      </trkpt>
      <trkpt lat="41.31097" lon="1.71988">
        <ele>214.4</ele>
        <time>2020-10-05 19:11:02</time>
      </trkpt>
      <trkpt lat="41.31093" lon="1.71985">
        <ele>215.2</ele>
        <time>2020-10-05 19:11:03</time>
      </trkpt>
      <trkpt lat="41.3109" lon="1.7198">
        <ele>215.6</ele>
        <time>2020-10-05 19:11:04</time>
      </trkpt>
      <trkpt lat="41.31084" lon="1.71971">
        <ele>216.4</ele>
        <time>2020-10-05 19:11:06</time>
      </trkpt>
      <trkpt lat="41.31075" lon="1.71958">
        <ele>217.6</ele>
        <time>2020-10-05 19:11:09</time>
      </trkpt>
      <trkpt lat="41.31065" lon="1.71945">
        <ele>218.6</ele>
        <time>2020-10-05 19:11:12</time>
      </trkpt>
      <trkpt lat="41.31059" lon="1.71936">
        <ele>219.2</ele>
        <time>2020-10-05 19:11:14</time>
      </trkpt>
      <trkpt lat="41.31052" lon="1.71928">
        <ele>219.8</ele>
        <time>2020-10-05 19:11:16</time>
      </trkpt>
      <trkpt lat="41.31039" lon="1.7191">
        <ele>221</ele>
        <time>2020-10-05 19:11:20</time>
      </trkpt>
      <trkpt lat="41.3103" lon="1.71896">
        <ele>222.2</ele>
        <time>2020-10-05 19:11:23</time>
      </trkpt>
      <trkpt lat="41.31021" lon="1.71882">
        <ele>223.2</ele>
        <time>2020-10-05 19:11:26</time>
      </trkpt>
      <trkpt lat="41.3101" lon="1.71864">
        <ele>224.4</ele>
        <time>2020-10-05 19:11:30</time>
      </trkpt>
      <trkpt lat="41.31007" lon="1.71859">
        <ele>225</ele>
        <time>2020-10-05 19:11:31</time>
      </trkpt>
      <trkpt lat="41.31002" lon="1.7185">
        <ele>225.8</ele>
        <time>2020-10-05 19:11:33</time>
      </trkpt>
      <trkpt lat="41.30994" lon="1.71835">
        <ele>226.8</ele>
        <time>2020-10-05 19:11:36</time>
      </trkpt>
      <trkpt lat="41.30986" lon="1.71821">
        <ele>228</ele>
        <time>2020-10-05 19:11:39</time>
      </trkpt>
      <trkpt lat="41.3098" lon="1.71811">
        <ele>228.4</ele>
        <time>2020-10-05 19:11:41</time>
      </trkpt>
      <trkpt lat="41.30975" lon="1.71802">
        <ele>229.2</ele>
        <time>2020-10-05 19:11:43</time>
      </trkpt>
      <trkpt lat="41.30969" lon="1.71792">
        <ele>229.8</ele>
        <time>2020-10-05 19:11:45</time>
      </trkpt>
      <trkpt lat="41.30963" lon="1.71783">
        <ele>230.4</ele>
        <time>2020-10-05 19:11:47</time>
      </trkpt>
      <trkpt lat="41.3096" lon="1.71778">
        <ele>230.6</ele>
        <time>2020-10-05 19:11:48</time>
      </trkpt>
      <trkpt lat="41.30952" lon="1.71763">
        <ele>231.6</ele>
        <time>2020-10-05 19:11:51</time>
      </trkpt>
      <trkpt lat="41.30943" lon="1.71748">
        <ele>232.6</ele>
        <time>2020-10-05 19:11:54</time>
      </trkpt>
      <trkpt lat="41.30934" lon="1.71733">
        <ele>234</ele>
        <time>2020-10-05 19:11:57</time>
      </trkpt>
      <trkpt lat="41.30927" lon="1.71723">
        <ele>235</ele>
        <time>2020-10-05 19:11:59</time>
      </trkpt>
      <trkpt lat="41.3091" lon="1.71699">
        <ele>236.2</ele>
        <time>2020-10-05 19:12:04</time>
      </trkpt>
      <trkpt lat="41.30896" lon="1.7168">
        <ele>237.2</ele>
        <time>2020-10-05 19:12:08</time>
      </trkpt>
      <trkpt lat="41.30881" lon="1.71663">
        <ele>238.2</ele>
        <time>2020-10-05 19:12:12</time>
      </trkpt>
      <trkpt lat="41.30877" lon="1.71658">
        <ele>238.4</ele>
        <time>2020-10-05 19:12:13</time>
      </trkpt>
      <trkpt lat="41.30858" lon="1.71636">
        <ele>239.4</ele>
        <time>2020-10-05 19:12:18</time>
      </trkpt>
      <trkpt lat="41.30847" lon="1.71623">
        <ele>240.4</ele>
        <time>2020-10-05 19:12:21</time>
      </trkpt>
      <trkpt lat="41.30839" lon="1.71615">
        <ele>241</ele>
        <time>2020-10-05 19:12:23</time>
      </trkpt>
      <trkpt lat="41.30828" lon="1.71602">
        <ele>241.6</ele>
        <time>2020-10-05 19:12:26</time>
      </trkpt>
      <trkpt lat="41.30816" lon="1.71589">
        <ele>242.6</ele>
        <time>2020-10-05 19:12:29</time>
      </trkpt>
      <trkpt lat="41.30805" lon="1.71576">
        <ele>243.4</ele>
        <time>2020-10-05 19:12:32</time>
      </trkpt>
      <trkpt lat="41.30802" lon="1.71573">
        <ele>243.6</ele>
        <time>2020-10-05 19:12:33</time>
      </trkpt>
      <trkpt lat="41.30788" lon="1.71557">
        <ele>244.8</ele>
        <time>2020-10-05 19:12:37</time>
      </trkpt>
      <trkpt lat="41.30778" lon="1.71545">
        <ele>245.8</ele>
        <time>2020-10-05 19:12:40</time>
      </trkpt>
      <trkpt lat="41.30768" lon="1.71533">
        <ele>247</ele>
        <time>2020-10-05 19:12:43</time>
      </trkpt>
      <trkpt lat="41.30757" lon="1.71523">
        <ele>248.2</ele>
        <time>2020-10-05 19:12:46</time>
      </trkpt>
      <trkpt lat="41.30754" lon="1.71519">
        <ele>248.4</ele>
        <time>2020-10-05 19:12:47</time>
      </trkpt>
      <trkpt lat="41.30745" lon="1.71507">
        <ele>249.4</ele>
        <time>2020-10-05 19:12:50</time>
      </trkpt>
      <trkpt lat="41.30736" lon="1.71495">
        <ele>250.6</ele>
        <time>2020-10-05 19:12:53</time>
      </trkpt>
      <trkpt lat="41.30729" lon="1.71488">
        <ele>251.6</ele>
        <time>2020-10-05 19:12:55</time>
      </trkpt>
      <trkpt lat="41.30723" lon="1.71481">
        <ele>252.4</ele>
        <time>2020-10-05 19:12:57</time>
      </trkpt>
      <trkpt lat="41.3072" lon="1.71477">
        <ele>252.8</ele>
        <time>2020-10-05 19:12:58</time>
      </trkpt>
      <trkpt lat="41.3071" lon="1.71466">
        <ele>253.8</ele>
        <time>2020-10-05 19:13:01</time>
      </trkpt>
      <trkpt lat="41.30701" lon="1.71455">
        <ele>254.8</ele>
        <time>2020-10-05 19:13:04</time>
      </trkpt>
      <trkpt lat="41.30692" lon="1.71444">
        <ele>256.4</ele>
        <time>2020-10-05 19:13:07</time>
      </trkpt>
      <trkpt lat="41.30683" lon="1.71434">
        <ele>257.8</ele>
        <time>2020-10-05 19:13:10</time>
      </trkpt>
      <trkpt lat="41.30673" lon="1.71423">
        <ele>259</ele>
        <time>2020-10-05 19:13:13</time>
      </trkpt>
      <trkpt lat="41.30661" lon="1.71409">
        <ele>260.2</ele>
        <time>2020-10-05 19:13:17</time>
      </trkpt>
      <trkpt lat="41.30649" lon="1.71394">
        <ele>261.4</ele>
        <time>2020-10-05 19:13:21</time>
      </trkpt>
      <trkpt lat="41.3064" lon="1.71382">
        <ele>262.6</ele>
        <time>2020-10-05 19:13:24</time>
      </trkpt>
      <trkpt lat="41.30631" lon="1.7137">
        <ele>263.6</ele>
        <time>2020-10-05 19:13:27</time>
      </trkpt>
      <trkpt lat="41.30628" lon="1.71366">
        <ele>263.8</ele>
        <time>2020-10-05 19:13:28</time>
      </trkpt>
      <trkpt lat="41.30617" lon="1.71349">
        <ele>265.2</ele>
        <time>2020-10-05 19:13:32</time>
      </trkpt>
      <trkpt lat="41.30608" lon="1.71336">
        <ele>266.2</ele>
        <time>2020-10-05 19:13:35</time>
      </trkpt>
      <trkpt lat="41.30606" lon="1.71331">
        <ele>266.6</ele>
        <time>2020-10-05 19:13:36</time>
      </trkpt>
      <trkpt lat="41.30601" lon="1.71321">
        <ele>267.2</ele>
        <time>2020-10-05 19:13:38</time>
      </trkpt>
      <trkpt lat="41.30599" lon="1.71316">
        <ele>267.6</ele>
        <time>2020-10-05 19:13:39</time>
      </trkpt>
      <trkpt lat="41.30592" lon="1.71301">
        <ele>268.6</ele>
        <time>2020-10-05 19:13:42</time>
      </trkpt>
      <trkpt lat="41.3059" lon="1.71296">
        <ele>269</ele>
        <time>2020-10-05 19:13:43</time>
      </trkpt>
      <trkpt lat="41.30587" lon="1.71285">
        <ele>269.6</ele>
        <time>2020-10-05 19:13:45</time>
      </trkpt>
      <trkpt lat="41.30581" lon="1.71269">
        <ele>270.8</ele>
        <time>2020-10-05 19:13:48</time>
      </trkpt>
      <trkpt lat="41.30576" lon="1.71252">
        <ele>271.8</ele>
        <time>2020-10-05 19:13:51</time>
      </trkpt>
      <trkpt lat="41.30574" lon="1.71246">
        <ele>272.2</ele>
        <time>2020-10-05 19:13:52</time>
      </trkpt>
      <trkpt lat="41.3057" lon="1.71229">
        <ele>273</ele>
        <time>2020-10-05 19:13:55</time>
      </trkpt>
      <trkpt lat="41.30563" lon="1.71207">
        <ele>274</ele>
        <time>2020-10-05 19:13:59</time>
      </trkpt>
      <trkpt lat="41.3056" lon="1.71202">
        <ele>274.2</ele>
        <time>2020-10-05 19:14:00</time>
      </trkpt>
      <trkpt lat="41.30554" lon="1.71187">
        <ele>275</ele>
        <time>2020-10-05 19:14:03</time>
      </trkpt>
      <trkpt lat="41.30552" lon="1.71182">
        <ele>275.4</ele>
        <time>2020-10-05 19:14:04</time>
      </trkpt>
      <trkpt lat="41.30544" lon="1.71167">
        <ele>276</ele>
        <time>2020-10-05 19:14:07</time>
      </trkpt>
      <trkpt lat="41.30536" lon="1.71154">
        <ele>276.4</ele>
        <time>2020-10-05 19:14:10</time>
      </trkpt>
      <trkpt lat="41.30524" lon="1.71137">
        <ele>277.6</ele>
        <time>2020-10-05 19:14:14</time>
      </trkpt>
      <trkpt lat="41.30518" lon="1.7113">
        <ele>278.2</ele>
        <time>2020-10-05 19:14:16</time>
      </trkpt>
      <trkpt lat="41.30514" lon="1.71126">
        <ele>278.8</ele>
        <time>2020-10-05 19:14:17</time>
      </trkpt>
      <trkpt lat="41.30508" lon="1.71118">
        <ele>280</ele>
        <time>2020-10-05 19:14:19</time>
      </trkpt>
      <trkpt lat="41.30498" lon="1.71108">
        <ele>281</ele>
        <time>2020-10-05 19:14:22</time>
      </trkpt>
      <trkpt lat="41.30487" lon="1.71099">
        <ele>281.8</ele>
        <time>2020-10-05 19:14:25</time>
      </trkpt>
      <trkpt lat="41.30484" lon="1.71096">
        <ele>282</ele>
        <time>2020-10-05 19:14:26</time>
      </trkpt>
      <trkpt lat="41.30471" lon="1.71083">
        <ele>283.4</ele>
        <time>2020-10-05 19:14:30</time>
      </trkpt>
      <trkpt lat="41.30459" lon="1.71073">
        <ele>284.4</ele>
        <time>2020-10-05 19:14:33</time>
      </trkpt>
      <trkpt lat="41.30446" lon="1.71059">
        <ele>285.6</ele>
        <time>2020-10-05 19:14:37</time>
      </trkpt>
      <trkpt lat="41.30442" lon="1.71056">
        <ele>285.8</ele>
        <time>2020-10-05 19:14:38</time>
      </trkpt>
      <trkpt lat="41.30437" lon="1.71041">
        <ele>286.8</ele>
        <time>2020-10-05 19:14:41</time>
      </trkpt>
      <trkpt lat="41.30442" lon="1.71026">
        <ele>287.6</ele>
        <time>2020-10-05 19:14:44</time>
      </trkpt>
      <trkpt lat="41.30445" lon="1.71022">
        <ele>287.8</ele>
        <time>2020-10-05 19:14:45</time>
      </trkpt>
      <trkpt lat="41.30452" lon="1.71015">
        <ele>289</ele>
        <time>2020-10-05 19:14:47</time>
      </trkpt>
      <trkpt lat="41.30456" lon="1.71012">
        <ele>289.2</ele>
        <time>2020-10-05 19:14:48</time>
      </trkpt>
      <trkpt lat="41.30464" lon="1.71006">
        <ele>290.2</ele>
        <time>2020-10-05 19:14:50</time>
      </trkpt>
      <trkpt lat="41.30475" lon="1.70996">
        <ele>291.2</ele>
        <time>2020-10-05 19:14:53</time>
      </trkpt>
      <trkpt lat="41.30479" lon="1.70986">
        <ele>291.8</ele>
        <time>2020-10-05 19:14:55</time>
      </trkpt>
      <trkpt lat="41.30476" lon="1.70971">
        <ele>292.6</ele>
        <time>2020-10-05 19:14:58</time>
      </trkpt>
      <trkpt lat="41.30464" lon="1.70967">
        <ele>293.4</ele>
        <time>2020-10-05 19:15:01</time>
      </trkpt>
      <trkpt lat="41.30459" lon="1.70968">
        <ele>293.6</ele>
        <time>2020-10-05 19:15:02</time>
      </trkpt>
      <trkpt lat="41.30451" lon="1.7097">
        <ele>294</ele>
        <time>2020-10-05 19:15:04</time>
      </trkpt>
      <trkpt lat="41.30442" lon="1.70974">
        <ele>294.8</ele>
        <time>2020-10-05 19:15:06</time>
      </trkpt>
      <trkpt lat="41.30438" lon="1.70976">
        <ele>295</ele>
        <time>2020-10-05 19:15:07</time>
      </trkpt>
      <trkpt lat="41.30427" lon="1.70981">
        <ele>296</ele>
        <time>2020-10-05 19:15:10</time>
      </trkpt>
      <trkpt lat="41.30422" lon="1.70985">
        <ele>296.4</ele>
        <time>2020-10-05 19:15:12</time>
      </trkpt>
      <trkpt lat="41.30419" lon="1.70987">
        <ele>297.2</ele>
        <time>2020-10-05 19:15:14</time>
      </trkpt>
      <trkpt lat="41.30417" lon="1.70989">
        <ele>297.6</ele>
        <time>2020-10-05 19:15:16</time>
      </trkpt>
      <trkpt lat="41.30416" lon="1.7099">
        <ele>297.8</ele>
        <time>2020-10-05 19:15:17</time>
      </trkpt>
      <trkpt lat="41.30413" lon="1.70992">
        <ele>298.4</ele>
        <time>2020-10-05 19:15:19</time>
      </trkpt>
      <trkpt lat="41.30411" lon="1.70994">
        <ele>299.2</ele>
        <time>2020-10-05 19:15:21</time>
      </trkpt>
      <trkpt lat="41.3041" lon="1.70996">
        <ele>299.8</ele>
        <time>2020-10-05 19:15:22</time>
      </trkpt>
      <trkpt lat="41.30409" lon="1.70997">
        <ele>300.2</ele>
        <time>2020-10-05 19:15:23</time>
      </trkpt>
      <trkpt lat="41.30405" lon="1.71004">
        <ele>300.8</ele>
        <time>2020-10-05 19:15:28</time>
      </trkpt>
      <trkpt lat="41.30404" lon="1.71005">
        <ele>301</ele>
        <time>2020-10-05 19:15:29</time>
      </trkpt>
      <trkpt lat="41.30398" lon="1.71006">
        <ele>301.2</ele>
        <time>2020-10-05 19:15:34</time>
      </trkpt>
      <trkpt lat="41.30395" lon="1.71008">
        <ele>301.2</ele>
        <time>2020-10-05 19:15:36</time>
      </trkpt>
      <trkpt lat="41.30441" lon="1.70958">
        <ele>316.2</ele>
        <time>2020-10-05 19:23:55</time>
      </trkpt>
      <trkpt lat="41.30443" lon="1.70958">
        <ele>316</ele>
        <time>2020-10-05 19:23:56</time>
      </trkpt>
      <trkpt lat="41.30446" lon="1.70958">
        <ele>315.8</ele>
        <time>2020-10-05 19:23:57</time>
      </trkpt>
      <trkpt lat="41.30449" lon="1.70959">
        <ele>315.4</ele>
        <time>2020-10-05 19:23:58</time>
      </trkpt>
      <trkpt lat="41.30453" lon="1.7096">
        <ele>315</ele>
        <time>2020-10-05 19:23:59</time>
      </trkpt>
      <trkpt lat="41.30458" lon="1.70961">
        <ele>314.8</ele>
        <time>2020-10-05 19:24:00</time>
      </trkpt>
      <trkpt lat="41.30467" lon="1.70964">
        <ele>313.6</ele>
        <time>2020-10-05 19:24:02</time>
      </trkpt>
      <trkpt lat="41.30473" lon="1.70967">
        <ele>313.2</ele>
        <time>2020-10-05 19:24:03</time>
      </trkpt>
      <trkpt lat="41.30477" lon="1.70973">
        <ele>312.6</ele>
        <time>2020-10-05 19:24:04</time>
      </trkpt>
      <trkpt lat="41.3048" lon="1.70981">
        <ele>311.6</ele>
        <time>2020-10-05 19:24:05</time>
      </trkpt>
      <trkpt lat="41.30478" lon="1.7099">
        <ele>310.6</ele>
        <time>2020-10-05 19:24:06</time>
      </trkpt>
      <trkpt lat="41.30474" lon="1.70999">
        <ele>309.8</ele>
        <time>2020-10-05 19:24:07</time>
      </trkpt>
      <trkpt lat="41.30467" lon="1.71006">
        <ele>308.8</ele>
        <time>2020-10-05 19:24:08</time>
      </trkpt>
      <trkpt lat="41.3045" lon="1.71015">
        <ele>307.2</ele>
        <time>2020-10-05 19:24:10</time>
      </trkpt>
      <trkpt lat="41.30442" lon="1.71021">
        <ele>306.6</ele>
        <time>2020-10-05 19:24:11</time>
      </trkpt>
      <trkpt lat="41.30437" lon="1.7103">
        <ele>305.2</ele>
        <time>2020-10-05 19:24:12</time>
      </trkpt>
      <trkpt lat="41.30435" lon="1.7104">
        <ele>307.8</ele>
        <time>2020-10-05 19:24:13</time>
      </trkpt>
      <trkpt lat="41.30438" lon="1.71051">
        <ele>308.8</ele>
        <time>2020-10-05 19:24:14</time>
      </trkpt>
      <trkpt lat="41.30452" lon="1.71071">
        <ele>308.4</ele>
        <time>2020-10-05 19:24:16</time>
      </trkpt>
      <trkpt lat="41.30461" lon="1.71079">
        <ele>307.8</ele>
        <time>2020-10-05 19:24:17</time>
      </trkpt>
      <trkpt lat="41.3048" lon="1.71096">
        <ele>306.6</ele>
        <time>2020-10-05 19:24:19</time>
      </trkpt>
      <trkpt lat="41.30499" lon="1.71115">
        <ele>305.2</ele>
        <time>2020-10-05 19:24:21</time>
      </trkpt>
      <trkpt lat="41.30509" lon="1.71125">
        <ele>304.2</ele>
        <time>2020-10-05 19:24:22</time>
      </trkpt>
      <trkpt lat="41.30527" lon="1.71148">
        <ele>302.2</ele>
        <time>2020-10-05 19:24:24</time>
      </trkpt>
      <trkpt lat="41.30536" lon="1.71161">
        <ele>301.2</ele>
        <time>2020-10-05 19:24:25</time>
      </trkpt>
      <trkpt lat="41.30544" lon="1.71175">
        <ele>300</ele>
        <time>2020-10-05 19:24:26</time>
      </trkpt>
      <trkpt lat="41.30552" lon="1.71189">
        <ele>298.6</ele>
        <time>2020-10-05 19:24:27</time>
      </trkpt>
      <trkpt lat="41.30558" lon="1.71205">
        <ele>297.6</ele>
        <time>2020-10-05 19:24:28</time>
      </trkpt>
      <trkpt lat="41.30564" lon="1.71222">
        <ele>296.4</ele>
        <time>2020-10-05 19:24:29</time>
      </trkpt>
      <trkpt lat="41.30574" lon="1.71256">
        <ele>294.6</ele>
        <time>2020-10-05 19:24:31</time>
      </trkpt>
      <trkpt lat="41.30585" lon="1.7129">
        <ele>292.6</ele>
        <time>2020-10-05 19:24:33</time>
      </trkpt>
      <trkpt lat="41.30598" lon="1.71322">
        <ele>291</ele>
        <time>2020-10-05 19:24:35</time>
      </trkpt>
      <trkpt lat="41.30615" lon="1.71354">
        <ele>289.2</ele>
        <time>2020-10-05 19:24:37</time>
      </trkpt>
      <trkpt lat="41.30634" lon="1.71383">
        <ele>287.8</ele>
        <time>2020-10-05 19:24:39</time>
      </trkpt>
      <trkpt lat="41.30656" lon="1.7141">
        <ele>284.6</ele>
        <time>2020-10-05 19:24:41</time>
      </trkpt>
      <trkpt lat="41.30667" lon="1.71424">
        <ele>283.4</ele>
        <time>2020-10-05 19:24:42</time>
      </trkpt>
      <trkpt lat="41.3069" lon="1.71451">
        <ele>281.6</ele>
        <time>2020-10-05 19:24:44</time>
      </trkpt>
      <trkpt lat="41.30714" lon="1.71478">
        <ele>279.4</ele>
        <time>2020-10-05 19:24:46</time>
      </trkpt>
      <trkpt lat="41.30726" lon="1.71492">
        <ele>278.2</ele>
        <time>2020-10-05 19:24:47</time>
      </trkpt>
      <trkpt lat="41.30738" lon="1.71506">
        <ele>277</ele>
        <time>2020-10-05 19:24:48</time>
      </trkpt>
      <trkpt lat="41.30751" lon="1.7152">
        <ele>275.8</ele>
        <time>2020-10-05 19:24:49</time>
      </trkpt>
      <trkpt lat="41.30763" lon="1.71535">
        <ele>274.6</ele>
        <time>2020-10-05 19:24:50</time>
      </trkpt>
      <trkpt lat="41.30775" lon="1.71549">
        <ele>273</ele>
        <time>2020-10-05 19:24:51</time>
      </trkpt>
      <trkpt lat="41.30787" lon="1.71563">
        <ele>271.6</ele>
        <time>2020-10-05 19:24:52</time>
      </trkpt>
      <trkpt lat="41.308" lon="1.71577">
        <ele>270</ele>
        <time>2020-10-05 19:24:53</time>
      </trkpt>
      <trkpt lat="41.30812" lon="1.71591">
        <ele>268.4</ele>
        <time>2020-10-05 19:24:54</time>
      </trkpt>
      <trkpt lat="41.30824" lon="1.71605">
        <ele>266.8</ele>
        <time>2020-10-05 19:24:55</time>
      </trkpt>
      <trkpt lat="41.30836" lon="1.71619">
        <ele>265.2</ele>
        <time>2020-10-05 19:24:56</time>
      </trkpt>
      <trkpt lat="41.30848" lon="1.71633">
        <ele>263.4</ele>
        <time>2020-10-05 19:24:57</time>
      </trkpt>
      <trkpt lat="41.3086" lon="1.71646">
        <ele>261.4</ele>
        <time>2020-10-05 19:24:58</time>
      </trkpt>
      <trkpt lat="41.30871" lon="1.71659">
        <ele>259.6</ele>
        <time>2020-10-05 19:24:59</time>
      </trkpt>
      <trkpt lat="41.30882" lon="1.71673">
        <ele>257.8</ele>
        <time>2020-10-05 19:25:00</time>
      </trkpt>
      <trkpt lat="41.30893" lon="1.71686">
        <ele>256.4</ele>
        <time>2020-10-05 19:25:01</time>
      </trkpt>
      <trkpt lat="41.30904" lon="1.71699">
        <ele>255</ele>
        <time>2020-10-05 19:25:02</time>
      </trkpt>
      <trkpt lat="41.30914" lon="1.71713">
        <ele>253.8</ele>
        <time>2020-10-05 19:25:03</time>
      </trkpt>
      <trkpt lat="41.30924" lon="1.71727">
        <ele>252.8</ele>
        <time>2020-10-05 19:25:04</time>
      </trkpt>
      <trkpt lat="41.30944" lon="1.71756">
        <ele>251</ele>
        <time>2020-10-05 19:25:06</time>
      </trkpt>
      <trkpt lat="41.30961" lon="1.71786">
        <ele>249.4</ele>
        <time>2020-10-05 19:25:08</time>
      </trkpt>
      <trkpt lat="41.30987" lon="1.71832">
        <ele>248.2</ele>
        <time>2020-10-05 19:25:11</time>
      </trkpt>
      <trkpt lat="41.31006" lon="1.71862">
        <ele>246.6</ele>
        <time>2020-10-05 19:25:13</time>
      </trkpt>
      <trkpt lat="41.31024" lon="1.71893">
        <ele>245.4</ele>
        <time>2020-10-05 19:25:15</time>
      </trkpt>
      <trkpt lat="41.31034" lon="1.71908">
        <ele>244.6</ele>
        <time>2020-10-05 19:25:16</time>
      </trkpt>
      <trkpt lat="41.31044" lon="1.71923">
        <ele>243.8</ele>
        <time>2020-10-05 19:25:17</time>
      </trkpt>
      <trkpt lat="41.31065" lon="1.71953">
        <ele>242</ele>
        <time>2020-10-05 19:25:19</time>
      </trkpt>
      <trkpt lat="41.31087" lon="1.71981">
        <ele>240</ele>
        <time>2020-10-05 19:25:21</time>
      </trkpt>
      <trkpt lat="41.31098" lon="1.71995">
        <ele>239</ele>
        <time>2020-10-05 19:25:22</time>
      </trkpt>
      <trkpt lat="41.31109" lon="1.72009">
        <ele>237.6</ele>
        <time>2020-10-05 19:25:23</time>
      </trkpt>
      <trkpt lat="41.3112" lon="1.72023">
        <ele>236</ele>
        <time>2020-10-05 19:25:24</time>
      </trkpt>
      <trkpt lat="41.31131" lon="1.72038">
        <ele>234.4</ele>
        <time>2020-10-05 19:25:25</time>
      </trkpt>
      <trkpt lat="41.31141" lon="1.72053">
        <ele>233</ele>
        <time>2020-10-05 19:25:26</time>
      </trkpt>
      <trkpt lat="41.31152" lon="1.72068">
        <ele>231.8</ele>
        <time>2020-10-05 19:25:27</time>
      </trkpt>
      <trkpt lat="41.31163" lon="1.72083">
        <ele>230.8</ele>
        <time>2020-10-05 19:25:28</time>
      </trkpt>
      <trkpt lat="41.31175" lon="1.72097">
        <ele>229.8</ele>
        <time>2020-10-05 19:25:29</time>
      </trkpt>
      <trkpt lat="41.31186" lon="1.72112">
        <ele>229</ele>
        <time>2020-10-05 19:25:30</time>
      </trkpt>
      <trkpt lat="41.31198" lon="1.72127">
        <ele>227.8</ele>
        <time>2020-10-05 19:25:31</time>
      </trkpt>
      <trkpt lat="41.31211" lon="1.7214">
        <ele>226</ele>
        <time>2020-10-05 19:25:32</time>
      </trkpt>
      <trkpt lat="41.31224" lon="1.72153">
        <ele>224.2</ele>
        <time>2020-10-05 19:25:33</time>
      </trkpt>
      <trkpt lat="41.31238" lon="1.72164">
        <ele>222.6</ele>
        <time>2020-10-05 19:25:34</time>
      </trkpt>
      <trkpt lat="41.31253" lon="1.72173">
        <ele>220.8</ele>
        <time>2020-10-05 19:25:35</time>
      </trkpt>
      <trkpt lat="41.31268" lon="1.72182">
        <ele>219.4</ele>
        <time>2020-10-05 19:25:36</time>
      </trkpt>
      <trkpt lat="41.31284" lon="1.72192">
        <ele>218.2</ele>
        <time>2020-10-05 19:25:37</time>
      </trkpt>
      <trkpt lat="41.31299" lon="1.72201">
        <ele>216</ele>
        <time>2020-10-05 19:25:38</time>
      </trkpt>
      <trkpt lat="41.31314" lon="1.72212">
        <ele>214.4</ele>
        <time>2020-10-05 19:25:39</time>
      </trkpt>
      <trkpt lat="41.31329" lon="1.72224">
        <ele>212.8</ele>
        <time>2020-10-05 19:25:40</time>
      </trkpt>
      <trkpt lat="41.31343" lon="1.72237">
        <ele>211.4</ele>
        <time>2020-10-05 19:25:41</time>
      </trkpt>
      <trkpt lat="41.31356" lon="1.72253">
        <ele>209.8</ele>
        <time>2020-10-05 19:25:42</time>
      </trkpt>
      <trkpt lat="41.31369" lon="1.72269">
        <ele>208.2</ele>
        <time>2020-10-05 19:25:43</time>
      </trkpt>
      <trkpt lat="41.31381" lon="1.72286">
        <ele>206.2</ele>
        <time>2020-10-05 19:25:44</time>
      </trkpt>
      <trkpt lat="41.31394" lon="1.72303">
        <ele>204.2</ele>
        <time>2020-10-05 19:25:45</time>
      </trkpt>
      <trkpt lat="41.31406" lon="1.7232">
        <ele>202</ele>
        <time>2020-10-05 19:25:46</time>
      </trkpt>
      <trkpt lat="41.3142" lon="1.72336">
        <ele>199.8</ele>
        <time>2020-10-05 19:25:47</time>
      </trkpt>
      <trkpt lat="41.31434" lon="1.72351">
        <ele>197.8</ele>
        <time>2020-10-05 19:25:48</time>
      </trkpt>
      <trkpt lat="41.31449" lon="1.72364">
        <ele>195.8</ele>
        <time>2020-10-05 19:25:49</time>
      </trkpt>
      <trkpt lat="41.31465" lon="1.72375">
        <ele>193.8</ele>
        <time>2020-10-05 19:25:50</time>
      </trkpt>
      <trkpt lat="41.31482" lon="1.72382">
        <ele>191.8</ele>
        <time>2020-10-05 19:25:51</time>
      </trkpt>
      <trkpt lat="41.315" lon="1.72386">
        <ele>189.8</ele>
        <time>2020-10-05 19:25:52</time>
      </trkpt>
      <trkpt lat="41.31519" lon="1.72387">
        <ele>187.8</ele>
        <time>2020-10-05 19:25:53</time>
      </trkpt>
      <trkpt lat="41.31537" lon="1.72385">
        <ele>185.4</ele>
        <time>2020-10-05 19:25:54</time>
      </trkpt>
      <trkpt lat="41.31555" lon="1.7238">
        <ele>183.2</ele>
        <time>2020-10-05 19:25:55</time>
      </trkpt>
      <trkpt lat="41.31573" lon="1.72374">
        <ele>181</ele>
        <time>2020-10-05 19:25:56</time>
      </trkpt>
      <trkpt lat="41.3159" lon="1.7237">
        <ele>179</ele>
        <time>2020-10-05 19:25:57</time>
      </trkpt>
      <trkpt lat="41.31606" lon="1.72369">
        <ele>177.2</ele>
        <time>2020-10-05 19:25:58</time>
      </trkpt>
      <trkpt lat="41.31621" lon="1.72373">
        <ele>175.2</ele>
        <time>2020-10-05 19:25:59</time>
      </trkpt>
      <trkpt lat="41.31633" lon="1.72381">
        <ele>173.4</ele>
        <time>2020-10-05 19:26:00</time>
      </trkpt>
      <trkpt lat="41.31642" lon="1.72394">
        <ele>171.6</ele>
        <time>2020-10-05 19:26:01</time>
      </trkpt>
      <trkpt lat="41.31649" lon="1.72423">
        <ele>170.2</ele>
        <time>2020-10-05 19:26:03</time>
      </trkpt>
      <trkpt lat="41.31651" lon="1.72453">
        <ele>170</ele>
        <time>2020-10-05 19:26:05</time>
      </trkpt>
      <trkpt lat="41.31653" lon="1.72482">
        <ele>169.8</ele>
        <time>2020-10-05 19:26:07</time>
      </trkpt>
      <trkpt lat="41.31653" lon="1.72507">
        <ele>169.8</ele>
        <time>2020-10-05 19:26:09</time>
      </trkpt>
      <trkpt lat="41.3165" lon="1.72518">
        <ele>170.6</ele>
        <time>2020-10-05 19:26:10</time>
      </trkpt>
      <trkpt lat="41.31637" lon="1.7253">
        <ele>171.2</ele>
        <time>2020-10-05 19:26:12</time>
      </trkpt>
      <trkpt lat="41.31618" lon="1.72529">
        <ele>171.4</ele>
        <time>2020-10-05 19:26:14</time>
      </trkpt>
      <trkpt lat="41.31608" lon="1.72528">
        <ele>171.4</ele>
        <time>2020-10-05 19:26:15</time>
      </trkpt>
      <trkpt lat="41.31559" lon="1.72531">
        <ele>171</ele>
        <time>2020-10-05 19:26:20</time>
      </trkpt>
      <trkpt lat="41.31539" lon="1.72536">
        <ele>169.8</ele>
        <time>2020-10-05 19:26:22</time>
      </trkpt>
      <trkpt lat="41.31519" lon="1.72543">
        <ele>168.2</ele>
        <time>2020-10-05 19:26:24</time>
      </trkpt>
      <trkpt lat="41.31499" lon="1.72549">
        <ele>166.8</ele>
        <time>2020-10-05 19:26:26</time>
      </trkpt>
      <trkpt lat="41.31489" lon="1.72551">
        <ele>166.2</ele>
        <time>2020-10-05 19:26:27</time>
      </trkpt>
      <trkpt lat="41.31479" lon="1.72553">
        <ele>165.8</ele>
        <time>2020-10-05 19:26:28</time>
      </trkpt>
      <trkpt lat="41.3146" lon="1.72554">
        <ele>164.6</ele>
        <time>2020-10-05 19:26:30</time>
      </trkpt>
      <trkpt lat="41.31442" lon="1.72554">
        <ele>163.2</ele>
        <time>2020-10-05 19:26:32</time>
      </trkpt>
      <trkpt lat="41.3139" lon="1.72544">
        <ele>162.2</ele>
        <time>2020-10-05 19:26:38</time>
      </trkpt>
      <trkpt lat="41.31344" lon="1.7252">
        <ele>162.2</ele>
        <time>2020-10-05 19:26:44</time>
      </trkpt>
      <trkpt lat="41.31297" lon="1.72481">
        <ele>162.4</ele>
        <time>2020-10-05 19:26:51</time>
      </trkpt>
      <trkpt lat="41.31247" lon="1.72436">
        <ele>162.4</ele>
        <time>2020-10-05 19:26:59</time>
      </trkpt>
      <trkpt lat="41.31197" lon="1.72393">
        <ele>162.2</ele>
        <time>2020-10-05 19:27:07</time>
      </trkpt>
      <trkpt lat="41.31185" lon="1.72381">
        <ele>162.2</ele>
        <time>2020-10-05 19:27:09</time>
      </trkpt>
      <trkpt lat="41.31132" lon="1.7234">
        <ele>162.2</ele>
        <time>2020-10-05 19:27:17</time>
      </trkpt>
      <trkpt lat="41.31126" lon="1.72335">
        <ele>162.2</ele>
        <time>2020-10-05 19:27:18</time>
      </trkpt>
      <trkpt lat="41.31078" lon="1.723">
        <ele>162</ele>
        <time>2020-10-05 19:27:25</time>
      </trkpt>
      <trkpt lat="41.31056" lon="1.72285">
        <ele>161.8</ele>
        <time>2020-10-05 19:27:28</time>
      </trkpt>
      <trkpt lat="41.31049" lon="1.7228">
        <ele>161.8</ele>
        <time>2020-10-05 19:27:29</time>
      </trkpt>
      <trkpt lat="41.30996" lon="1.72245">
        <ele>160.6</ele>
        <time>2020-10-05 19:27:36</time>
      </trkpt>
      <trkpt lat="41.3098" lon="1.72235">
        <ele>160.2</ele>
        <time>2020-10-05 19:27:38</time>
      </trkpt>
      <trkpt lat="41.30964" lon="1.72229">
        <ele>159.6</ele>
        <time>2020-10-05 19:27:40</time>
      </trkpt>
      <trkpt lat="41.30955" lon="1.72227">
        <ele>159.6</ele>
        <time>2020-10-05 19:27:41</time>
      </trkpt>
      <trkpt lat="41.30946" lon="1.72225">
        <ele>159.2</ele>
        <time>2020-10-05 19:27:42</time>
      </trkpt>
      <trkpt lat="41.30938" lon="1.72225">
        <ele>158.8</ele>
        <time>2020-10-05 19:27:43</time>
      </trkpt>
      <trkpt lat="41.30921" lon="1.7223">
        <ele>158.2</ele>
        <time>2020-10-05 19:27:45</time>
      </trkpt>
      <trkpt lat="41.30902" lon="1.72252">
        <ele>157</ele>
        <time>2020-10-05 19:27:48</time>
      </trkpt>
      <trkpt lat="41.30898" lon="1.72274">
        <ele>156.4</ele>
        <time>2020-10-05 19:27:50</time>
      </trkpt>
      <trkpt lat="41.30899" lon="1.72287">
        <ele>156</ele>
        <time>2020-10-05 19:27:51</time>
      </trkpt>
      <trkpt lat="41.30901" lon="1.72299">
        <ele>155.8</ele>
        <time>2020-10-05 19:27:52</time>
      </trkpt>
      <trkpt lat="41.30901" lon="1.7231">
        <ele>155.6</ele>
        <time>2020-10-05 19:27:53</time>
      </trkpt>
      <trkpt lat="41.309" lon="1.72322">
        <ele>155.4</ele>
        <time>2020-10-05 19:27:54</time>
      </trkpt>
      <trkpt lat="41.30891" lon="1.72342">
        <ele>155</ele>
        <time>2020-10-05 19:27:56</time>
      </trkpt>
      <trkpt lat="41.30883" lon="1.72348">
        <ele>154.6</ele>
        <time>2020-10-05 19:27:57</time>
      </trkpt>
      <trkpt lat="41.3087" lon="1.72361">
        <ele>153.6</ele>
        <time>2020-10-05 19:27:59</time>
      </trkpt>
      <trkpt lat="41.30864" lon="1.72382">
        <ele>152.8</ele>
        <time>2020-10-05 19:28:01</time>
      </trkpt>
      <trkpt lat="41.30864" lon="1.72392">
        <ele>152.4</ele>
        <time>2020-10-05 19:28:02</time>
      </trkpt>
      <trkpt lat="41.30865" lon="1.72403">
        <ele>152.2</ele>
        <time>2020-10-05 19:28:03</time>
      </trkpt>
      <trkpt lat="41.30866" lon="1.72424">
        <ele>152</ele>
        <time>2020-10-05 19:28:05</time>
      </trkpt>
      <trkpt lat="41.30864" lon="1.72466">
        <ele>152</ele>
        <time>2020-10-05 19:28:09</time>
      </trkpt>
      <trkpt lat="41.30859" lon="1.72486">
        <ele>152</ele>
        <time>2020-10-05 19:28:11</time>
      </trkpt>
      <trkpt lat="41.30839" lon="1.72534">
        <ele>152</ele>
        <time>2020-10-05 19:28:16</time>
      </trkpt>
      <trkpt lat="41.30817" lon="1.72553">
        <ele>152</ele>
        <time>2020-10-05 19:28:19</time>
      </trkpt>
      <trkpt lat="41.30789" lon="1.72554">
        <ele>152</ele>
        <time>2020-10-05 19:28:22</time>
      </trkpt>
      <trkpt lat="41.3078" lon="1.72553">
        <ele>151.8</ele>
        <time>2020-10-05 19:28:23</time>
      </trkpt>
      <trkpt lat="41.30762" lon="1.72551">
        <ele>150.6</ele>
        <time>2020-10-05 19:28:25</time>
      </trkpt>
      <trkpt lat="41.30744" lon="1.72548">
        <ele>149.2</ele>
        <time>2020-10-05 19:28:27</time>
      </trkpt>
      <trkpt lat="41.30726" lon="1.72546">
        <ele>148</ele>
        <time>2020-10-05 19:28:29</time>
      </trkpt>
      <trkpt lat="41.30717" lon="1.72543">
        <ele>147.8</ele>
        <time>2020-10-05 19:28:30</time>
      </trkpt>
      <trkpt lat="41.30692" lon="1.7253">
        <ele>147.6</ele>
        <time>2020-10-05 19:28:33</time>
      </trkpt>
      <trkpt lat="41.30685" lon="1.72524">
        <ele>147.6</ele>
        <time>2020-10-05 19:28:34</time>
      </trkpt>
      <trkpt lat="41.30666" lon="1.72499">
        <ele>147.4</ele>
        <time>2020-10-05 19:28:37</time>
      </trkpt>
      <trkpt lat="41.3066" lon="1.72475">
        <ele>147.2</ele>
        <time>2020-10-05 19:28:39</time>
      </trkpt>
      <trkpt lat="41.30657" lon="1.72464">
        <ele>147</ele>
        <time>2020-10-05 19:28:40</time>
      </trkpt>
      <trkpt lat="41.30654" lon="1.72452">
        <ele>146.8</ele>
        <time>2020-10-05 19:28:41</time>
      </trkpt>
      <trkpt lat="41.3065" lon="1.72431">
        <ele>146.6</ele>
        <time>2020-10-05 19:28:43</time>
      </trkpt>
      <trkpt lat="41.30656" lon="1.72411">
        <ele>146.2</ele>
        <time>2020-10-05 19:28:45</time>
      </trkpt>
      <trkpt lat="41.3066" lon="1.724">
        <ele>146</ele>
        <time>2020-10-05 19:28:46</time>
      </trkpt>
      <trkpt lat="41.30664" lon="1.7239">
        <ele>145.8</ele>
        <time>2020-10-05 19:28:47</time>
      </trkpt>
      <trkpt lat="41.30674" lon="1.7235">
        <ele>145.6</ele>
        <time>2020-10-05 19:28:51</time>
      </trkpt>
      <trkpt lat="41.3069" lon="1.72283">
        <ele>146.4</ele>
        <time>2020-10-05 19:28:58</time>
      </trkpt>
      <trkpt lat="41.30709" lon="1.72217">
        <ele>146.8</ele>
        <time>2020-10-05 19:29:04</time>
      </trkpt>
      <trkpt lat="41.30713" lon="1.72191">
        <ele>146.8</ele>
        <time>2020-10-05 19:29:06</time>
      </trkpt>
      <trkpt lat="41.30713" lon="1.72162">
        <ele>146.8</ele>
        <time>2020-10-05 19:29:08</time>
      </trkpt>
      <trkpt lat="41.30711" lon="1.72148">
        <ele>146.4</ele>
        <time>2020-10-05 19:29:09</time>
      </trkpt>
      <trkpt lat="41.30702" lon="1.72123">
        <ele>144.8</ele>
        <time>2020-10-05 19:29:11</time>
      </trkpt>
      <trkpt lat="41.30697" lon="1.72113">
        <ele>144</ele>
        <time>2020-10-05 19:29:12</time>
      </trkpt>
      <trkpt lat="41.30682" lon="1.72097">
        <ele>142.4</ele>
        <time>2020-10-05 19:29:14</time>
      </trkpt>
      <trkpt lat="41.30657" lon="1.72089">
        <ele>141.6</ele>
        <time>2020-10-05 19:29:17</time>
      </trkpt>
      <trkpt lat="41.30634" lon="1.72095">
        <ele>141.2</ele>
        <time>2020-10-05 19:29:20</time>
      </trkpt>
      <trkpt lat="41.30581" lon="1.72117">
        <ele>142.4</ele>
        <time>2020-10-05 19:29:27</time>
      </trkpt>
      <trkpt lat="41.30521" lon="1.72139">
        <ele>143</ele>
        <time>2020-10-05 19:29:34</time>
      </trkpt>
      <trkpt lat="41.30464" lon="1.72152">
        <ele>142.2</ele>
        <time>2020-10-05 19:29:40</time>
      </trkpt>
      <trkpt lat="41.30444" lon="1.7215">
        <ele>141.2</ele>
        <time>2020-10-05 19:29:42</time>
      </trkpt>
      <trkpt lat="41.30425" lon="1.72147">
        <ele>140</ele>
        <time>2020-10-05 19:29:44</time>
      </trkpt>
      <trkpt lat="41.30415" lon="1.72145">
        <ele>139.4</ele>
        <time>2020-10-05 19:29:45</time>
      </trkpt>
      <trkpt lat="41.30406" lon="1.72143">
        <ele>138.8</ele>
        <time>2020-10-05 19:29:46</time>
      </trkpt>
      <trkpt lat="41.30387" lon="1.72139">
        <ele>137.6</ele>
        <time>2020-10-05 19:29:48</time>
      </trkpt>
      <trkpt lat="41.30369" lon="1.72136">
        <ele>135.8</ele>
        <time>2020-10-05 19:29:50</time>
      </trkpt>
      <trkpt lat="41.3036" lon="1.72137">
        <ele>135.4</ele>
        <time>2020-10-05 19:29:51</time>
      </trkpt>
      <trkpt lat="41.30344" lon="1.72148">
        <ele>135.2</ele>
        <time>2020-10-05 19:29:53</time>
      </trkpt>
      <trkpt lat="41.30339" lon="1.7217">
        <ele>135</ele>
        <time>2020-10-05 19:29:55</time>
      </trkpt>
      <trkpt lat="41.3035" lon="1.72203">
        <ele>135</ele>
        <time>2020-10-05 19:29:58</time>
      </trkpt>
      <trkpt lat="41.30356" lon="1.72213">
        <ele>135</ele>
        <time>2020-10-05 19:29:59</time>
      </trkpt>
      <trkpt lat="41.30367" lon="1.72233">
        <ele>134.8</ele>
        <time>2020-10-05 19:30:01</time>
      </trkpt>
      <trkpt lat="41.30377" lon="1.72254">
        <ele>134.8</ele>
        <time>2020-10-05 19:30:03</time>
      </trkpt>
      <trkpt lat="41.30387" lon="1.72275">
        <ele>134.8</ele>
        <time>2020-10-05 19:30:05</time>
      </trkpt>
      <trkpt lat="41.30392" lon="1.72286">
        <ele>134.8</ele>
        <time>2020-10-05 19:30:06</time>
      </trkpt>
      <trkpt lat="41.30398" lon="1.72321">
        <ele>133.8</ele>
        <time>2020-10-05 19:30:09</time>
      </trkpt>
      <trkpt lat="41.30397" lon="1.72333">
        <ele>133.6</ele>
        <time>2020-10-05 19:30:10</time>
      </trkpt>
      <trkpt lat="41.30393" lon="1.72356">
        <ele>133.4</ele>
        <time>2020-10-05 19:30:12</time>
      </trkpt>
      <trkpt lat="41.3039" lon="1.72368">
        <ele>133.4</ele>
        <time>2020-10-05 19:30:13</time>
      </trkpt>
      <trkpt lat="41.30374" lon="1.72428">
        <ele>133.2</ele>
        <time>2020-10-05 19:30:18</time>
      </trkpt>
      <trkpt lat="41.30363" lon="1.7245">
        <ele>133</ele>
        <time>2020-10-05 19:30:20</time>
      </trkpt>
      <trkpt lat="41.30351" lon="1.72469">
        <ele>132.6</ele>
        <time>2020-10-05 19:30:22</time>
      </trkpt>
      <trkpt lat="41.30344" lon="1.72477">
        <ele>132.2</ele>
        <time>2020-10-05 19:30:23</time>
      </trkpt>
      <trkpt lat="41.30328" lon="1.72492">
        <ele>131.6</ele>
        <time>2020-10-05 19:30:25</time>
      </trkpt>
      <trkpt lat="41.30305" lon="1.72511">
        <ele>130.6</ele>
        <time>2020-10-05 19:30:28</time>
      </trkpt>
      <trkpt lat="41.30258" lon="1.72547">
        <ele>130.4</ele>
        <time>2020-10-05 19:30:34</time>
      </trkpt>
      <trkpt lat="41.30243" lon="1.7256">
        <ele>130.2</ele>
        <time>2020-10-05 19:30:36</time>
      </trkpt>
      <trkpt lat="41.30205" lon="1.72609">
        <ele>129.8</ele>
        <time>2020-10-05 19:30:42</time>
      </trkpt>
      <trkpt lat="41.30166" lon="1.72673">
        <ele>129.6</ele>
        <time>2020-10-05 19:30:49</time>
      </trkpt>
      <trkpt lat="41.3016" lon="1.72683">
        <ele>129.4</ele>
        <time>2020-10-05 19:30:50</time>
      </trkpt>
      <trkpt lat="41.30133" lon="1.72728">
        <ele>128.8</ele>
        <time>2020-10-05 19:30:55</time>
      </trkpt>
      <trkpt lat="41.30113" lon="1.72767">
        <ele>128.8</ele>
        <time>2020-10-05 19:30:59</time>
      </trkpt>
      <trkpt lat="41.30073" lon="1.72828">
        <ele>128.4</ele>
        <time>2020-10-05 19:31:06</time>
      </trkpt>
      <trkpt lat="41.3003" lon="1.72871">
        <ele>128.2</ele>
        <time>2020-10-05 19:31:12</time>
      </trkpt>
      <trkpt lat="41.30022" lon="1.72876">
        <ele>128.2</ele>
        <time>2020-10-05 19:31:13</time>
      </trkpt>
      <trkpt lat="41.29996" lon="1.72888">
        <ele>128</ele>
        <time>2020-10-05 19:31:16</time>
      </trkpt>
      <trkpt lat="41.29958" lon="1.7289">
        <ele>127.8</ele>
        <time>2020-10-05 19:31:20</time>
      </trkpt>
      <trkpt lat="41.29949" lon="1.72889">
        <ele>127.8</ele>
        <time>2020-10-05 19:31:21</time>
      </trkpt>
      <trkpt lat="41.29921" lon="1.72879">
        <ele>127.2</ele>
        <time>2020-10-05 19:31:24</time>
      </trkpt>
      <trkpt lat="41.29895" lon="1.72862">
        <ele>126.4</ele>
        <time>2020-10-05 19:31:27</time>
      </trkpt>
      <trkpt lat="41.29887" lon="1.72855">
        <ele>126.2</ele>
        <time>2020-10-05 19:31:28</time>
      </trkpt>
      <trkpt lat="41.29859" lon="1.72823">
        <ele>125.4</ele>
        <time>2020-10-05 19:31:32</time>
      </trkpt>
      <trkpt lat="41.29852" lon="1.72814">
        <ele>125.2</ele>
        <time>2020-10-05 19:31:33</time>
      </trkpt>
      <trkpt lat="41.29825" lon="1.72781">
        <ele>123.8</ele>
        <time>2020-10-05 19:31:37</time>
      </trkpt>
      <trkpt lat="41.29813" lon="1.72766">
        <ele>123.6</ele>
        <time>2020-10-05 19:31:39</time>
      </trkpt>
      <trkpt lat="41.29786" lon="1.72739">
        <ele>123.4</ele>
        <time>2020-10-05 19:31:44</time>
      </trkpt>
      <trkpt lat="41.29761" lon="1.7272">
        <ele>125.4</ele>
        <time>2020-10-05 19:31:49</time>
      </trkpt>
      <trkpt lat="41.29756" lon="1.72717">
        <ele>126.4</ele>
        <time>2020-10-05 19:31:50</time>
      </trkpt>
      <trkpt lat="41.2975" lon="1.72714">
        <ele>127.4</ele>
        <time>2020-10-05 19:31:51</time>
      </trkpt>
      <trkpt lat="41.29739" lon="1.72708">
        <ele>128.6</ele>
        <time>2020-10-05 19:31:53</time>
      </trkpt>
      <trkpt lat="41.29727" lon="1.72702">
        <ele>130</ele>
        <time>2020-10-05 19:31:55</time>
      </trkpt>
      <trkpt lat="41.29715" lon="1.72697">
        <ele>130.8</ele>
        <time>2020-10-05 19:31:57</time>
      </trkpt>
      <trkpt lat="41.29708" lon="1.72694">
        <ele>131.2</ele>
        <time>2020-10-05 19:31:58</time>
      </trkpt>
      <trkpt lat="41.29667" lon="1.72677">
        <ele>131.8</ele>
        <time>2020-10-05 19:32:04</time>
      </trkpt>
      <trkpt lat="41.2966" lon="1.72674">
        <ele>131.8</ele>
        <time>2020-10-05 19:32:05</time>
      </trkpt>
      <trkpt lat="41.29603" lon="1.72653">
        <ele>131.4</ele>
        <time>2020-10-05 19:32:13</time>
      </trkpt>
      <trkpt lat="41.2955" lon="1.72638">
        <ele>131.8</ele>
        <time>2020-10-05 19:32:21</time>
      </trkpt>
      <trkpt lat="41.29543" lon="1.72636">
        <ele>132</ele>
        <time>2020-10-05 19:32:22</time>
      </trkpt>
      <trkpt lat="41.29509" lon="1.72629">
        <ele>133.2</ele>
        <time>2020-10-05 19:32:27</time>
      </trkpt>
      <trkpt lat="41.29482" lon="1.72622">
        <ele>134</ele>
        <time>2020-10-05 19:32:31</time>
      </trkpt>
      <trkpt lat="41.29462" lon="1.72615">
        <ele>134.2</ele>
        <time>2020-10-05 19:32:34</time>
      </trkpt>
      <trkpt lat="41.29413" lon="1.72601">
        <ele>134.8</ele>
        <time>2020-10-05 19:32:41</time>
      </trkpt>
      <trkpt lat="41.29353" lon="1.72589">
        <ele>134.8</ele>
        <time>2020-10-05 19:32:49</time>
      </trkpt>
      <trkpt lat="41.29345" lon="1.72588">
        <ele>134.8</ele>
        <time>2020-10-05 19:32:50</time>
      </trkpt>
      <trkpt lat="41.29291" lon="1.72582">
        <ele>134</ele>
        <time>2020-10-05 19:32:57</time>
      </trkpt>
      <trkpt lat="41.29252" lon="1.72578">
        <ele>133.8</ele>
        <time>2020-10-05 19:33:02</time>
      </trkpt>
      <trkpt lat="41.29196" lon="1.72574">
        <ele>133.2</ele>
        <time>2020-10-05 19:33:09</time>
      </trkpt>
      <trkpt lat="41.29172" lon="1.72574">
        <ele>133.2</ele>
        <time>2020-10-05 19:33:12</time>
      </trkpt>
      <trkpt lat="41.29136" lon="1.72575">
        <ele>133</ele>
        <time>2020-10-05 19:33:16</time>
      </trkpt>
      <trkpt lat="41.2912" lon="1.72566">
        <ele>133</ele>
        <time>2020-10-05 19:33:18</time>
      </trkpt>
      <trkpt lat="41.29118" lon="1.72545">
        <ele>132.2</ele>
        <time>2020-10-05 19:33:20</time>
      </trkpt>
      <trkpt lat="41.29121" lon="1.72535">
        <ele>131.8</ele>
        <time>2020-10-05 19:33:21</time>
      </trkpt>
      <trkpt lat="41.29125" lon="1.72513">
        <ele>130.4</ele>
        <time>2020-10-05 19:33:23</time>
      </trkpt>
      <trkpt lat="41.29124" lon="1.72502">
        <ele>129.4</ele>
        <time>2020-10-05 19:33:24</time>
      </trkpt>
      <trkpt lat="41.29122" lon="1.72492">
        <ele>128.6</ele>
        <time>2020-10-05 19:33:25</time>
      </trkpt>
      <trkpt lat="41.29111" lon="1.72475">
        <ele>127.6</ele>
        <time>2020-10-05 19:33:27</time>
      </trkpt>
      <trkpt lat="41.29103" lon="1.7247">
        <ele>127.4</ele>
        <time>2020-10-05 19:33:28</time>
      </trkpt>
      <trkpt lat="41.29096" lon="1.72469">
        <ele>127</ele>
        <time>2020-10-05 19:33:29</time>
      </trkpt>
      <trkpt lat="41.29074" lon="1.72481">
        <ele>126.8</ele>
        <time>2020-10-05 19:33:32</time>
      </trkpt>
      <trkpt lat="41.29065" lon="1.7251">
        <ele>126.2</ele>
        <time>2020-10-05 19:33:35</time>
      </trkpt>
      <trkpt lat="41.29071" lon="1.72538">
        <ele>126.2</ele>
        <time>2020-10-05 19:33:38</time>
      </trkpt>
      <trkpt lat="41.29077" lon="1.72576">
        <ele>126.2</ele>
        <time>2020-10-05 19:33:42</time>
      </trkpt>
      <trkpt lat="41.29069" lon="1.72591">
        <ele>126.2</ele>
        <time>2020-10-05 19:33:44</time>
      </trkpt>
      <trkpt lat="41.29051" lon="1.72601">
        <ele>126.4</ele>
        <time>2020-10-05 19:33:47</time>
      </trkpt>
      <trkpt lat="41.29034" lon="1.726">
        <ele>126.6</ele>
        <time>2020-10-05 19:33:50</time>
      </trkpt>
      <trkpt lat="41.29029" lon="1.72599">
        <ele>126.4</ele>
        <time>2020-10-05 19:33:51</time>
      </trkpt>
      <trkpt lat="41.29017" lon="1.72596">
        <ele>127.2</ele>
        <time>2020-10-05 19:33:53</time>
      </trkpt>
      <trkpt lat="41.29004" lon="1.72592">
        <ele>129</ele>
        <time>2020-10-05 19:33:55</time>
      </trkpt>
      <trkpt lat="41.28991" lon="1.72588">
        <ele>130.6</ele>
        <time>2020-10-05 19:33:57</time>
      </trkpt>
      <trkpt lat="41.2896" lon="1.72586">
        <ele>131.4</ele>
        <time>2020-10-05 19:34:01</time>
      </trkpt>
      <trkpt lat="41.28951" lon="1.72588">
        <ele>131.4</ele>
        <time>2020-10-05 19:34:02</time>
      </trkpt>
      <trkpt lat="41.28926" lon="1.72603">
        <ele>131.4</ele>
        <time>2020-10-05 19:34:05</time>
      </trkpt>
      <trkpt lat="41.28903" lon="1.72632">
        <ele>130.8</ele>
        <time>2020-10-05 19:34:08</time>
      </trkpt>
      <trkpt lat="41.2889" lon="1.72673">
        <ele>129</ele>
        <time>2020-10-05 19:34:11</time>
      </trkpt>
      <trkpt lat="41.28889" lon="1.72705">
        <ele>127.2</ele>
        <time>2020-10-05 19:34:13</time>
      </trkpt>
      <trkpt lat="41.28891" lon="1.72721">
        <ele>126.2</ele>
        <time>2020-10-05 19:34:14</time>
      </trkpt>
      <trkpt lat="41.28894" lon="1.72737">
        <ele>125.2</ele>
        <time>2020-10-05 19:34:15</time>
      </trkpt>
      <trkpt lat="41.28896" lon="1.72753">
        <ele>124.4</ele>
        <time>2020-10-05 19:34:16</time>
      </trkpt>
      <trkpt lat="41.28902" lon="1.72787">
        <ele>122.6</ele>
        <time>2020-10-05 19:34:18</time>
      </trkpt>
      <trkpt lat="41.28908" lon="1.72821">
        <ele>120.6</ele>
        <time>2020-10-05 19:34:20</time>
      </trkpt>
      <trkpt lat="41.2891" lon="1.72838">
        <ele>119.4</ele>
        <time>2020-10-05 19:34:21</time>
      </trkpt>
      <trkpt lat="41.28912" lon="1.72856">
        <ele>118.2</ele>
        <time>2020-10-05 19:34:22</time>
      </trkpt>
      <trkpt lat="41.28912" lon="1.72873">
        <ele>116.8</ele>
        <time>2020-10-05 19:34:23</time>
      </trkpt>
      <trkpt lat="41.28912" lon="1.7289">
        <ele>115.6</ele>
        <time>2020-10-05 19:34:24</time>
      </trkpt>
      <trkpt lat="41.2891" lon="1.72907">
        <ele>114.2</ele>
        <time>2020-10-05 19:34:25</time>
      </trkpt>
      <trkpt lat="41.28907" lon="1.72923">
        <ele>113</ele>
        <time>2020-10-05 19:34:26</time>
      </trkpt>
      <trkpt lat="41.28903" lon="1.72939">
        <ele>111.8</ele>
        <time>2020-10-05 19:34:27</time>
      </trkpt>
      <trkpt lat="41.28899" lon="1.72954">
        <ele>111</ele>
        <time>2020-10-05 19:34:28</time>
      </trkpt>
      <trkpt lat="41.28895" lon="1.72968">
        <ele>109.8</ele>
        <time>2020-10-05 19:34:29</time>
      </trkpt>
      <trkpt lat="41.28884" lon="1.73009">
        <ele>108.6</ele>
        <time>2020-10-05 19:34:32</time>
      </trkpt>
      <trkpt lat="41.28877" lon="1.7306">
        <ele>108.4</ele>
        <time>2020-10-05 19:34:36</time>
      </trkpt>
      <trkpt lat="41.28879" lon="1.73098">
        <ele>108.8</ele>
        <time>2020-10-05 19:34:39</time>
      </trkpt>
      <trkpt lat="41.28882" lon="1.73111">
        <ele>109.2</ele>
        <time>2020-10-05 19:34:40</time>
      </trkpt>
      <trkpt lat="41.28885" lon="1.73123">
        <ele>109.8</ele>
        <time>2020-10-05 19:34:41</time>
      </trkpt>
      <trkpt lat="41.28899" lon="1.7316">
        <ele>110.8</ele>
        <time>2020-10-05 19:34:44</time>
      </trkpt>
      <trkpt lat="41.28904" lon="1.73172">
        <ele>111</ele>
        <time>2020-10-05 19:34:45</time>
      </trkpt>
      <trkpt lat="41.28934" lon="1.73235">
        <ele>111</ele>
        <time>2020-10-05 19:34:50</time>
      </trkpt>
      <trkpt lat="41.2894" lon="1.73247">
        <ele>111</ele>
        <time>2020-10-05 19:34:51</time>
      </trkpt>
      <trkpt lat="41.28959" lon="1.73287">
        <ele>109.4</ele>
        <time>2020-10-05 19:34:54</time>
      </trkpt>
      <trkpt lat="41.28972" lon="1.73313">
        <ele>108.2</ele>
        <time>2020-10-05 19:34:56</time>
      </trkpt>
      <trkpt lat="41.28984" lon="1.7334">
        <ele>106.8</ele>
        <time>2020-10-05 19:34:58</time>
      </trkpt>
      <trkpt lat="41.28996" lon="1.73366">
        <ele>105.8</ele>
        <time>2020-10-05 19:35:00</time>
      </trkpt>
      <trkpt lat="41.29007" lon="1.73392">
        <ele>104.6</ele>
        <time>2020-10-05 19:35:02</time>
      </trkpt>
      <trkpt lat="41.29012" lon="1.73405">
        <ele>103.4</ele>
        <time>2020-10-05 19:35:03</time>
      </trkpt>
      <trkpt lat="41.2902" lon="1.73432">
        <ele>102.2</ele>
        <time>2020-10-05 19:35:05</time>
      </trkpt>
      <trkpt lat="41.29031" lon="1.73485">
        <ele>101.2</ele>
        <time>2020-10-05 19:35:09</time>
      </trkpt>
      <trkpt lat="41.29033" lon="1.73499">
        <ele>101</ele>
        <time>2020-10-05 19:35:10</time>
      </trkpt>
      <trkpt lat="41.29042" lon="1.7358">
        <ele>100.8</ele>
        <time>2020-10-05 19:35:16</time>
      </trkpt>
      <trkpt lat="41.29047" lon="1.73647">
        <ele>100.6</ele>
        <time>2020-10-05 19:35:21</time>
      </trkpt>
      <trkpt lat="41.29045" lon="1.73661">
        <ele>100.4</ele>
        <time>2020-10-05 19:35:22</time>
      </trkpt>
      <trkpt lat="41.29034" lon="1.73683">
        <ele>100.2</ele>
        <time>2020-10-05 19:35:24</time>
      </trkpt>
      <trkpt lat="41.29007" lon="1.73703">
        <ele>99.8</ele>
        <time>2020-10-05 19:35:27</time>
      </trkpt>
      <trkpt lat="41.28977" lon="1.73715">
        <ele>99</ele>
        <time>2020-10-05 19:35:30</time>
      </trkpt>
      <trkpt lat="41.28967" lon="1.73718">
        <ele>98.2</ele>
        <time>2020-10-05 19:35:31</time>
      </trkpt>
      <trkpt lat="41.28916" lon="1.73726">
        <ele>97.2</ele>
        <time>2020-10-05 19:35:36</time>
      </trkpt>
      <trkpt lat="41.28895" lon="1.73728">
        <ele>96.8</ele>
        <time>2020-10-05 19:35:38</time>
      </trkpt>
      <trkpt lat="41.28843" lon="1.73724">
        <ele>96</ele>
        <time>2020-10-05 19:35:43</time>
      </trkpt>
      <trkpt lat="41.28833" lon="1.73723">
        <ele>96</ele>
        <time>2020-10-05 19:35:44</time>
      </trkpt>
      <trkpt lat="41.28772" lon="1.73719">
        <ele>95.2</ele>
        <time>2020-10-05 19:35:50</time>
      </trkpt>
      <trkpt lat="41.28762" lon="1.73721">
        <ele>95.2</ele>
        <time>2020-10-05 19:35:51</time>
      </trkpt>
      <trkpt lat="41.28745" lon="1.73734">
        <ele>95</ele>
        <time>2020-10-05 19:35:53</time>
      </trkpt>
      <trkpt lat="41.28733" lon="1.73755">
        <ele>94.6</ele>
        <time>2020-10-05 19:35:55</time>
      </trkpt>
      <trkpt lat="41.28729" lon="1.73767">
        <ele>94.4</ele>
        <time>2020-10-05 19:35:56</time>
      </trkpt>
      <trkpt lat="41.28721" lon="1.73807">
        <ele>94.2</ele>
        <time>2020-10-05 19:35:59</time>
      </trkpt>
      <trkpt lat="41.28719" lon="1.7382">
        <ele>94</ele>
        <time>2020-10-05 19:36:00</time>
      </trkpt>
      <trkpt lat="41.28708" lon="1.73902">
        <ele>93.6</ele>
        <time>2020-10-05 19:36:06</time>
      </trkpt>
      <trkpt lat="41.28702" lon="1.73942">
        <ele>93.6</ele>
        <time>2020-10-05 19:36:09</time>
      </trkpt>
      <trkpt lat="41.287" lon="1.73969">
        <ele>93.6</ele>
        <time>2020-10-05 19:36:11</time>
      </trkpt>
      <trkpt lat="41.28701" lon="1.73997">
        <ele>93.6</ele>
        <time>2020-10-05 19:36:13</time>
      </trkpt>
      <trkpt lat="41.28709" lon="1.74071">
        <ele>94.2</ele>
        <time>2020-10-05 19:36:18</time>
      </trkpt>
      <trkpt lat="41.28709" lon="1.74134">
        <ele>94.4</ele>
        <time>2020-10-05 19:36:22</time>
      </trkpt>
      <trkpt lat="41.28697" lon="1.74192">
        <ele>94</ele>
        <time>2020-10-05 19:36:26</time>
      </trkpt>
      <trkpt lat="41.28688" lon="1.74218">
        <ele>93</ele>
        <time>2020-10-05 19:36:28</time>
      </trkpt>
      <trkpt lat="41.28677" lon="1.74242">
        <ele>92.8</ele>
        <time>2020-10-05 19:36:30</time>
      </trkpt>
      <trkpt lat="41.28647" lon="1.74305">
        <ele>92.8</ele>
        <time>2020-10-05 19:36:36</time>
      </trkpt>
      <trkpt lat="41.28642" lon="1.74315">
        <ele>93.2</ele>
        <time>2020-10-05 19:36:37</time>
      </trkpt>
      <trkpt lat="41.28634" lon="1.74334">
        <ele>94</ele>
        <time>2020-10-05 19:36:39</time>
      </trkpt>
      <trkpt lat="41.28627" lon="1.74354">
        <ele>95</ele>
        <time>2020-10-05 19:36:41</time>
      </trkpt>
      <trkpt lat="41.28621" lon="1.74374">
        <ele>96.2</ele>
        <time>2020-10-05 19:36:43</time>
      </trkpt>
      <trkpt lat="41.28616" lon="1.74395">
        <ele>97.6</ele>
        <time>2020-10-05 19:36:45</time>
      </trkpt>
      <trkpt lat="41.28613" lon="1.74415">
        <ele>98.6</ele>
        <time>2020-10-05 19:36:47</time>
      </trkpt>
      <trkpt lat="41.28612" lon="1.74437">
        <ele>99.6</ele>
        <time>2020-10-05 19:36:49</time>
      </trkpt>
      <trkpt lat="41.28612" lon="1.74447">
        <ele>100</ele>
        <time>2020-10-05 19:36:50</time>
      </trkpt>
      <trkpt lat="41.28615" lon="1.74503">
        <ele>100.8</ele>
        <time>2020-10-05 19:36:55</time>
      </trkpt>
      <trkpt lat="41.28618" lon="1.74574">
        <ele>100.8</ele>
        <time>2020-10-05 19:37:01</time>
      </trkpt>
      <trkpt lat="41.2861" lon="1.7464">
        <ele>100.4</ele>
        <time>2020-10-05 19:37:06</time>
      </trkpt>
      <trkpt lat="41.28591" lon="1.74694">
        <ele>99.4</ele>
        <time>2020-10-05 19:37:10</time>
      </trkpt>
      <trkpt lat="41.28577" lon="1.74719">
        <ele>98.6</ele>
        <time>2020-10-05 19:37:12</time>
      </trkpt>
      <trkpt lat="41.28561" lon="1.74743">
        <ele>97.6</ele>
        <time>2020-10-05 19:37:14</time>
      </trkpt>
      <trkpt lat="41.28553" lon="1.74754">
        <ele>97.2</ele>
        <time>2020-10-05 19:37:15</time>
      </trkpt>
      <trkpt lat="41.28535" lon="1.74776">
        <ele>96</ele>
        <time>2020-10-05 19:37:17</time>
      </trkpt>
      <trkpt lat="41.28518" lon="1.74801">
        <ele>95</ele>
        <time>2020-10-05 19:37:19</time>
      </trkpt>
      <trkpt lat="41.28504" lon="1.74828">
        <ele>93.4</ele>
        <time>2020-10-05 19:37:21</time>
      </trkpt>
      <trkpt lat="41.28489" lon="1.74855">
        <ele>92.2</ele>
        <time>2020-10-05 19:37:23</time>
      </trkpt>
      <trkpt lat="41.28475" lon="1.74882">
        <ele>90.4</ele>
        <time>2020-10-05 19:37:25</time>
      </trkpt>
      <trkpt lat="41.28459" lon="1.74907">
        <ele>89.2</ele>
        <time>2020-10-05 19:37:27</time>
      </trkpt>
      <trkpt lat="41.28443" lon="1.74931">
        <ele>87.8</ele>
        <time>2020-10-05 19:37:29</time>
      </trkpt>
      <trkpt lat="41.28426" lon="1.74953">
        <ele>86.8</ele>
        <time>2020-10-05 19:37:31</time>
      </trkpt>
      <trkpt lat="41.2838" lon="1.75006">
        <ele>85.8</ele>
        <time>2020-10-05 19:37:36</time>
      </trkpt>
      <trkpt lat="41.28371" lon="1.75015">
        <ele>85.4</ele>
        <time>2020-10-05 19:37:37</time>
      </trkpt>
      <trkpt lat="41.28361" lon="1.75025">
        <ele>85.2</ele>
        <time>2020-10-05 19:37:38</time>
      </trkpt>
      <trkpt lat="41.28321" lon="1.75058">
        <ele>84.4</ele>
        <time>2020-10-05 19:37:42</time>
      </trkpt>
      <trkpt lat="41.2831" lon="1.75066">
        <ele>84.2</ele>
        <time>2020-10-05 19:37:43</time>
      </trkpt>
      <trkpt lat="41.28266" lon="1.75087">
        <ele>83.6</ele>
        <time>2020-10-05 19:37:47</time>
      </trkpt>
      <trkpt lat="41.28254" lon="1.75091">
        <ele>83.2</ele>
        <time>2020-10-05 19:37:48</time>
      </trkpt>
      <trkpt lat="41.28209" lon="1.75107">
        <ele>82</ele>
        <time>2020-10-05 19:37:52</time>
      </trkpt>
      <trkpt lat="41.28166" lon="1.75126">
        <ele>81.4</ele>
        <time>2020-10-05 19:37:56</time>
      </trkpt>
      <trkpt lat="41.28156" lon="1.75132">
        <ele>81.4</ele>
        <time>2020-10-05 19:37:57</time>
      </trkpt>
      <trkpt lat="41.28138" lon="1.75149">
        <ele>81.4</ele>
        <time>2020-10-05 19:37:59</time>
      </trkpt>
      <trkpt lat="41.28093" lon="1.75203">
        <ele>81.4</ele>
        <time>2020-10-05 19:38:05</time>
      </trkpt>
      <trkpt lat="41.28058" lon="1.7525">
        <ele>83.4</ele>
        <time>2020-10-05 19:38:10</time>
      </trkpt>
      <trkpt lat="41.28045" lon="1.75271">
        <ele>84.4</ele>
        <time>2020-10-05 19:38:12</time>
      </trkpt>
      <trkpt lat="41.28028" lon="1.75324">
        <ele>85</ele>
        <time>2020-10-05 19:38:16</time>
      </trkpt>
      <trkpt lat="41.2803" lon="1.7537">
        <ele>85.2</ele>
        <time>2020-10-05 19:38:19</time>
      </trkpt>
      <trkpt lat="41.28035" lon="1.75401">
        <ele>85.2</ele>
        <time>2020-10-05 19:38:21</time>
      </trkpt>
      <trkpt lat="41.28045" lon="1.75446">
        <ele>84.8</ele>
        <time>2020-10-05 19:38:24</time>
      </trkpt>
      <trkpt lat="41.28062" lon="1.75522">
        <ele>84.8</ele>
        <time>2020-10-05 19:38:29</time>
      </trkpt>
      <trkpt lat="41.28065" lon="1.75586">
        <ele>84</ele>
        <time>2020-10-05 19:38:33</time>
      </trkpt>
      <trkpt lat="41.28063" lon="1.75617">
        <ele>83</ele>
        <time>2020-10-05 19:38:35</time>
      </trkpt>
      <trkpt lat="41.28055" lon="1.75662">
        <ele>81.8</ele>
        <time>2020-10-05 19:38:38</time>
      </trkpt>
      <trkpt lat="41.28034" lon="1.75729">
        <ele>81.6</ele>
        <time>2020-10-05 19:38:43</time>
      </trkpt>
      <trkpt lat="41.28009" lon="1.75778">
        <ele>81.4</ele>
        <time>2020-10-05 19:38:47</time>
      </trkpt>
      <trkpt lat="41.27973" lon="1.75835">
        <ele>81.4</ele>
        <time>2020-10-05 19:38:52</time>
      </trkpt>
      <trkpt lat="41.27948" lon="1.75867">
        <ele>81.4</ele>
        <time>2020-10-05 19:38:55</time>
      </trkpt>
      <trkpt lat="41.27906" lon="1.75918">
        <ele>81</ele>
        <time>2020-10-05 19:39:00</time>
      </trkpt>
      <trkpt lat="41.27898" lon="1.75929">
        <ele>80.8</ele>
        <time>2020-10-05 19:39:01</time>
      </trkpt>
      <trkpt lat="41.27872" lon="1.75962">
        <ele>80.4</ele>
        <time>2020-10-05 19:39:04</time>
      </trkpt>
      <trkpt lat="41.27854" lon="1.75984">
        <ele>79.6</ele>
        <time>2020-10-05 19:39:06</time>
      </trkpt>
      <trkpt lat="41.2781" lon="1.76038">
        <ele>77.2</ele>
        <time>2020-10-05 19:39:11</time>
      </trkpt>
      <trkpt lat="41.27802" lon="1.76049">
        <ele>75.4</ele>
        <time>2020-10-05 19:39:12</time>
      </trkpt>
      <trkpt lat="41.27793" lon="1.7606">
        <ele>74.2</ele>
        <time>2020-10-05 19:39:13</time>
      </trkpt>
      <trkpt lat="41.27786" lon="1.76073">
        <ele>73.2</ele>
        <time>2020-10-05 19:39:14</time>
      </trkpt>
      <trkpt lat="41.2778" lon="1.76086">
        <ele>72.6</ele>
        <time>2020-10-05 19:39:15</time>
      </trkpt>
      <trkpt lat="41.27771" lon="1.76115">
        <ele>71.6</ele>
        <time>2020-10-05 19:39:17</time>
      </trkpt>
      <trkpt lat="41.27765" lon="1.76144">
        <ele>70.8</ele>
        <time>2020-10-05 19:39:19</time>
      </trkpt>
      <trkpt lat="41.27758" lon="1.76185">
        <ele>70.6</ele>
        <time>2020-10-05 19:39:22</time>
      </trkpt>
      <trkpt lat="41.27749" lon="1.76219">
        <ele>70.4</ele>
        <time>2020-10-05 19:39:25</time>
      </trkpt>
      <trkpt lat="41.27745" lon="1.76227">
        <ele>70.4</ele>
        <time>2020-10-05 19:39:26</time>
      </trkpt>
      <trkpt lat="41.2773" lon="1.76231">
        <ele>70.4</ele>
        <time>2020-10-05 19:39:28</time>
      </trkpt>
      <trkpt lat="41.27718" lon="1.76218">
        <ele>71.2</ele>
        <time>2020-10-05 19:39:30</time>
      </trkpt>
      <trkpt lat="41.2771" lon="1.76199">
        <ele>72.4</ele>
        <time>2020-10-05 19:39:32</time>
      </trkpt>
      <trkpt lat="41.27701" lon="1.76178">
        <ele>74.2</ele>
        <time>2020-10-05 19:39:34</time>
      </trkpt>
      <trkpt lat="41.27689" lon="1.7616">
        <ele>75.4</ele>
        <time>2020-10-05 19:39:36</time>
      </trkpt>
      <trkpt lat="41.27675" lon="1.76143">
        <ele>76.4</ele>
        <time>2020-10-05 19:39:38</time>
      </trkpt>
      <trkpt lat="41.27668" lon="1.76135">
        <ele>76.6</ele>
        <time>2020-10-05 19:39:39</time>
      </trkpt>
      <trkpt lat="41.27622" lon="1.76082">
        <ele>76.8</ele>
        <time>2020-10-05 19:39:45</time>
      </trkpt>
      <trkpt lat="41.27614" lon="1.76073">
        <ele>76.8</ele>
        <time>2020-10-05 19:39:46</time>
      </trkpt>
      <trkpt lat="41.27564" lon="1.76018">
        <ele>75.6</ele>
        <time>2020-10-05 19:39:52</time>
      </trkpt>
      <trkpt lat="41.27554" lon="1.76012">
        <ele>75.2</ele>
        <time>2020-10-05 19:39:53</time>
      </trkpt>
      <trkpt lat="41.27543" lon="1.7601">
        <ele>75</ele>
        <time>2020-10-05 19:39:54</time>
      </trkpt>
      <trkpt lat="41.27511" lon="1.7602">
        <ele>74</ele>
        <time>2020-10-05 19:39:57</time>
      </trkpt>
      <trkpt lat="41.27492" lon="1.76038">
        <ele>73</ele>
        <time>2020-10-05 19:39:59</time>
      </trkpt>
      <trkpt lat="41.27474" lon="1.76059">
        <ele>72.2</ele>
        <time>2020-10-05 19:40:01</time>
      </trkpt>
      <trkpt lat="41.27466" lon="1.76071">
        <ele>71.8</ele>
        <time>2020-10-05 19:40:02</time>
      </trkpt>
      <trkpt lat="41.27453" lon="1.76099">
        <ele>70.8</ele>
        <time>2020-10-05 19:40:04</time>
      </trkpt>
      <trkpt lat="41.27449" lon="1.76115">
        <ele>70.2</ele>
        <time>2020-10-05 19:40:05</time>
      </trkpt>
      <trkpt lat="41.27446" lon="1.7613">
        <ele>69.2</ele>
        <time>2020-10-05 19:40:06</time>
      </trkpt>
      <trkpt lat="41.27443" lon="1.76146">
        <ele>68.6</ele>
        <time>2020-10-05 19:40:07</time>
      </trkpt>
      <trkpt lat="41.27439" lon="1.76178">
        <ele>67</ele>
        <time>2020-10-05 19:40:09</time>
      </trkpt>
      <trkpt lat="41.27435" lon="1.76209">
        <ele>65.8</ele>
        <time>2020-10-05 19:40:11</time>
      </trkpt>
      <trkpt lat="41.2743" lon="1.76239">
        <ele>64.8</ele>
        <time>2020-10-05 19:40:13</time>
      </trkpt>
      <trkpt lat="41.27418" lon="1.76311">
        <ele>64.2</ele>
        <time>2020-10-05 19:40:18</time>
      </trkpt>
      <trkpt lat="41.27409" lon="1.76352">
        <ele>64.2</ele>
        <time>2020-10-05 19:40:21</time>
      </trkpt>
      <trkpt lat="41.27403" lon="1.76364">
        <ele>64.4</ele>
        <time>2020-10-05 19:40:22</time>
      </trkpt>
      <trkpt lat="41.2738" lon="1.76391">
        <ele>65</ele>
        <time>2020-10-05 19:40:25</time>
      </trkpt>
      <trkpt lat="41.27351" lon="1.76405">
        <ele>65.4</ele>
        <time>2020-10-05 19:40:28</time>
      </trkpt>
      <trkpt lat="41.27341" lon="1.76407">
        <ele>65.4</ele>
        <time>2020-10-05 19:40:29</time>
      </trkpt>
      <trkpt lat="41.27298" lon="1.76417">
        <ele>65.6</ele>
        <time>2020-10-05 19:40:33</time>
      </trkpt>
      <trkpt lat="41.27254" lon="1.7643">
        <ele>65.8</ele>
        <time>2020-10-05 19:40:37</time>
      </trkpt>
      <trkpt lat="41.27244" lon="1.76436">
        <ele>65.8</ele>
        <time>2020-10-05 19:40:38</time>
      </trkpt>
      <trkpt lat="41.27225" lon="1.76468">
        <ele>65.8</ele>
        <time>2020-10-05 19:40:41</time>
      </trkpt>
      <trkpt lat="41.27226" lon="1.76498">
        <ele>65.4</ele>
        <time>2020-10-05 19:40:43</time>
      </trkpt>
      <trkpt lat="41.27238" lon="1.76544">
        <ele>64.8</ele>
        <time>2020-10-05 19:40:46</time>
      </trkpt>
      <trkpt lat="41.27243" lon="1.76558">
        <ele>64.6</ele>
        <time>2020-10-05 19:40:47</time>
      </trkpt>
      <trkpt lat="41.2726" lon="1.76613">
        <ele>63.4</ele>
        <time>2020-10-05 19:40:51</time>
      </trkpt>
      <trkpt lat="41.27263" lon="1.76626">
        <ele>63.2</ele>
        <time>2020-10-05 19:40:52</time>
      </trkpt>
      <trkpt lat="41.27265" lon="1.76639">
        <ele>63.2</ele>
        <time>2020-10-05 19:40:53</time>
      </trkpt>
      <trkpt lat="41.27266" lon="1.76665">
        <ele>63.2</ele>
        <time>2020-10-05 19:40:55</time>
      </trkpt>
      <trkpt lat="41.27259" lon="1.76702">
        <ele>63</ele>
        <time>2020-10-05 19:40:58</time>
      </trkpt>
      <trkpt lat="41.27246" lon="1.76721">
        <ele>63.6</ele>
        <time>2020-10-05 19:41:00</time>
      </trkpt>
      <trkpt lat="41.27229" lon="1.7673">
        <ele>64.6</ele>
        <time>2020-10-05 19:41:02</time>
      </trkpt>
      <trkpt lat="41.27219" lon="1.76733">
        <ele>65.2</ele>
        <time>2020-10-05 19:41:03</time>
      </trkpt>
      <trkpt lat="41.27199" lon="1.76738">
        <ele>65.8</ele>
        <time>2020-10-05 19:41:05</time>
      </trkpt>
      <trkpt lat="41.27168" lon="1.76746">
        <ele>66.2</ele>
        <time>2020-10-05 19:41:08</time>
      </trkpt>
      <trkpt lat="41.27133" lon="1.76755">
        <ele>66.4</ele>
        <time>2020-10-05 19:41:11</time>
      </trkpt>
      <trkpt lat="41.27121" lon="1.76755">
        <ele>66.4</ele>
        <time>2020-10-05 19:41:12</time>
      </trkpt>
      <trkpt lat="41.27061" lon="1.76743">
        <ele>65.2</ele>
        <time>2020-10-05 19:41:17</time>
      </trkpt>
      <trkpt lat="41.27049" lon="1.76738">
        <ele>64.8</ele>
        <time>2020-10-05 19:41:18</time>
      </trkpt>
      <trkpt lat="41.27039" lon="1.7673">
        <ele>64.4</ele>
        <time>2020-10-05 19:41:19</time>
      </trkpt>
      <trkpt lat="41.27028" lon="1.76722">
        <ele>63.6</ele>
        <time>2020-10-05 19:41:20</time>
      </trkpt>
      <trkpt lat="41.27018" lon="1.76713">
        <ele>62.2</ele>
        <time>2020-10-05 19:41:21</time>
      </trkpt>
      <trkpt lat="41.27008" lon="1.76705">
        <ele>61</ele>
        <time>2020-10-05 19:41:22</time>
      </trkpt>
      <trkpt lat="41.26988" lon="1.76688">
        <ele>59.6</ele>
        <time>2020-10-05 19:41:24</time>
      </trkpt>
      <trkpt lat="41.26958" lon="1.76663">
        <ele>58.6</ele>
        <time>2020-10-05 19:41:27</time>
      </trkpt>
      <trkpt lat="41.26948" lon="1.76655">
        <ele>58.4</ele>
        <time>2020-10-05 19:41:28</time>
      </trkpt>
      <trkpt lat="41.26899" lon="1.76614">
        <ele>58</ele>
        <time>2020-10-05 19:41:33</time>
      </trkpt>
      <trkpt lat="41.26879" lon="1.76599">
        <ele>57.6</ele>
        <time>2020-10-05 19:41:35</time>
      </trkpt>
      <trkpt lat="41.26869" lon="1.76592">
        <ele>57.4</ele>
        <time>2020-10-05 19:41:36</time>
      </trkpt>
      <trkpt lat="41.26859" lon="1.76587">
        <ele>57.2</ele>
        <time>2020-10-05 19:41:37</time>
      </trkpt>
      <trkpt lat="41.26837" lon="1.76581">
        <ele>56.6</ele>
        <time>2020-10-05 19:41:39</time>
      </trkpt>
      <trkpt lat="41.26826" lon="1.76582">
        <ele>56</ele>
        <time>2020-10-05 19:41:40</time>
      </trkpt>
      <trkpt lat="41.26816" lon="1.76586">
        <ele>55.6</ele>
        <time>2020-10-05 19:41:41</time>
      </trkpt>
      <trkpt lat="41.26799" lon="1.76606">
        <ele>55.4</ele>
        <time>2020-10-05 19:41:43</time>
      </trkpt>
      <trkpt lat="41.26792" lon="1.76634">
        <ele>55.2</ele>
        <time>2020-10-05 19:41:45</time>
      </trkpt>
      <trkpt lat="41.26785" lon="1.76663">
        <ele>55</ele>
        <time>2020-10-05 19:41:47</time>
      </trkpt>
      <trkpt lat="41.26776" lon="1.76689">
        <ele>54.4</ele>
        <time>2020-10-05 19:41:49</time>
      </trkpt>
      <trkpt lat="41.26764" lon="1.76714">
        <ele>53.4</ele>
        <time>2020-10-05 19:41:51</time>
      </trkpt>
      <trkpt lat="41.2674" lon="1.76762">
        <ele>52.8</ele>
        <time>2020-10-05 19:41:55</time>
      </trkpt>
      <trkpt lat="41.26713" lon="1.76826">
        <ele>52.8</ele>
        <time>2020-10-05 19:42:00</time>
      </trkpt>
      <trkpt lat="41.26708" lon="1.76839">
        <ele>53.2</ele>
        <time>2020-10-05 19:42:01</time>
      </trkpt>
      <trkpt lat="41.26686" lon="1.76907">
        <ele>54.4</ele>
        <time>2020-10-05 19:42:06</time>
      </trkpt>
      <trkpt lat="41.26681" lon="1.7692">
        <ele>54.6</ele>
        <time>2020-10-05 19:42:07</time>
      </trkpt>
      <trkpt lat="41.26673" lon="1.76947">
        <ele>54.8</ele>
        <time>2020-10-05 19:42:09</time>
      </trkpt>
      <trkpt lat="41.26652" lon="1.77009">
        <ele>55</ele>
        <time>2020-10-05 19:42:14</time>
      </trkpt>
      <trkpt lat="41.26646" lon="1.77019">
        <ele>55</ele>
        <time>2020-10-05 19:42:15</time>
      </trkpt>
      <trkpt lat="41.26621" lon="1.77035">
        <ele>55</ele>
        <time>2020-10-05 19:42:18</time>
      </trkpt>
      <trkpt lat="41.26594" lon="1.77034">
        <ele>55</ele>
        <time>2020-10-05 19:42:21</time>
      </trkpt>
      <trkpt lat="41.26534" lon="1.77024">
        <ele>54.8</ele>
        <time>2020-10-05 19:42:28</time>
      </trkpt>
      <trkpt lat="41.26489" lon="1.77019">
        <ele>54.6</ele>
        <time>2020-10-05 19:42:33</time>
      </trkpt>
      <trkpt lat="41.2648" lon="1.7702">
        <ele>54.2</ele>
        <time>2020-10-05 19:42:34</time>
      </trkpt>
      <trkpt lat="41.26454" lon="1.7703">
        <ele>53.2</ele>
        <time>2020-10-05 19:42:37</time>
      </trkpt>
      <trkpt lat="41.26446" lon="1.77035">
        <ele>52.2</ele>
        <time>2020-10-05 19:42:38</time>
      </trkpt>
      <trkpt lat="41.26437" lon="1.77041">
        <ele>51.8</ele>
        <time>2020-10-05 19:42:39</time>
      </trkpt>
      <trkpt lat="41.26411" lon="1.7706">
        <ele>51.2</ele>
        <time>2020-10-05 19:42:42</time>
      </trkpt>
      <trkpt lat="41.26402" lon="1.77067">
        <ele>51</ele>
        <time>2020-10-05 19:42:43</time>
      </trkpt>
      <trkpt lat="41.26394" lon="1.77075">
        <ele>50.6</ele>
        <time>2020-10-05 19:42:44</time>
      </trkpt>
      <trkpt lat="41.26378" lon="1.7709">
        <ele>49.4</ele>
        <time>2020-10-05 19:42:46</time>
      </trkpt>
      <trkpt lat="41.26365" lon="1.77103">
        <ele>48.4</ele>
        <time>2020-10-05 19:42:48</time>
      </trkpt>
      <trkpt lat="41.26359" lon="1.77109">
        <ele>47.6</ele>
        <time>2020-10-05 19:42:49</time>
      </trkpt>
    </trkseg>
  </trk>
</gpx>
